<?xml version="1.0" encoding="UTF-8" standalone="no" ?>
<gpx xmlns="http://www.topografix.com/GPX/1/1" xmlns:xsi="http://www.w3.org/2001/XMLSchema-instance" xsi:schemaLocation="http://www.topografix.com/GPX/1/1 http://www.topografix.com/GPX/1/1/gpx.xsd" version="1.1" creator="VisuGPX - https://www.visugpx.com">
  <metadata>
    <name>Rando Hte Rivoire</name>
    <desc><![CDATA[Rando de nuit à Haute Rivoire]]></desc>
  </metadata>
  <wpt lat="-1" lon="-1">
  </wpt>
  <trk>
    <name><![CDATA[Rando Hte Rivoire_1]]></name>
    <trkseg>
      <trkpt lat="45.71343" lon="4.39838">
        <ele>584.7</ele>
        <time>2015-06-27T21:10:47Z</time>
      </trkpt>
      <trkpt lat="45.71343" lon="4.3984">
        <ele>584.7</ele>
        <time>2015-06-27T21:10:52Z</time>
      </trkpt>
      <trkpt lat="45.71343" lon="4.3984">
        <ele>584.7</ele>
        <time>2015-06-27T21:10:57Z</time>
      </trkpt>
      <trkpt lat="45.71343" lon="4.3984">
        <ele>584.7</ele>
        <time>2015-06-27T21:11:02Z</time>
      </trkpt>
      <trkpt lat="45.71343" lon="4.39839">
        <ele>584.7</ele>
        <time>2015-06-27T21:11:07Z</time>
      </trkpt>
      <trkpt lat="45.71343" lon="4.3984">
        <ele>584.7</ele>
        <time>2015-06-27T21:11:12Z</time>
      </trkpt>
      <trkpt lat="45.71343" lon="4.39842">
        <ele>584.7</ele>
        <time>2015-06-27T21:11:17Z</time>
      </trkpt>
      <trkpt lat="45.71343" lon="4.39843">
        <ele>584.7</ele>
        <time>2015-06-27T21:11:22Z</time>
      </trkpt>
      <trkpt lat="45.71344" lon="4.39843">
        <ele>584.7</ele>
        <time>2015-06-27T21:11:27Z</time>
      </trkpt>
      <trkpt lat="45.71344" lon="4.39841">
        <ele>584.7</ele>
        <time>2015-06-27T21:11:32Z</time>
      </trkpt>
      <trkpt lat="45.71344" lon="4.39841">
        <ele>584.7</ele>
        <time>2015-06-27T21:11:37Z</time>
      </trkpt>
      <trkpt lat="45.71343" lon="4.39841">
        <ele>584.7</ele>
        <time>2015-06-27T21:11:42Z</time>
      </trkpt>
      <trkpt lat="45.71343" lon="4.39838">
        <ele>584.7</ele>
        <time>2015-06-27T21:11:47Z</time>
      </trkpt>
      <trkpt lat="45.71343" lon="4.39837">
        <ele>582.4821</ele>
        <time>2015-06-27T21:11:52Z</time>
      </trkpt>
      <trkpt lat="45.71343" lon="4.39835">
        <ele>582.4821</ele>
        <time>2015-06-27T21:11:57Z</time>
      </trkpt>
      <trkpt lat="45.71345" lon="4.39836">
        <ele>582.4821</ele>
        <time>2015-06-27T21:12:02Z</time>
      </trkpt>
      <trkpt lat="45.71345" lon="4.39838">
        <ele>582.4821</ele>
        <time>2015-06-27T21:12:07Z</time>
      </trkpt>
      <trkpt lat="45.71346" lon="4.39838">
        <ele>582.4821</ele>
        <time>2015-06-27T21:12:12Z</time>
      </trkpt>
      <trkpt lat="45.71346" lon="4.39838">
        <ele>582.4821</ele>
        <time>2015-06-27T21:12:17Z</time>
      </trkpt>
      <trkpt lat="45.71346" lon="4.39838">
        <ele>582.4821</ele>
        <time>2015-06-27T21:12:22Z</time>
      </trkpt>
      <trkpt lat="45.71346" lon="4.39837">
        <ele>582.4821</ele>
        <time>2015-06-27T21:12:27Z</time>
      </trkpt>
      <trkpt lat="45.71346" lon="4.39838">
        <ele>582.4821</ele>
        <time>2015-06-27T21:12:32Z</time>
      </trkpt>
      <trkpt lat="45.71347" lon="4.39841">
        <ele>582.4821</ele>
        <time>2015-06-27T21:12:37Z</time>
      </trkpt>
      <trkpt lat="45.7135" lon="4.39843">
        <ele>585.38477</ele>
        <time>2015-06-27T21:12:42Z</time>
      </trkpt>
      <trkpt lat="45.71354" lon="4.39841">
        <ele>585.38477</ele>
        <time>2015-06-27T21:12:47Z</time>
      </trkpt>
      <trkpt lat="45.71359" lon="4.39838">
        <ele>588.3234</ele>
        <time>2015-06-27T21:12:52Z</time>
      </trkpt>
      <trkpt lat="45.71361" lon="4.39839">
        <ele>588.3234</ele>
        <time>2015-06-27T21:12:57Z</time>
      </trkpt>
      <trkpt lat="45.71365" lon="4.39838">
        <ele>588.3234</ele>
        <time>2015-06-27T21:13:02Z</time>
      </trkpt>
      <trkpt lat="45.71368" lon="4.39836">
        <ele>591.2117</ele>
        <time>2015-06-27T21:13:07Z</time>
      </trkpt>
      <trkpt lat="45.71372" lon="4.39834">
        <ele>591.2117</ele>
        <time>2015-06-27T21:13:12Z</time>
      </trkpt>
      <trkpt lat="45.71372" lon="4.39831">
        <ele>591.2117</ele>
        <time>2015-06-27T21:13:17Z</time>
      </trkpt>
      <trkpt lat="45.71375" lon="4.39825">
        <ele>594.2039</ele>
        <time>2015-06-27T21:13:22Z</time>
      </trkpt>
      <trkpt lat="45.71378" lon="4.39819">
        <ele>594.2039</ele>
        <time>2015-06-27T21:13:27Z</time>
      </trkpt>
      <trkpt lat="45.71381" lon="4.39814">
        <ele>594.2039</ele>
        <time>2015-06-27T21:13:32Z</time>
      </trkpt>
      <trkpt lat="45.71384" lon="4.39812">
        <ele>597.195</ele>
        <time>2015-06-27T21:13:37Z</time>
      </trkpt>
      <trkpt lat="45.71386" lon="4.39811">
        <ele>597.195</ele>
        <time>2015-06-27T21:13:42Z</time>
      </trkpt>
      <trkpt lat="45.71388" lon="4.39808">
        <ele>597.195</ele>
        <time>2015-06-27T21:13:47Z</time>
      </trkpt>
      <trkpt lat="45.7139" lon="4.39805">
        <ele>597.195</ele>
        <time>2015-06-27T21:13:52Z</time>
      </trkpt>
      <trkpt lat="45.71393" lon="4.39803">
        <ele>600.0471</ele>
        <time>2015-06-27T21:13:57Z</time>
      </trkpt>
      <trkpt lat="45.71395" lon="4.39797">
        <ele>600.0471</ele>
        <time>2015-06-27T21:14:02Z</time>
      </trkpt>
      <trkpt lat="45.71397" lon="4.39794">
        <ele>600.0471</ele>
        <time>2015-06-27T21:14:07Z</time>
      </trkpt>
      <trkpt lat="45.714" lon="4.3979">
        <ele>602.75836</ele>
        <time>2015-06-27T21:14:12Z</time>
      </trkpt>
      <trkpt lat="45.71403" lon="4.39787">
        <ele>602.75836</ele>
        <time>2015-06-27T21:14:17Z</time>
      </trkpt>
      <trkpt lat="45.71407" lon="4.39783">
        <ele>602.75836</ele>
        <time>2015-06-27T21:14:22Z</time>
      </trkpt>
      <trkpt lat="45.7141" lon="4.3978">
        <ele>605.1152</ele>
        <time>2015-06-27T21:14:27Z</time>
      </trkpt>
      <trkpt lat="45.71414" lon="4.39776">
        <ele>605.1152</ele>
        <time>2015-06-27T21:14:32Z</time>
      </trkpt>
      <trkpt lat="45.71417" lon="4.39772">
        <ele>607.093</ele>
        <time>2015-06-27T21:14:37Z</time>
      </trkpt>
      <trkpt lat="45.71421" lon="4.39767">
        <ele>607.093</ele>
        <time>2015-06-27T21:14:42Z</time>
      </trkpt>
      <trkpt lat="45.71424" lon="4.39765">
        <ele>607.093</ele>
        <time>2015-06-27T21:14:47Z</time>
      </trkpt>
      <trkpt lat="45.71431" lon="4.39763">
        <ele>608.7093</ele>
        <time>2015-06-27T21:14:52Z</time>
      </trkpt>
      <trkpt lat="45.71435" lon="4.39759">
        <ele>608.7093</ele>
        <time>2015-06-27T21:14:57Z</time>
      </trkpt>
      <trkpt lat="45.71439" lon="4.39758">
        <ele>608.7093</ele>
        <time>2015-06-27T21:15:02Z</time>
      </trkpt>
      <trkpt lat="45.71442" lon="4.39753">
        <ele>609.86755</ele>
        <time>2015-06-27T21:15:07Z</time>
      </trkpt>
      <trkpt lat="45.71447" lon="4.39749">
        <ele>609.86755</ele>
        <time>2015-06-27T21:15:12Z</time>
      </trkpt>
      <trkpt lat="45.7145" lon="4.39748">
        <ele>609.86755</ele>
        <time>2015-06-27T21:15:17Z</time>
      </trkpt>
      <trkpt lat="45.71456" lon="4.39745">
        <ele>610.71246</ele>
        <time>2015-06-27T21:15:22Z</time>
      </trkpt>
      <trkpt lat="45.71462" lon="4.39742">
        <ele>610.71246</ele>
        <time>2015-06-27T21:15:27Z</time>
      </trkpt>
      <trkpt lat="45.71465" lon="4.3974">
        <ele>611.4868</ele>
        <time>2015-06-27T21:15:32Z</time>
      </trkpt>
      <trkpt lat="45.7147" lon="4.39736">
        <ele>611.4868</ele>
        <time>2015-06-27T21:15:37Z</time>
      </trkpt>
      <trkpt lat="45.71475" lon="4.39731">
        <ele>612.21387</ele>
        <time>2015-06-27T21:15:42Z</time>
      </trkpt>
      <trkpt lat="45.71478" lon="4.39726">
        <ele>612.21387</ele>
        <time>2015-06-27T21:15:47Z</time>
      </trkpt>
      <trkpt lat="45.7148" lon="4.39724">
        <ele>612.21387</ele>
        <time>2015-06-27T21:15:52Z</time>
      </trkpt>
      <trkpt lat="45.71485" lon="4.39719">
        <ele>613.0442</ele>
        <time>2015-06-27T21:15:57Z</time>
      </trkpt>
      <trkpt lat="45.71491" lon="4.39714">
        <ele>613.0442</ele>
        <time>2015-06-27T21:16:02Z</time>
      </trkpt>
      <trkpt lat="45.71495" lon="4.3971">
        <ele>613.91034</ele>
        <time>2015-06-27T21:16:07Z</time>
      </trkpt>
      <trkpt lat="45.715" lon="4.39707">
        <ele>613.91034</ele>
        <time>2015-06-27T21:16:12Z</time>
      </trkpt>
      <trkpt lat="45.71505" lon="4.39708">
        <ele>614.77985</ele>
        <time>2015-06-27T21:16:17Z</time>
      </trkpt>
      <trkpt lat="45.71509" lon="4.39711">
        <ele>614.77985</ele>
        <time>2015-06-27T21:16:22Z</time>
      </trkpt>
      <trkpt lat="45.7151" lon="4.39714">
        <ele>614.77985</ele>
        <time>2015-06-27T21:16:27Z</time>
      </trkpt>
      <trkpt lat="45.71516" lon="4.39721">
        <ele>615.5724</ele>
        <time>2015-06-27T21:16:32Z</time>
      </trkpt>
      <trkpt lat="45.71523" lon="4.39725">
        <ele>615.5724</ele>
        <time>2015-06-27T21:16:37Z</time>
      </trkpt>
      <trkpt lat="45.71529" lon="4.39724">
        <ele>616.1992</ele>
        <time>2015-06-27T21:16:42Z</time>
      </trkpt>
      <trkpt lat="45.71534" lon="4.39727">
        <ele>616.1992</ele>
        <time>2015-06-27T21:16:47Z</time>
      </trkpt>
      <trkpt lat="45.71539" lon="4.39727">
        <ele>616.643</ele>
        <time>2015-06-27T21:16:52Z</time>
      </trkpt>
      <trkpt lat="45.71544" lon="4.39725">
        <ele>616.643</ele>
        <time>2015-06-27T21:16:57Z</time>
      </trkpt>
      <trkpt lat="45.7155" lon="4.39724">
        <ele>616.9022</ele>
        <time>2015-06-27T21:17:02Z</time>
      </trkpt>
      <trkpt lat="45.71554" lon="4.39724">
        <ele>616.9022</ele>
        <time>2015-06-27T21:17:07Z</time>
      </trkpt>
      <trkpt lat="45.71559" lon="4.39723">
        <ele>616.9438</ele>
        <time>2015-06-27T21:17:12Z</time>
      </trkpt>
      <trkpt lat="45.71564" lon="4.39725">
        <ele>616.9438</ele>
        <time>2015-06-27T21:17:17Z</time>
      </trkpt>
      <trkpt lat="45.71567" lon="4.39733">
        <ele>616.8553</ele>
        <time>2015-06-27T21:17:22Z</time>
      </trkpt>
      <trkpt lat="45.71566" lon="4.3974">
        <ele>616.8553</ele>
        <time>2015-06-27T21:17:27Z</time>
      </trkpt>
      <trkpt lat="45.71566" lon="4.39747">
        <ele>616.62415</ele>
        <time>2015-06-27T21:17:32Z</time>
      </trkpt>
      <trkpt lat="45.71569" lon="4.39753">
        <ele>616.62415</ele>
        <time>2015-06-27T21:17:37Z</time>
      </trkpt>
      <trkpt lat="45.71576" lon="4.39753">
        <ele>616.25226</ele>
        <time>2015-06-27T21:17:42Z</time>
      </trkpt>
      <trkpt lat="45.71582" lon="4.39749">
        <ele>616.25226</ele>
        <time>2015-06-27T21:17:47Z</time>
      </trkpt>
      <trkpt lat="45.71586" lon="4.39745">
        <ele>615.73956</ele>
        <time>2015-06-27T21:17:52Z</time>
      </trkpt>
      <trkpt lat="45.7159" lon="4.39741">
        <ele>615.73956</ele>
        <time>2015-06-27T21:17:57Z</time>
      </trkpt>
      <trkpt lat="45.71594" lon="4.39733">
        <ele>615.1131</ele>
        <time>2015-06-27T21:18:02Z</time>
      </trkpt>
      <trkpt lat="45.716" lon="4.39727">
        <ele>615.1131</ele>
        <time>2015-06-27T21:18:07Z</time>
      </trkpt>
      <trkpt lat="45.71604" lon="4.39724">
        <ele>614.39624</ele>
        <time>2015-06-27T21:18:12Z</time>
      </trkpt>
      <trkpt lat="45.71608" lon="4.39718">
        <ele>614.39624</ele>
        <time>2015-06-27T21:18:17Z</time>
      </trkpt>
      <trkpt lat="45.71614" lon="4.39712">
        <ele>613.62354</ele>
        <time>2015-06-27T21:18:22Z</time>
      </trkpt>
      <trkpt lat="45.71618" lon="4.39708">
        <ele>613.62354</ele>
        <time>2015-06-27T21:18:27Z</time>
      </trkpt>
      <trkpt lat="45.71623" lon="4.39702">
        <ele>612.7153</ele>
        <time>2015-06-27T21:18:32Z</time>
      </trkpt>
      <trkpt lat="45.71627" lon="4.39696">
        <ele>612.7153</ele>
        <time>2015-06-27T21:18:37Z</time>
      </trkpt>
      <trkpt lat="45.71628" lon="4.39688">
        <ele>611.7095</ele>
        <time>2015-06-27T21:18:42Z</time>
      </trkpt>
      <trkpt lat="45.71627" lon="4.39681">
        <ele>611.7095</ele>
        <time>2015-06-27T21:18:47Z</time>
      </trkpt>
      <trkpt lat="45.71624" lon="4.39674">
        <ele>610.6693</ele>
        <time>2015-06-27T21:18:52Z</time>
      </trkpt>
      <trkpt lat="45.71618" lon="4.39669">
        <ele>610.6693</ele>
        <time>2015-06-27T21:18:57Z</time>
      </trkpt>
      <trkpt lat="45.71615" lon="4.39664">
        <ele>609.6544</ele>
        <time>2015-06-27T21:19:02Z</time>
      </trkpt>
      <trkpt lat="45.71611" lon="4.39657">
        <ele>609.6544</ele>
        <time>2015-06-27T21:19:07Z</time>
      </trkpt>
      <trkpt lat="45.71611" lon="4.39648">
        <ele>608.72174</ele>
        <time>2015-06-27T21:19:12Z</time>
      </trkpt>
      <trkpt lat="45.71611" lon="4.39642">
        <ele>608.72174</ele>
        <time>2015-06-27T21:19:17Z</time>
      </trkpt>
      <trkpt lat="45.71611" lon="4.39634">
        <ele>607.8138</ele>
        <time>2015-06-27T21:19:22Z</time>
      </trkpt>
      <trkpt lat="45.71612" lon="4.39627">
        <ele>607.8138</ele>
        <time>2015-06-27T21:19:27Z</time>
      </trkpt>
      <trkpt lat="45.71614" lon="4.39619">
        <ele>607.0747</ele>
        <time>2015-06-27T21:19:32Z</time>
      </trkpt>
      <trkpt lat="45.71613" lon="4.39609">
        <ele>607.0747</ele>
        <time>2015-06-27T21:19:37Z</time>
      </trkpt>
      <trkpt lat="45.71614" lon="4.39603">
        <ele>606.5141</ele>
        <time>2015-06-27T21:19:42Z</time>
      </trkpt>
      <trkpt lat="45.71617" lon="4.39596">
        <ele>606.5141</ele>
        <time>2015-06-27T21:19:47Z</time>
      </trkpt>
      <trkpt lat="45.7162" lon="4.39595">
        <ele>605.9985</ele>
        <time>2015-06-27T21:19:52Z</time>
      </trkpt>
      <trkpt lat="45.71625" lon="4.39594">
        <ele>605.9985</ele>
        <time>2015-06-27T21:19:57Z</time>
      </trkpt>
      <trkpt lat="45.71631" lon="4.39594">
        <ele>605.3726</ele>
        <time>2015-06-27T21:20:02Z</time>
      </trkpt>
      <trkpt lat="45.71636" lon="4.39594">
        <ele>605.3726</ele>
        <time>2015-06-27T21:20:07Z</time>
      </trkpt>
      <trkpt lat="45.71639" lon="4.39595">
        <ele>605.3726</ele>
        <time>2015-06-27T21:20:12Z</time>
      </trkpt>
      <trkpt lat="45.71644" lon="4.39599">
        <ele>604.57623</ele>
        <time>2015-06-27T21:20:17Z</time>
      </trkpt>
      <trkpt lat="45.7165" lon="4.39601">
        <ele>604.57623</ele>
        <time>2015-06-27T21:20:22Z</time>
      </trkpt>
      <trkpt lat="45.71657" lon="4.39601">
        <ele>603.71313</ele>
        <time>2015-06-27T21:20:27Z</time>
      </trkpt>
      <trkpt lat="45.71663" lon="4.39602">
        <ele>603.71313</ele>
        <time>2015-06-27T21:20:32Z</time>
      </trkpt>
      <trkpt lat="45.71667" lon="4.39601">
        <ele>602.80884</ele>
        <time>2015-06-27T21:20:37Z</time>
      </trkpt>
      <trkpt lat="45.71671" lon="4.39602">
        <ele>602.80884</ele>
        <time>2015-06-27T21:20:42Z</time>
      </trkpt>
      <trkpt lat="45.71674" lon="4.39602">
        <ele>602.80884</ele>
        <time>2015-06-27T21:20:47Z</time>
      </trkpt>
      <trkpt lat="45.71674" lon="4.39602">
        <ele>602.80884</ele>
        <time>2015-06-27T21:20:52Z</time>
      </trkpt>
      <trkpt lat="45.71679" lon="4.39603">
        <ele>601.72534</ele>
        <time>2015-06-27T21:20:57Z</time>
      </trkpt>
      <trkpt lat="45.71686" lon="4.39606">
        <ele>601.72534</ele>
        <time>2015-06-27T21:21:02Z</time>
      </trkpt>
      <trkpt lat="45.71692" lon="4.39608">
        <ele>600.407</ele>
        <time>2015-06-27T21:21:07Z</time>
      </trkpt>
      <trkpt lat="45.71707" lon="4.3961">
        <ele>599.04083</ele>
        <time>2015-06-27T21:21:12Z</time>
      </trkpt>
      <trkpt lat="45.71717" lon="4.39609">
        <ele>597.7281</ele>
        <time>2015-06-27T21:21:17Z</time>
      </trkpt>
      <trkpt lat="45.71723" lon="4.3961">
        <ele>597.7281</ele>
        <time>2015-06-27T21:21:22Z</time>
      </trkpt>
      <trkpt lat="45.71727" lon="4.39609">
        <ele>596.3676</ele>
        <time>2015-06-27T21:21:27Z</time>
      </trkpt>
      <trkpt lat="45.71733" lon="4.3961">
        <ele>596.3676</ele>
        <time>2015-06-27T21:21:32Z</time>
      </trkpt>
      <trkpt lat="45.71737" lon="4.3961">
        <ele>594.955</ele>
        <time>2015-06-27T21:21:37Z</time>
      </trkpt>
      <trkpt lat="45.71744" lon="4.3961">
        <ele>594.955</ele>
        <time>2015-06-27T21:21:42Z</time>
      </trkpt>
      <trkpt lat="45.7175" lon="4.39613">
        <ele>593.4558</ele>
        <time>2015-06-27T21:21:47Z</time>
      </trkpt>
      <trkpt lat="45.71757" lon="4.39614">
        <ele>593.4558</ele>
        <time>2015-06-27T21:21:52Z</time>
      </trkpt>
      <trkpt lat="45.71762" lon="4.39614">
        <ele>591.91345</ele>
        <time>2015-06-27T21:21:57Z</time>
      </trkpt>
      <trkpt lat="45.71767" lon="4.39614">
        <ele>591.91345</ele>
        <time>2015-06-27T21:22:02Z</time>
      </trkpt>
      <trkpt lat="45.71772" lon="4.39615">
        <ele>590.47363</ele>
        <time>2015-06-27T21:22:07Z</time>
      </trkpt>
      <trkpt lat="45.71778" lon="4.39615">
        <ele>590.47363</ele>
        <time>2015-06-27T21:22:12Z</time>
      </trkpt>
      <trkpt lat="45.71784" lon="4.39613">
        <ele>589.10425</ele>
        <time>2015-06-27T21:22:17Z</time>
      </trkpt>
      <trkpt lat="45.71789" lon="4.39612">
        <ele>589.10425</ele>
        <time>2015-06-27T21:22:22Z</time>
      </trkpt>
      <trkpt lat="45.71794" lon="4.39612">
        <ele>587.86523</ele>
        <time>2015-06-27T21:22:27Z</time>
      </trkpt>
      <trkpt lat="45.718" lon="4.39611">
        <ele>587.86523</ele>
        <time>2015-06-27T21:22:32Z</time>
      </trkpt>
      <trkpt lat="45.71805" lon="4.39609">
        <ele>586.8109</ele>
        <time>2015-06-27T21:22:37Z</time>
      </trkpt>
      <trkpt lat="45.71812" lon="4.39608">
        <ele>586.8109</ele>
        <time>2015-06-27T21:22:42Z</time>
      </trkpt>
      <trkpt lat="45.71815" lon="4.39606">
        <ele>586.02026</ele>
        <time>2015-06-27T21:22:47Z</time>
      </trkpt>
      <trkpt lat="45.71821" lon="4.39603">
        <ele>586.02026</ele>
        <time>2015-06-27T21:22:52Z</time>
      </trkpt>
      <trkpt lat="45.71828" lon="4.39604">
        <ele>585.38403</ele>
        <time>2015-06-27T21:22:57Z</time>
      </trkpt>
      <trkpt lat="45.71833" lon="4.39603">
        <ele>585.38403</ele>
        <time>2015-06-27T21:23:02Z</time>
      </trkpt>
      <trkpt lat="45.71839" lon="4.39599">
        <ele>584.9663</ele>
        <time>2015-06-27T21:23:07Z</time>
      </trkpt>
      <trkpt lat="45.71842" lon="4.39599">
        <ele>584.9663</ele>
        <time>2015-06-27T21:23:12Z</time>
      </trkpt>
      <trkpt lat="45.71848" lon="4.39597">
        <ele>584.64526</ele>
        <time>2015-06-27T21:23:17Z</time>
      </trkpt>
      <trkpt lat="45.71853" lon="4.39601">
        <ele>584.64526</ele>
        <time>2015-06-27T21:23:22Z</time>
      </trkpt>
      <trkpt lat="45.71857" lon="4.39603">
        <ele>584.4282</ele>
        <time>2015-06-27T21:23:27Z</time>
      </trkpt>
      <trkpt lat="45.7186" lon="4.39602">
        <ele>584.4282</ele>
        <time>2015-06-27T21:23:32Z</time>
      </trkpt>
      <trkpt lat="45.71864" lon="4.39601">
        <ele>584.4282</ele>
        <time>2015-06-27T21:23:37Z</time>
      </trkpt>
      <trkpt lat="45.71871" lon="4.39601">
        <ele>584.45575</ele>
        <time>2015-06-27T21:23:42Z</time>
      </trkpt>
      <trkpt lat="45.71878" lon="4.396">
        <ele>584.45575</ele>
        <time>2015-06-27T21:23:47Z</time>
      </trkpt>
      <trkpt lat="45.71885" lon="4.39599">
        <ele>584.7515</ele>
        <time>2015-06-27T21:23:52Z</time>
      </trkpt>
      <trkpt lat="45.7189" lon="4.39598">
        <ele>584.7515</ele>
        <time>2015-06-27T21:23:57Z</time>
      </trkpt>
      <trkpt lat="45.71895" lon="4.39596">
        <ele>585.4109</ele>
        <time>2015-06-27T21:24:02Z</time>
      </trkpt>
      <trkpt lat="45.71899" lon="4.39595">
        <ele>585.4109</ele>
        <time>2015-06-27T21:24:07Z</time>
      </trkpt>
      <trkpt lat="45.71903" lon="4.3959">
        <ele>586.2833</ele>
        <time>2015-06-27T21:24:12Z</time>
      </trkpt>
      <trkpt lat="45.71909" lon="4.39583">
        <ele>586.2833</ele>
        <time>2015-06-27T21:24:17Z</time>
      </trkpt>
      <trkpt lat="45.71912" lon="4.3958">
        <ele>587.1274</ele>
        <time>2015-06-27T21:24:22Z</time>
      </trkpt>
      <trkpt lat="45.71914" lon="4.39576">
        <ele>587.1274</ele>
        <time>2015-06-27T21:24:27Z</time>
      </trkpt>
      <trkpt lat="45.71917" lon="4.39574">
        <ele>587.1274</ele>
        <time>2015-06-27T21:24:32Z</time>
      </trkpt>
      <trkpt lat="45.71925" lon="4.39573">
        <ele>587.9131</ele>
        <time>2015-06-27T21:24:37Z</time>
      </trkpt>
      <trkpt lat="45.71934" lon="4.39573">
        <ele>587.9131</ele>
        <time>2015-06-27T21:24:42Z</time>
      </trkpt>
      <trkpt lat="45.71936" lon="4.39575">
        <ele>588.59845</ele>
        <time>2015-06-27T21:24:47Z</time>
      </trkpt>
      <trkpt lat="45.71942" lon="4.39579">
        <ele>588.59845</ele>
        <time>2015-06-27T21:24:52Z</time>
      </trkpt>
      <trkpt lat="45.71948" lon="4.39583">
        <ele>589.2183</ele>
        <time>2015-06-27T21:24:57Z</time>
      </trkpt>
      <trkpt lat="45.71953" lon="4.39585">
        <ele>589.2183</ele>
        <time>2015-06-27T21:25:02Z</time>
      </trkpt>
      <trkpt lat="45.71958" lon="4.39589">
        <ele>589.89276</ele>
        <time>2015-06-27T21:25:07Z</time>
      </trkpt>
      <trkpt lat="45.71963" lon="4.39594">
        <ele>589.89276</ele>
        <time>2015-06-27T21:25:12Z</time>
      </trkpt>
      <trkpt lat="45.71967" lon="4.39597">
        <ele>590.7899</ele>
        <time>2015-06-27T21:25:17Z</time>
      </trkpt>
      <trkpt lat="45.71975" lon="4.396">
        <ele>590.7899</ele>
        <time>2015-06-27T21:25:22Z</time>
      </trkpt>
      <trkpt lat="45.71979" lon="4.39602">
        <ele>591.7438</ele>
        <time>2015-06-27T21:25:27Z</time>
      </trkpt>
      <trkpt lat="45.71984" lon="4.39602">
        <ele>591.7438</ele>
        <time>2015-06-27T21:25:32Z</time>
      </trkpt>
      <trkpt lat="45.71989" lon="4.396">
        <ele>592.73206</ele>
        <time>2015-06-27T21:25:37Z</time>
      </trkpt>
      <trkpt lat="45.71993" lon="4.39594">
        <ele>592.73206</ele>
        <time>2015-06-27T21:25:42Z</time>
      </trkpt>
      <trkpt lat="45.71996" lon="4.3959">
        <ele>593.7635</ele>
        <time>2015-06-27T21:25:47Z</time>
      </trkpt>
      <trkpt lat="45.72001" lon="4.39584">
        <ele>593.7635</ele>
        <time>2015-06-27T21:25:52Z</time>
      </trkpt>
      <trkpt lat="45.72006" lon="4.39578">
        <ele>594.8313</ele>
        <time>2015-06-27T21:25:57Z</time>
      </trkpt>
      <trkpt lat="45.7201" lon="4.3957">
        <ele>594.8313</ele>
        <time>2015-06-27T21:26:02Z</time>
      </trkpt>
      <trkpt lat="45.72013" lon="4.39565">
        <ele>595.75543</ele>
        <time>2015-06-27T21:26:07Z</time>
      </trkpt>
      <trkpt lat="45.72015" lon="4.39562">
        <ele>595.75543</ele>
        <time>2015-06-27T21:26:12Z</time>
      </trkpt>
      <trkpt lat="45.72022" lon="4.39555">
        <ele>596.54376</ele>
        <time>2015-06-27T21:26:17Z</time>
      </trkpt>
      <trkpt lat="45.72029" lon="4.39553">
        <ele>596.54376</ele>
        <time>2015-06-27T21:26:22Z</time>
      </trkpt>
      <trkpt lat="45.72033" lon="4.39551">
        <ele>597.2906</ele>
        <time>2015-06-27T21:26:27Z</time>
      </trkpt>
      <trkpt lat="45.72039" lon="4.39547">
        <ele>597.2906</ele>
        <time>2015-06-27T21:26:32Z</time>
      </trkpt>
      <trkpt lat="45.72044" lon="4.39543">
        <ele>598.0976</ele>
        <time>2015-06-27T21:26:37Z</time>
      </trkpt>
      <trkpt lat="45.72049" lon="4.39539">
        <ele>598.0976</ele>
        <time>2015-06-27T21:26:42Z</time>
      </trkpt>
      <trkpt lat="45.72057" lon="4.39536">
        <ele>599.00085</ele>
        <time>2015-06-27T21:26:47Z</time>
      </trkpt>
      <trkpt lat="45.72065" lon="4.39536">
        <ele>599.00085</ele>
        <time>2015-06-27T21:26:52Z</time>
      </trkpt>
      <trkpt lat="45.7207" lon="4.39536">
        <ele>599.97577</ele>
        <time>2015-06-27T21:26:57Z</time>
      </trkpt>
      <trkpt lat="45.72074" lon="4.39533">
        <ele>599.97577</ele>
        <time>2015-06-27T21:27:02Z</time>
      </trkpt>
      <trkpt lat="45.72081" lon="4.39532">
        <ele>601.1003</ele>
        <time>2015-06-27T21:27:07Z</time>
      </trkpt>
      <trkpt lat="45.72087" lon="4.39532">
        <ele>601.1003</ele>
        <time>2015-06-27T21:27:12Z</time>
      </trkpt>
      <trkpt lat="45.72092" lon="4.39532">
        <ele>602.33105</ele>
        <time>2015-06-27T21:27:17Z</time>
      </trkpt>
      <trkpt lat="45.72096" lon="4.3953">
        <ele>602.33105</ele>
        <time>2015-06-27T21:27:22Z</time>
      </trkpt>
      <trkpt lat="45.72104" lon="4.39533">
        <ele>603.5266</ele>
        <time>2015-06-27T21:27:27Z</time>
      </trkpt>
      <trkpt lat="45.72111" lon="4.39536">
        <ele>603.5266</ele>
        <time>2015-06-27T21:27:32Z</time>
      </trkpt>
      <trkpt lat="45.72119" lon="4.39537">
        <ele>604.70044</ele>
        <time>2015-06-27T21:27:37Z</time>
      </trkpt>
      <trkpt lat="45.72125" lon="4.39541">
        <ele>604.70044</ele>
        <time>2015-06-27T21:27:42Z</time>
      </trkpt>
      <trkpt lat="45.72133" lon="4.39542">
        <ele>605.9227</ele>
        <time>2015-06-27T21:27:47Z</time>
      </trkpt>
      <trkpt lat="45.72138" lon="4.39542">
        <ele>605.9227</ele>
        <time>2015-06-27T21:27:52Z</time>
      </trkpt>
      <trkpt lat="45.72143" lon="4.39544">
        <ele>607.08545</ele>
        <time>2015-06-27T21:27:57Z</time>
      </trkpt>
      <trkpt lat="45.72147" lon="4.39543">
        <ele>607.08545</ele>
        <time>2015-06-27T21:28:02Z</time>
      </trkpt>
      <trkpt lat="45.72153" lon="4.39546">
        <ele>608.26184</ele>
        <time>2015-06-27T21:28:07Z</time>
      </trkpt>
      <trkpt lat="45.72161" lon="4.39548">
        <ele>608.26184</ele>
        <time>2015-06-27T21:28:12Z</time>
      </trkpt>
      <trkpt lat="45.72167" lon="4.39549">
        <ele>609.4477</ele>
        <time>2015-06-27T21:28:17Z</time>
      </trkpt>
      <trkpt lat="45.72174" lon="4.39551">
        <ele>609.4477</ele>
        <time>2015-06-27T21:28:22Z</time>
      </trkpt>
      <trkpt lat="45.7218" lon="4.39553">
        <ele>610.55255</ele>
        <time>2015-06-27T21:28:27Z</time>
      </trkpt>
      <trkpt lat="45.72185" lon="4.39554">
        <ele>610.55255</ele>
        <time>2015-06-27T21:28:32Z</time>
      </trkpt>
      <trkpt lat="45.72193" lon="4.39555">
        <ele>611.6517</ele>
        <time>2015-06-27T21:28:37Z</time>
      </trkpt>
      <trkpt lat="45.72199" lon="4.39557">
        <ele>611.6517</ele>
        <time>2015-06-27T21:28:42Z</time>
      </trkpt>
      <trkpt lat="45.72204" lon="4.39558">
        <ele>612.6417</ele>
        <time>2015-06-27T21:28:47Z</time>
      </trkpt>
      <trkpt lat="45.72207" lon="4.39558">
        <ele>612.6417</ele>
        <time>2015-06-27T21:28:52Z</time>
      </trkpt>
      <trkpt lat="45.72211" lon="4.39557">
        <ele>612.6417</ele>
        <time>2015-06-27T21:28:57Z</time>
      </trkpt>
      <trkpt lat="45.72217" lon="4.39559">
        <ele>613.45636</ele>
        <time>2015-06-27T21:29:02Z</time>
      </trkpt>
      <trkpt lat="45.72222" lon="4.39562">
        <ele>613.45636</ele>
        <time>2015-06-27T21:29:07Z</time>
      </trkpt>
      <trkpt lat="45.72227" lon="4.39566">
        <ele>614.2221</ele>
        <time>2015-06-27T21:29:12Z</time>
      </trkpt>
      <trkpt lat="45.72232" lon="4.39568">
        <ele>614.2221</ele>
        <time>2015-06-27T21:29:17Z</time>
      </trkpt>
      <trkpt lat="45.72237" lon="4.39569">
        <ele>615.0275</ele>
        <time>2015-06-27T21:29:22Z</time>
      </trkpt>
      <trkpt lat="45.72243" lon="4.3957">
        <ele>615.0275</ele>
        <time>2015-06-27T21:29:27Z</time>
      </trkpt>
      <trkpt lat="45.72248" lon="4.39572">
        <ele>615.83936</ele>
        <time>2015-06-27T21:29:32Z</time>
      </trkpt>
      <trkpt lat="45.72253" lon="4.39576">
        <ele>615.83936</ele>
        <time>2015-06-27T21:29:37Z</time>
      </trkpt>
      <trkpt lat="45.7226" lon="4.3958">
        <ele>616.62683</ele>
        <time>2015-06-27T21:29:42Z</time>
      </trkpt>
      <trkpt lat="45.72266" lon="4.39581">
        <ele>616.62683</ele>
        <time>2015-06-27T21:29:47Z</time>
      </trkpt>
      <trkpt lat="45.72273" lon="4.39584">
        <ele>617.4915</ele>
        <time>2015-06-27T21:29:52Z</time>
      </trkpt>
      <trkpt lat="45.72279" lon="4.39587">
        <ele>617.4915</ele>
        <time>2015-06-27T21:29:57Z</time>
      </trkpt>
      <trkpt lat="45.72284" lon="4.39588">
        <ele>618.4262</ele>
        <time>2015-06-27T21:30:02Z</time>
      </trkpt>
      <trkpt lat="45.72286" lon="4.39589">
        <ele>618.4262</ele>
        <time>2015-06-27T21:30:07Z</time>
      </trkpt>
      <trkpt lat="45.72291" lon="4.39592">
        <ele>618.4262</ele>
        <time>2015-06-27T21:30:12Z</time>
      </trkpt>
      <trkpt lat="45.72296" lon="4.39599">
        <ele>619.39557</ele>
        <time>2015-06-27T21:30:17Z</time>
      </trkpt>
      <trkpt lat="45.72302" lon="4.39601">
        <ele>619.39557</ele>
        <time>2015-06-27T21:30:22Z</time>
      </trkpt>
      <trkpt lat="45.72305" lon="4.39603">
        <ele>620.3954</ele>
        <time>2015-06-27T21:30:27Z</time>
      </trkpt>
      <trkpt lat="45.72309" lon="4.39604">
        <ele>620.3954</ele>
        <time>2015-06-27T21:30:32Z</time>
      </trkpt>
      <trkpt lat="45.72315" lon="4.39608">
        <ele>621.40753</ele>
        <time>2015-06-27T21:30:37Z</time>
      </trkpt>
      <trkpt lat="45.72321" lon="4.39613">
        <ele>621.40753</ele>
        <time>2015-06-27T21:30:42Z</time>
      </trkpt>
      <trkpt lat="45.72324" lon="4.39615">
        <ele>622.41516</ele>
        <time>2015-06-27T21:30:47Z</time>
      </trkpt>
      <trkpt lat="45.72329" lon="4.39617">
        <ele>622.41516</ele>
        <time>2015-06-27T21:30:52Z</time>
      </trkpt>
      <trkpt lat="45.72334" lon="4.39621">
        <ele>623.3306</ele>
        <time>2015-06-27T21:30:57Z</time>
      </trkpt>
      <trkpt lat="45.72339" lon="4.39622">
        <ele>623.3306</ele>
        <time>2015-06-27T21:31:02Z</time>
      </trkpt>
      <trkpt lat="45.72341" lon="4.39628">
        <ele>624.20306</ele>
        <time>2015-06-27T21:31:07Z</time>
      </trkpt>
      <trkpt lat="45.72347" lon="4.3963">
        <ele>624.20306</ele>
        <time>2015-06-27T21:31:12Z</time>
      </trkpt>
      <trkpt lat="45.72353" lon="4.39632">
        <ele>625.0779</ele>
        <time>2015-06-27T21:31:17Z</time>
      </trkpt>
      <trkpt lat="45.72359" lon="4.39632">
        <ele>625.0779</ele>
        <time>2015-06-27T21:31:22Z</time>
      </trkpt>
      <trkpt lat="45.72364" lon="4.39633">
        <ele>625.91095</ele>
        <time>2015-06-27T21:31:27Z</time>
      </trkpt>
      <trkpt lat="45.72374" lon="4.39634">
        <ele>626.66144</ele>
        <time>2015-06-27T21:31:32Z</time>
      </trkpt>
      <trkpt lat="45.72381" lon="4.39636">
        <ele>626.66144</ele>
        <time>2015-06-27T21:31:37Z</time>
      </trkpt>
      <trkpt lat="45.72387" lon="4.39636">
        <ele>627.3063</ele>
        <time>2015-06-27T21:31:42Z</time>
      </trkpt>
      <trkpt lat="45.72391" lon="4.39639">
        <ele>627.3063</ele>
        <time>2015-06-27T21:31:47Z</time>
      </trkpt>
      <trkpt lat="45.72398" lon="4.39642">
        <ele>627.79553</ele>
        <time>2015-06-27T21:31:52Z</time>
      </trkpt>
      <trkpt lat="45.72403" lon="4.39646">
        <ele>627.79553</ele>
        <time>2015-06-27T21:31:57Z</time>
      </trkpt>
      <trkpt lat="45.72409" lon="4.39647">
        <ele>628.1412</ele>
        <time>2015-06-27T21:32:02Z</time>
      </trkpt>
      <trkpt lat="45.72415" lon="4.39646">
        <ele>628.1412</ele>
        <time>2015-06-27T21:32:07Z</time>
      </trkpt>
      <trkpt lat="45.72421" lon="4.39648">
        <ele>628.4414</ele>
        <time>2015-06-27T21:32:12Z</time>
      </trkpt>
      <trkpt lat="45.72425" lon="4.39651">
        <ele>628.4414</ele>
        <time>2015-06-27T21:32:17Z</time>
      </trkpt>
      <trkpt lat="45.7243" lon="4.39653">
        <ele>628.5708</ele>
        <time>2015-06-27T21:32:22Z</time>
      </trkpt>
      <trkpt lat="45.72435" lon="4.39657">
        <ele>628.5708</ele>
        <time>2015-06-27T21:32:27Z</time>
      </trkpt>
      <trkpt lat="45.72443" lon="4.39663">
        <ele>628.5437</ele>
        <time>2015-06-27T21:32:32Z</time>
      </trkpt>
      <trkpt lat="45.72449" lon="4.39667">
        <ele>628.5437</ele>
        <time>2015-06-27T21:32:37Z</time>
      </trkpt>
      <trkpt lat="45.72455" lon="4.39668">
        <ele>628.30164</ele>
        <time>2015-06-27T21:32:42Z</time>
      </trkpt>
      <trkpt lat="45.7246" lon="4.39671">
        <ele>628.30164</ele>
        <time>2015-06-27T21:32:47Z</time>
      </trkpt>
      <trkpt lat="45.72463" lon="4.39674">
        <ele>627.9208</ele>
        <time>2015-06-27T21:32:52Z</time>
      </trkpt>
      <trkpt lat="45.72465" lon="4.39677">
        <ele>627.9208</ele>
        <time>2015-06-27T21:32:57Z</time>
      </trkpt>
      <trkpt lat="45.72467" lon="4.39681">
        <ele>627.9208</ele>
        <time>2015-06-27T21:33:02Z</time>
      </trkpt>
      <trkpt lat="45.72471" lon="4.39687">
        <ele>627.38574</ele>
        <time>2015-06-27T21:33:07Z</time>
      </trkpt>
      <trkpt lat="45.72477" lon="4.39692">
        <ele>627.38574</ele>
        <time>2015-06-27T21:33:12Z</time>
      </trkpt>
      <trkpt lat="45.72483" lon="4.39698">
        <ele>626.85547</ele>
        <time>2015-06-27T21:33:17Z</time>
      </trkpt>
      <trkpt lat="45.72487" lon="4.39705">
        <ele>626.85547</ele>
        <time>2015-06-27T21:33:22Z</time>
      </trkpt>
      <trkpt lat="45.72491" lon="4.39711">
        <ele>626.3333</ele>
        <time>2015-06-27T21:33:27Z</time>
      </trkpt>
      <trkpt lat="45.72495" lon="4.39716">
        <ele>626.3333</ele>
        <time>2015-06-27T21:33:32Z</time>
      </trkpt>
      <trkpt lat="45.72499" lon="4.39723">
        <ele>625.7067</ele>
        <time>2015-06-27T21:33:37Z</time>
      </trkpt>
      <trkpt lat="45.72503" lon="4.39732">
        <ele>625.7067</ele>
        <time>2015-06-27T21:33:42Z</time>
      </trkpt>
      <trkpt lat="45.72507" lon="4.39738">
        <ele>624.85754</ele>
        <time>2015-06-27T21:33:47Z</time>
      </trkpt>
      <trkpt lat="45.7251" lon="4.39744">
        <ele>624.85754</ele>
        <time>2015-06-27T21:33:52Z</time>
      </trkpt>
      <trkpt lat="45.72515" lon="4.39749">
        <ele>623.9217</ele>
        <time>2015-06-27T21:33:57Z</time>
      </trkpt>
      <trkpt lat="45.72519" lon="4.39754">
        <ele>623.9217</ele>
        <time>2015-06-27T21:34:02Z</time>
      </trkpt>
      <trkpt lat="45.72525" lon="4.39758">
        <ele>623.0687</ele>
        <time>2015-06-27T21:34:07Z</time>
      </trkpt>
      <trkpt lat="45.7253" lon="4.39762">
        <ele>623.0687</ele>
        <time>2015-06-27T21:34:12Z</time>
      </trkpt>
      <trkpt lat="45.72533" lon="4.39767">
        <ele>622.2391</ele>
        <time>2015-06-27T21:34:17Z</time>
      </trkpt>
      <trkpt lat="45.72536" lon="4.39771">
        <ele>622.2391</ele>
        <time>2015-06-27T21:34:22Z</time>
      </trkpt>
      <trkpt lat="45.72542" lon="4.39775">
        <ele>621.62256</ele>
        <time>2015-06-27T21:34:27Z</time>
      </trkpt>
      <trkpt lat="45.72546" lon="4.39781">
        <ele>621.62256</ele>
        <time>2015-06-27T21:34:32Z</time>
      </trkpt>
      <trkpt lat="45.72554" lon="4.39787">
        <ele>621.1061</ele>
        <time>2015-06-27T21:34:37Z</time>
      </trkpt>
      <trkpt lat="45.7256" lon="4.39793">
        <ele>621.1061</ele>
        <time>2015-06-27T21:34:42Z</time>
      </trkpt>
      <trkpt lat="45.72567" lon="4.39798">
        <ele>620.5989</ele>
        <time>2015-06-27T21:34:47Z</time>
      </trkpt>
      <trkpt lat="45.72572" lon="4.39803">
        <ele>620.5989</ele>
        <time>2015-06-27T21:34:52Z</time>
      </trkpt>
      <trkpt lat="45.72576" lon="4.39809">
        <ele>620.0456</ele>
        <time>2015-06-27T21:34:57Z</time>
      </trkpt>
      <trkpt lat="45.7258" lon="4.39812">
        <ele>620.0456</ele>
        <time>2015-06-27T21:35:02Z</time>
      </trkpt>
      <trkpt lat="45.72584" lon="4.39816">
        <ele>620.0456</ele>
        <time>2015-06-27T21:35:07Z</time>
      </trkpt>
      <trkpt lat="45.72588" lon="4.39821">
        <ele>619.3662</ele>
        <time>2015-06-27T21:35:12Z</time>
      </trkpt>
      <trkpt lat="45.72593" lon="4.39826">
        <ele>619.3662</ele>
        <time>2015-06-27T21:35:17Z</time>
      </trkpt>
      <trkpt lat="45.72599" lon="4.3983">
        <ele>618.6742</ele>
        <time>2015-06-27T21:35:22Z</time>
      </trkpt>
      <trkpt lat="45.72604" lon="4.39832">
        <ele>618.6742</ele>
        <time>2015-06-27T21:35:27Z</time>
      </trkpt>
      <trkpt lat="45.7261" lon="4.39836">
        <ele>618.2187</ele>
        <time>2015-06-27T21:35:32Z</time>
      </trkpt>
      <trkpt lat="45.72617" lon="4.3984">
        <ele>618.2187</ele>
        <time>2015-06-27T21:35:37Z</time>
      </trkpt>
      <trkpt lat="45.72622" lon="4.39842">
        <ele>617.8119</ele>
        <time>2015-06-27T21:35:42Z</time>
      </trkpt>
      <trkpt lat="45.72628" lon="4.39846">
        <ele>617.8119</ele>
        <time>2015-06-27T21:35:47Z</time>
      </trkpt>
      <trkpt lat="45.72633" lon="4.39851">
        <ele>617.3804</ele>
        <time>2015-06-27T21:35:52Z</time>
      </trkpt>
      <trkpt lat="45.72636" lon="4.39855">
        <ele>617.3804</ele>
        <time>2015-06-27T21:35:57Z</time>
      </trkpt>
      <trkpt lat="45.72638" lon="4.39858">
        <ele>617.3804</ele>
        <time>2015-06-27T21:36:02Z</time>
      </trkpt>
      <trkpt lat="45.72641" lon="4.39862">
        <ele>617.00024</ele>
        <time>2015-06-27T21:36:07Z</time>
      </trkpt>
      <trkpt lat="45.72649" lon="4.39865">
        <ele>617.00024</ele>
        <time>2015-06-27T21:36:12Z</time>
      </trkpt>
      <trkpt lat="45.72656" lon="4.39869">
        <ele>616.68414</ele>
        <time>2015-06-27T21:36:17Z</time>
      </trkpt>
      <trkpt lat="45.72661" lon="4.39873">
        <ele>616.68414</ele>
        <time>2015-06-27T21:36:22Z</time>
      </trkpt>
      <trkpt lat="45.72667" lon="4.39875">
        <ele>616.40027</ele>
        <time>2015-06-27T21:36:27Z</time>
      </trkpt>
      <trkpt lat="45.72675" lon="4.39879">
        <ele>616.40027</ele>
        <time>2015-06-27T21:36:32Z</time>
      </trkpt>
      <trkpt lat="45.72684" lon="4.39881">
        <ele>616.2775</ele>
        <time>2015-06-27T21:36:37Z</time>
      </trkpt>
      <trkpt lat="45.72689" lon="4.39883">
        <ele>616.2775</ele>
        <time>2015-06-27T21:36:42Z</time>
      </trkpt>
      <trkpt lat="45.72694" lon="4.39885">
        <ele>616.16095</ele>
        <time>2015-06-27T21:36:47Z</time>
      </trkpt>
      <trkpt lat="45.72697" lon="4.39886">
        <ele>616.16095</ele>
        <time>2015-06-27T21:36:52Z</time>
      </trkpt>
      <trkpt lat="45.72704" lon="4.3989">
        <ele>616.02216</ele>
        <time>2015-06-27T21:36:57Z</time>
      </trkpt>
      <trkpt lat="45.7271" lon="4.3989">
        <ele>616.02216</ele>
        <time>2015-06-27T21:37:02Z</time>
      </trkpt>
      <trkpt lat="45.72714" lon="4.39893">
        <ele>615.7483</ele>
        <time>2015-06-27T21:37:07Z</time>
      </trkpt>
      <trkpt lat="45.72721" lon="4.39897">
        <ele>615.7483</ele>
        <time>2015-06-27T21:37:12Z</time>
      </trkpt>
      <trkpt lat="45.72728" lon="4.399">
        <ele>615.39386</ele>
        <time>2015-06-27T21:37:17Z</time>
      </trkpt>
      <trkpt lat="45.72731" lon="4.39903">
        <ele>615.39386</ele>
        <time>2015-06-27T21:37:22Z</time>
      </trkpt>
      <trkpt lat="45.72736" lon="4.39906">
        <ele>615.09564</ele>
        <time>2015-06-27T21:37:27Z</time>
      </trkpt>
      <trkpt lat="45.72743" lon="4.39911">
        <ele>615.09564</ele>
        <time>2015-06-27T21:37:32Z</time>
      </trkpt>
      <trkpt lat="45.72746" lon="4.39914">
        <ele>614.7786</ele>
        <time>2015-06-27T21:37:37Z</time>
      </trkpt>
      <trkpt lat="45.7275" lon="4.39916">
        <ele>614.7786</ele>
        <time>2015-06-27T21:37:42Z</time>
      </trkpt>
      <trkpt lat="45.72757" lon="4.39918">
        <ele>614.4165</ele>
        <time>2015-06-27T21:37:47Z</time>
      </trkpt>
      <trkpt lat="45.72766" lon="4.39921">
        <ele>614.4165</ele>
        <time>2015-06-27T21:37:52Z</time>
      </trkpt>
      <trkpt lat="45.72772" lon="4.39924">
        <ele>614.0424</ele>
        <time>2015-06-27T21:37:57Z</time>
      </trkpt>
      <trkpt lat="45.72776" lon="4.39928">
        <ele>614.0424</ele>
        <time>2015-06-27T21:38:02Z</time>
      </trkpt>
      <trkpt lat="45.72781" lon="4.3993">
        <ele>613.7305</ele>
        <time>2015-06-27T21:38:07Z</time>
      </trkpt>
      <trkpt lat="45.72786" lon="4.39935">
        <ele>613.7305</ele>
        <time>2015-06-27T21:38:12Z</time>
      </trkpt>
      <trkpt lat="45.72791" lon="4.3994">
        <ele>613.31854</ele>
        <time>2015-06-27T21:38:17Z</time>
      </trkpt>
      <trkpt lat="45.72797" lon="4.39945">
        <ele>613.31854</ele>
        <time>2015-06-27T21:38:22Z</time>
      </trkpt>
      <trkpt lat="45.72804" lon="4.3995">
        <ele>612.8581</ele>
        <time>2015-06-27T21:38:27Z</time>
      </trkpt>
      <trkpt lat="45.72809" lon="4.39957">
        <ele>612.8581</ele>
        <time>2015-06-27T21:38:32Z</time>
      </trkpt>
      <trkpt lat="45.72813" lon="4.39963">
        <ele>612.3396</ele>
        <time>2015-06-27T21:38:37Z</time>
      </trkpt>
      <trkpt lat="45.72818" lon="4.39969">
        <ele>612.3396</ele>
        <time>2015-06-27T21:38:42Z</time>
      </trkpt>
      <trkpt lat="45.7282" lon="4.39972">
        <ele>611.9414</ele>
        <time>2015-06-27T21:38:47Z</time>
      </trkpt>
      <trkpt lat="45.72825" lon="4.3998">
        <ele>611.9414</ele>
        <time>2015-06-27T21:38:52Z</time>
      </trkpt>
      <trkpt lat="45.72831" lon="4.39988">
        <ele>611.55475</ele>
        <time>2015-06-27T21:38:57Z</time>
      </trkpt>
      <trkpt lat="45.72833" lon="4.39994">
        <ele>611.55475</ele>
        <time>2015-06-27T21:39:02Z</time>
      </trkpt>
      <trkpt lat="45.72838" lon="4.4">
        <ele>611.093</ele>
        <time>2015-06-27T21:39:07Z</time>
      </trkpt>
      <trkpt lat="45.72841" lon="4.40007">
        <ele>611.093</ele>
        <time>2015-06-27T21:39:12Z</time>
      </trkpt>
      <trkpt lat="45.72845" lon="4.40017">
        <ele>610.5627</ele>
        <time>2015-06-27T21:39:17Z</time>
      </trkpt>
      <trkpt lat="45.72847" lon="4.40025">
        <ele>610.5627</ele>
        <time>2015-06-27T21:39:22Z</time>
      </trkpt>
      <trkpt lat="45.72849" lon="4.40032">
        <ele>610.02747</ele>
        <time>2015-06-27T21:39:27Z</time>
      </trkpt>
      <trkpt lat="45.72854" lon="4.40033">
        <ele>610.02747</ele>
        <time>2015-06-27T21:39:32Z</time>
      </trkpt>
      <trkpt lat="45.72859" lon="4.40031">
        <ele>609.4888</ele>
        <time>2015-06-27T21:39:37Z</time>
      </trkpt>
      <trkpt lat="45.72865" lon="4.40029">
        <ele>609.4888</ele>
        <time>2015-06-27T21:39:42Z</time>
      </trkpt>
      <trkpt lat="45.72869" lon="4.40023">
        <ele>609.0199</ele>
        <time>2015-06-27T21:39:47Z</time>
      </trkpt>
      <trkpt lat="45.72874" lon="4.40014">
        <ele>609.0199</ele>
        <time>2015-06-27T21:39:52Z</time>
      </trkpt>
      <trkpt lat="45.72875" lon="4.40005">
        <ele>608.6885</ele>
        <time>2015-06-27T21:39:57Z</time>
      </trkpt>
      <trkpt lat="45.72877" lon="4.39995">
        <ele>608.6885</ele>
        <time>2015-06-27T21:40:02Z</time>
      </trkpt>
      <trkpt lat="45.72882" lon="4.39987">
        <ele>608.58563</ele>
        <time>2015-06-27T21:40:07Z</time>
      </trkpt>
      <trkpt lat="45.72885" lon="4.3998">
        <ele>608.58563</ele>
        <time>2015-06-27T21:40:12Z</time>
      </trkpt>
      <trkpt lat="45.72892" lon="4.39973">
        <ele>608.56445</ele>
        <time>2015-06-27T21:40:17Z</time>
      </trkpt>
      <trkpt lat="45.72893" lon="4.3997">
        <ele>608.56445</ele>
        <time>2015-06-27T21:40:22Z</time>
      </trkpt>
      <trkpt lat="45.72895" lon="4.39964">
        <ele>608.56445</ele>
        <time>2015-06-27T21:40:27Z</time>
      </trkpt>
      <trkpt lat="45.72899" lon="4.39955">
        <ele>608.5174</ele>
        <time>2015-06-27T21:40:32Z</time>
      </trkpt>
      <trkpt lat="45.72903" lon="4.39949">
        <ele>608.5174</ele>
        <time>2015-06-27T21:40:37Z</time>
      </trkpt>
      <trkpt lat="45.72906" lon="4.3994">
        <ele>608.6043</ele>
        <time>2015-06-27T21:40:42Z</time>
      </trkpt>
      <trkpt lat="45.7291" lon="4.3993">
        <ele>608.6043</ele>
        <time>2015-06-27T21:40:47Z</time>
      </trkpt>
      <trkpt lat="45.72912" lon="4.39922">
        <ele>608.64136</ele>
        <time>2015-06-27T21:40:52Z</time>
      </trkpt>
      <trkpt lat="45.72915" lon="4.39911">
        <ele>608.64136</ele>
        <time>2015-06-27T21:40:57Z</time>
      </trkpt>
      <trkpt lat="45.72918" lon="4.39904">
        <ele>608.70337</ele>
        <time>2015-06-27T21:41:02Z</time>
      </trkpt>
      <trkpt lat="45.7292" lon="4.39899">
        <ele>608.70337</ele>
        <time>2015-06-27T21:41:07Z</time>
      </trkpt>
      <trkpt lat="45.72923" lon="4.39893">
        <ele>608.70337</ele>
        <time>2015-06-27T21:41:12Z</time>
      </trkpt>
      <trkpt lat="45.72925" lon="4.39886">
        <ele>608.7875</ele>
        <time>2015-06-27T21:41:17Z</time>
      </trkpt>
      <trkpt lat="45.72926" lon="4.39878">
        <ele>608.7875</ele>
        <time>2015-06-27T21:41:22Z</time>
      </trkpt>
      <trkpt lat="45.72928" lon="4.39871">
        <ele>608.8766</ele>
        <time>2015-06-27T21:41:27Z</time>
      </trkpt>
      <trkpt lat="45.72932" lon="4.39861">
        <ele>608.8766</ele>
        <time>2015-06-27T21:41:32Z</time>
      </trkpt>
      <trkpt lat="45.72936" lon="4.39851">
        <ele>608.9548</ele>
        <time>2015-06-27T21:41:37Z</time>
      </trkpt>
      <trkpt lat="45.72938" lon="4.39844">
        <ele>608.9548</ele>
        <time>2015-06-27T21:41:42Z</time>
      </trkpt>
      <trkpt lat="45.72942" lon="4.39835">
        <ele>608.9065</ele>
        <time>2015-06-27T21:41:47Z</time>
      </trkpt>
      <trkpt lat="45.72945" lon="4.39827">
        <ele>608.9065</ele>
        <time>2015-06-27T21:41:52Z</time>
      </trkpt>
      <trkpt lat="45.72951" lon="4.39821">
        <ele>608.7835</ele>
        <time>2015-06-27T21:41:57Z</time>
      </trkpt>
      <trkpt lat="45.72955" lon="4.39815">
        <ele>608.7835</ele>
        <time>2015-06-27T21:42:02Z</time>
      </trkpt>
      <trkpt lat="45.72959" lon="4.39808">
        <ele>608.562</ele>
        <time>2015-06-27T21:42:07Z</time>
      </trkpt>
      <trkpt lat="45.72964" lon="4.398">
        <ele>608.562</ele>
        <time>2015-06-27T21:42:12Z</time>
      </trkpt>
      <trkpt lat="45.72967" lon="4.39793">
        <ele>608.3353</ele>
        <time>2015-06-27T21:42:17Z</time>
      </trkpt>
      <trkpt lat="45.7297" lon="4.39784">
        <ele>608.3353</ele>
        <time>2015-06-27T21:42:22Z</time>
      </trkpt>
      <trkpt lat="45.72972" lon="4.39774">
        <ele>608.0893</ele>
        <time>2015-06-27T21:42:27Z</time>
      </trkpt>
      <trkpt lat="45.72975" lon="4.39766">
        <ele>608.0893</ele>
        <time>2015-06-27T21:42:32Z</time>
      </trkpt>
      <trkpt lat="45.72977" lon="4.39757">
        <ele>607.65216</ele>
        <time>2015-06-27T21:42:37Z</time>
      </trkpt>
      <trkpt lat="45.72978" lon="4.39752">
        <ele>607.65216</ele>
        <time>2015-06-27T21:42:42Z</time>
      </trkpt>
      <trkpt lat="45.7298" lon="4.39746">
        <ele>607.65216</ele>
        <time>2015-06-27T21:42:47Z</time>
      </trkpt>
      <trkpt lat="45.72983" lon="4.39735">
        <ele>607.0239</ele>
        <time>2015-06-27T21:42:52Z</time>
      </trkpt>
      <trkpt lat="45.72986" lon="4.39727">
        <ele>607.0239</ele>
        <time>2015-06-27T21:42:57Z</time>
      </trkpt>
      <trkpt lat="45.72989" lon="4.3972">
        <ele>606.24835</ele>
        <time>2015-06-27T21:43:02Z</time>
      </trkpt>
      <trkpt lat="45.72989" lon="4.39712">
        <ele>606.24835</ele>
        <time>2015-06-27T21:43:07Z</time>
      </trkpt>
      <trkpt lat="45.7299" lon="4.39703">
        <ele>605.42395</ele>
        <time>2015-06-27T21:43:12Z</time>
      </trkpt>
      <trkpt lat="45.72991" lon="4.39696">
        <ele>605.42395</ele>
        <time>2015-06-27T21:43:17Z</time>
      </trkpt>
      <trkpt lat="45.72992" lon="4.39688">
        <ele>604.6999</ele>
        <time>2015-06-27T21:43:22Z</time>
      </trkpt>
      <trkpt lat="45.72996" lon="4.39679">
        <ele>604.6999</ele>
        <time>2015-06-27T21:43:27Z</time>
      </trkpt>
      <trkpt lat="45.73" lon="4.39671">
        <ele>604.0556</ele>
        <time>2015-06-27T21:43:32Z</time>
      </trkpt>
      <trkpt lat="45.73003" lon="4.39665">
        <ele>604.0556</ele>
        <time>2015-06-27T21:43:37Z</time>
      </trkpt>
      <trkpt lat="45.73005" lon="4.39658">
        <ele>603.39954</ele>
        <time>2015-06-27T21:43:42Z</time>
      </trkpt>
      <trkpt lat="45.73007" lon="4.39649">
        <ele>603.39954</ele>
        <time>2015-06-27T21:43:47Z</time>
      </trkpt>
      <trkpt lat="45.73011" lon="4.39642">
        <ele>602.6471</ele>
        <time>2015-06-27T21:43:52Z</time>
      </trkpt>
      <trkpt lat="45.73013" lon="4.39636">
        <ele>602.6471</ele>
        <time>2015-06-27T21:43:57Z</time>
      </trkpt>
      <trkpt lat="45.73014" lon="4.39628">
        <ele>601.77765</ele>
        <time>2015-06-27T21:44:02Z</time>
      </trkpt>
      <trkpt lat="45.73014" lon="4.39621">
        <ele>601.77765</ele>
        <time>2015-06-27T21:44:07Z</time>
      </trkpt>
      <trkpt lat="45.73015" lon="4.39613">
        <ele>600.70044</ele>
        <time>2015-06-27T21:44:12Z</time>
      </trkpt>
      <trkpt lat="45.73018" lon="4.39607">
        <ele>600.70044</ele>
        <time>2015-06-27T21:44:17Z</time>
      </trkpt>
      <trkpt lat="45.73021" lon="4.396">
        <ele>599.4184</ele>
        <time>2015-06-27T21:44:22Z</time>
      </trkpt>
      <trkpt lat="45.73025" lon="4.39592">
        <ele>599.4184</ele>
        <time>2015-06-27T21:44:27Z</time>
      </trkpt>
      <trkpt lat="45.73026" lon="4.39581">
        <ele>598.0355</ele>
        <time>2015-06-27T21:44:32Z</time>
      </trkpt>
      <trkpt lat="45.73028" lon="4.39573">
        <ele>598.0355</ele>
        <time>2015-06-27T21:44:37Z</time>
      </trkpt>
      <trkpt lat="45.73029" lon="4.39564">
        <ele>596.7351</ele>
        <time>2015-06-27T21:44:42Z</time>
      </trkpt>
      <trkpt lat="45.73029" lon="4.39557">
        <ele>596.7351</ele>
        <time>2015-06-27T21:44:47Z</time>
      </trkpt>
      <trkpt lat="45.73028" lon="4.39552">
        <ele>596.7351</ele>
        <time>2015-06-27T21:44:52Z</time>
      </trkpt>
      <trkpt lat="45.73028" lon="4.39547">
        <ele>595.528</ele>
        <time>2015-06-27T21:44:57Z</time>
      </trkpt>
      <trkpt lat="45.73032" lon="4.39539">
        <ele>595.528</ele>
        <time>2015-06-27T21:45:02Z</time>
      </trkpt>
      <trkpt lat="45.73034" lon="4.39533">
        <ele>594.3953</ele>
        <time>2015-06-27T21:45:07Z</time>
      </trkpt>
      <trkpt lat="45.73034" lon="4.39522">
        <ele>594.3953</ele>
        <time>2015-06-27T21:45:12Z</time>
      </trkpt>
      <trkpt lat="45.73034" lon="4.39518">
        <ele>593.31903</ele>
        <time>2015-06-27T21:45:17Z</time>
      </trkpt>
      <trkpt lat="45.73036" lon="4.39514">
        <ele>593.31903</ele>
        <time>2015-06-27T21:45:22Z</time>
      </trkpt>
      <trkpt lat="45.73037" lon="4.39508">
        <ele>593.31903</ele>
        <time>2015-06-27T21:45:27Z</time>
      </trkpt>
      <trkpt lat="45.73038" lon="4.39501">
        <ele>592.03754</ele>
        <time>2015-06-27T21:45:32Z</time>
      </trkpt>
      <trkpt lat="45.73038" lon="4.39493">
        <ele>592.03754</ele>
        <time>2015-06-27T21:45:37Z</time>
      </trkpt>
      <trkpt lat="45.73039" lon="4.39481">
        <ele>590.8132</ele>
        <time>2015-06-27T21:45:42Z</time>
      </trkpt>
      <trkpt lat="45.7304" lon="4.39475">
        <ele>590.8132</ele>
        <time>2015-06-27T21:45:47Z</time>
      </trkpt>
      <trkpt lat="45.73041" lon="4.39467">
        <ele>589.6151</ele>
        <time>2015-06-27T21:45:52Z</time>
      </trkpt>
      <trkpt lat="45.73042" lon="4.39461">
        <ele>589.6151</ele>
        <time>2015-06-27T21:45:57Z</time>
      </trkpt>
      <trkpt lat="45.73043" lon="4.39455">
        <ele>589.6151</ele>
        <time>2015-06-27T21:46:02Z</time>
      </trkpt>
      <trkpt lat="45.73043" lon="4.39444">
        <ele>588.4145</ele>
        <time>2015-06-27T21:46:07Z</time>
      </trkpt>
      <trkpt lat="45.73045" lon="4.39435">
        <ele>588.4145</ele>
        <time>2015-06-27T21:46:12Z</time>
      </trkpt>
      <trkpt lat="45.73046" lon="4.39428">
        <ele>587.31433</ele>
        <time>2015-06-27T21:46:17Z</time>
      </trkpt>
      <trkpt lat="45.73047" lon="4.39422">
        <ele>587.31433</ele>
        <time>2015-06-27T21:46:22Z</time>
      </trkpt>
      <trkpt lat="45.73048" lon="4.39416">
        <ele>587.31433</ele>
        <time>2015-06-27T21:46:27Z</time>
      </trkpt>
      <trkpt lat="45.7305" lon="4.3941">
        <ele>586.19366</ele>
        <time>2015-06-27T21:46:32Z</time>
      </trkpt>
      <trkpt lat="45.73054" lon="4.39403">
        <ele>586.19366</ele>
        <time>2015-06-27T21:46:37Z</time>
      </trkpt>
      <trkpt lat="45.73056" lon="4.39396">
        <ele>585.0555</ele>
        <time>2015-06-27T21:46:42Z</time>
      </trkpt>
      <trkpt lat="45.7306" lon="4.39391">
        <ele>585.0555</ele>
        <time>2015-06-27T21:46:47Z</time>
      </trkpt>
      <trkpt lat="45.73064" lon="4.39383">
        <ele>583.85944</ele>
        <time>2015-06-27T21:46:52Z</time>
      </trkpt>
      <trkpt lat="45.73067" lon="4.39378">
        <ele>583.85944</ele>
        <time>2015-06-27T21:46:57Z</time>
      </trkpt>
      <trkpt lat="45.7307" lon="4.3937">
        <ele>582.7124</ele>
        <time>2015-06-27T21:47:02Z</time>
      </trkpt>
      <trkpt lat="45.73072" lon="4.39364">
        <ele>582.7124</ele>
        <time>2015-06-27T21:47:07Z</time>
      </trkpt>
      <trkpt lat="45.73075" lon="4.39356">
        <ele>581.61224</ele>
        <time>2015-06-27T21:47:12Z</time>
      </trkpt>
      <trkpt lat="45.73079" lon="4.3935">
        <ele>581.61224</ele>
        <time>2015-06-27T21:47:17Z</time>
      </trkpt>
      <trkpt lat="45.73081" lon="4.39341">
        <ele>580.4992</ele>
        <time>2015-06-27T21:47:22Z</time>
      </trkpt>
      <trkpt lat="45.73085" lon="4.39334">
        <ele>580.4992</ele>
        <time>2015-06-27T21:47:27Z</time>
      </trkpt>
      <trkpt lat="45.7309" lon="4.39324">
        <ele>579.40424</ele>
        <time>2015-06-27T21:47:32Z</time>
      </trkpt>
      <trkpt lat="45.73094" lon="4.39318">
        <ele>579.40424</ele>
        <time>2015-06-27T21:47:37Z</time>
      </trkpt>
      <trkpt lat="45.73097" lon="4.39312">
        <ele>578.2408</ele>
        <time>2015-06-27T21:47:42Z</time>
      </trkpt>
      <trkpt lat="45.731" lon="4.39307">
        <ele>578.2408</ele>
        <time>2015-06-27T21:47:47Z</time>
      </trkpt>
      <trkpt lat="45.73106" lon="4.39299">
        <ele>577.05835</ele>
        <time>2015-06-27T21:47:52Z</time>
      </trkpt>
      <trkpt lat="45.73108" lon="4.39293">
        <ele>577.05835</ele>
        <time>2015-06-27T21:47:57Z</time>
      </trkpt>
      <trkpt lat="45.73112" lon="4.39287">
        <ele>575.93176</ele>
        <time>2015-06-27T21:48:02Z</time>
      </trkpt>
      <trkpt lat="45.73116" lon="4.3928">
        <ele>575.93176</ele>
        <time>2015-06-27T21:48:07Z</time>
      </trkpt>
      <trkpt lat="45.73118" lon="4.39273">
        <ele>574.7282</ele>
        <time>2015-06-27T21:48:12Z</time>
      </trkpt>
      <trkpt lat="45.7312" lon="4.39272">
        <ele>574.7282</ele>
        <time>2015-06-27T21:48:17Z</time>
      </trkpt>
      <trkpt lat="45.73122" lon="4.39268">
        <ele>574.7282</ele>
        <time>2015-06-27T21:48:22Z</time>
      </trkpt>
      <trkpt lat="45.73125" lon="4.39261">
        <ele>573.52673</ele>
        <time>2015-06-27T21:48:27Z</time>
      </trkpt>
      <trkpt lat="45.7313" lon="4.39253">
        <ele>573.52673</ele>
        <time>2015-06-27T21:48:32Z</time>
      </trkpt>
      <trkpt lat="45.73133" lon="4.39245">
        <ele>572.2995</ele>
        <time>2015-06-27T21:48:37Z</time>
      </trkpt>
      <trkpt lat="45.73136" lon="4.39238">
        <ele>572.2995</ele>
        <time>2015-06-27T21:48:42Z</time>
      </trkpt>
      <trkpt lat="45.73141" lon="4.39229">
        <ele>571.1072</ele>
        <time>2015-06-27T21:48:47Z</time>
      </trkpt>
      <trkpt lat="45.73143" lon="4.39223">
        <ele>571.1072</ele>
        <time>2015-06-27T21:48:52Z</time>
      </trkpt>
      <trkpt lat="45.73145" lon="4.39218">
        <ele>569.9051</ele>
        <time>2015-06-27T21:48:57Z</time>
      </trkpt>
      <trkpt lat="45.7315" lon="4.39207">
        <ele>569.9051</ele>
        <time>2015-06-27T21:49:02Z</time>
      </trkpt>
      <trkpt lat="45.73152" lon="4.39202">
        <ele>568.79584</ele>
        <time>2015-06-27T21:49:07Z</time>
      </trkpt>
      <trkpt lat="45.73154" lon="4.39194">
        <ele>568.79584</ele>
        <time>2015-06-27T21:49:12Z</time>
      </trkpt>
      <trkpt lat="45.73157" lon="4.39185">
        <ele>567.6868</ele>
        <time>2015-06-27T21:49:17Z</time>
      </trkpt>
      <trkpt lat="45.7316" lon="4.39179">
        <ele>567.6868</ele>
        <time>2015-06-27T21:49:22Z</time>
      </trkpt>
      <trkpt lat="45.73162" lon="4.39172">
        <ele>566.50665</ele>
        <time>2015-06-27T21:49:27Z</time>
      </trkpt>
      <trkpt lat="45.73165" lon="4.39164">
        <ele>566.50665</ele>
        <time>2015-06-27T21:49:32Z</time>
      </trkpt>
      <trkpt lat="45.73167" lon="4.3916">
        <ele>565.2469</ele>
        <time>2015-06-27T21:49:37Z</time>
      </trkpt>
      <trkpt lat="45.7317" lon="4.39153">
        <ele>565.2469</ele>
        <time>2015-06-27T21:49:42Z</time>
      </trkpt>
      <trkpt lat="45.73175" lon="4.39145">
        <ele>564.00085</ele>
        <time>2015-06-27T21:49:47Z</time>
      </trkpt>
      <trkpt lat="45.73178" lon="4.39138">
        <ele>564.00085</ele>
        <time>2015-06-27T21:49:52Z</time>
      </trkpt>
      <trkpt lat="45.73181" lon="4.39132">
        <ele>562.7541</ele>
        <time>2015-06-27T21:49:57Z</time>
      </trkpt>
      <trkpt lat="45.73184" lon="4.39125">
        <ele>562.7541</ele>
        <time>2015-06-27T21:50:02Z</time>
      </trkpt>
      <trkpt lat="45.73186" lon="4.39116">
        <ele>561.5074</ele>
        <time>2015-06-27T21:50:07Z</time>
      </trkpt>
      <trkpt lat="45.73191" lon="4.39109">
        <ele>561.5074</ele>
        <time>2015-06-27T21:50:12Z</time>
      </trkpt>
      <trkpt lat="45.73196" lon="4.39103">
        <ele>560.33374</ele>
        <time>2015-06-27T21:50:17Z</time>
      </trkpt>
      <trkpt lat="45.73199" lon="4.39099">
        <ele>560.33374</ele>
        <time>2015-06-27T21:50:22Z</time>
      </trkpt>
      <trkpt lat="45.73203" lon="4.39093">
        <ele>559.0985</ele>
        <time>2015-06-27T21:50:27Z</time>
      </trkpt>
      <trkpt lat="45.73206" lon="4.3909">
        <ele>559.0985</ele>
        <time>2015-06-27T21:50:32Z</time>
      </trkpt>
      <trkpt lat="45.73213" lon="4.39085">
        <ele>557.82135</ele>
        <time>2015-06-27T21:50:37Z</time>
      </trkpt>
      <trkpt lat="45.73218" lon="4.39085">
        <ele>557.82135</ele>
        <time>2015-06-27T21:50:42Z</time>
      </trkpt>
      <trkpt lat="45.73219" lon="4.39091">
        <ele>556.49176</ele>
        <time>2015-06-27T21:50:47Z</time>
      </trkpt>
      <trkpt lat="45.73222" lon="4.39098">
        <ele>556.49176</ele>
        <time>2015-06-27T21:50:52Z</time>
      </trkpt>
      <trkpt lat="45.73222" lon="4.39101">
        <ele>556.49176</ele>
        <time>2015-06-27T21:50:57Z</time>
      </trkpt>
      <trkpt lat="45.73226" lon="4.39107">
        <ele>554.94147</ele>
        <time>2015-06-27T21:51:02Z</time>
      </trkpt>
      <trkpt lat="45.7323" lon="4.39115">
        <ele>554.94147</ele>
        <time>2015-06-27T21:51:07Z</time>
      </trkpt>
      <trkpt lat="45.73233" lon="4.39123">
        <ele>553.3755</ele>
        <time>2015-06-27T21:51:12Z</time>
      </trkpt>
      <trkpt lat="45.73237" lon="4.39132">
        <ele>553.3755</ele>
        <time>2015-06-27T21:51:17Z</time>
      </trkpt>
      <trkpt lat="45.73241" lon="4.39139">
        <ele>551.8973</ele>
        <time>2015-06-27T21:51:22Z</time>
      </trkpt>
      <trkpt lat="45.73245" lon="4.39144">
        <ele>551.8973</ele>
        <time>2015-06-27T21:51:27Z</time>
      </trkpt>
      <trkpt lat="45.73245" lon="4.39155">
        <ele>550.55927</ele>
        <time>2015-06-27T21:51:32Z</time>
      </trkpt>
      <trkpt lat="45.73247" lon="4.3916">
        <ele>550.55927</ele>
        <time>2015-06-27T21:51:37Z</time>
      </trkpt>
      <trkpt lat="45.73249" lon="4.39172">
        <ele>549.32306</ele>
        <time>2015-06-27T21:51:42Z</time>
      </trkpt>
      <trkpt lat="45.73253" lon="4.39181">
        <ele>549.32306</ele>
        <time>2015-06-27T21:51:47Z</time>
      </trkpt>
      <trkpt lat="45.73255" lon="4.39185">
        <ele>548.16705</ele>
        <time>2015-06-27T21:51:52Z</time>
      </trkpt>
      <trkpt lat="45.73259" lon="4.39192">
        <ele>548.16705</ele>
        <time>2015-06-27T21:51:57Z</time>
      </trkpt>
      <trkpt lat="45.73263" lon="4.39198">
        <ele>547.24414</ele>
        <time>2015-06-27T21:52:02Z</time>
      </trkpt>
      <trkpt lat="45.73268" lon="4.39204">
        <ele>547.24414</ele>
        <time>2015-06-27T21:52:07Z</time>
      </trkpt>
      <trkpt lat="45.73271" lon="4.39211">
        <ele>546.47894</ele>
        <time>2015-06-27T21:52:12Z</time>
      </trkpt>
      <trkpt lat="45.73272" lon="4.39217">
        <ele>546.47894</ele>
        <time>2015-06-27T21:52:17Z</time>
      </trkpt>
      <trkpt lat="45.73274" lon="4.39227">
        <ele>546.0174</ele>
        <time>2015-06-27T21:52:22Z</time>
      </trkpt>
      <trkpt lat="45.73277" lon="4.39233">
        <ele>546.0174</ele>
        <time>2015-06-27T21:52:27Z</time>
      </trkpt>
      <trkpt lat="45.73282" lon="4.39243">
        <ele>545.6912</ele>
        <time>2015-06-27T21:52:32Z</time>
      </trkpt>
      <trkpt lat="45.73287" lon="4.39251">
        <ele>545.6912</ele>
        <time>2015-06-27T21:52:37Z</time>
      </trkpt>
      <trkpt lat="45.73288" lon="4.39261">
        <ele>545.48804</ele>
        <time>2015-06-27T21:52:42Z</time>
      </trkpt>
      <trkpt lat="45.7329" lon="4.39268">
        <ele>545.48804</ele>
        <time>2015-06-27T21:52:47Z</time>
      </trkpt>
      <trkpt lat="45.73292" lon="4.39273">
        <ele>545.4972</ele>
        <time>2015-06-27T21:52:52Z</time>
      </trkpt>
      <trkpt lat="45.73294" lon="4.39278">
        <ele>545.4972</ele>
        <time>2015-06-27T21:52:57Z</time>
      </trkpt>
      <trkpt lat="45.73298" lon="4.39284">
        <ele>545.6565</ele>
        <time>2015-06-27T21:53:02Z</time>
      </trkpt>
      <trkpt lat="45.73302" lon="4.39292">
        <ele>545.6565</ele>
        <time>2015-06-27T21:53:07Z</time>
      </trkpt>
      <trkpt lat="45.73305" lon="4.39298">
        <ele>545.9225</ele>
        <time>2015-06-27T21:53:12Z</time>
      </trkpt>
      <trkpt lat="45.73308" lon="4.39303">
        <ele>545.9225</ele>
        <time>2015-06-27T21:53:17Z</time>
      </trkpt>
      <trkpt lat="45.73313" lon="4.39313">
        <ele>546.2977</ele>
        <time>2015-06-27T21:53:22Z</time>
      </trkpt>
      <trkpt lat="45.73318" lon="4.3932">
        <ele>546.2977</ele>
        <time>2015-06-27T21:53:27Z</time>
      </trkpt>
      <trkpt lat="45.73322" lon="4.39327">
        <ele>546.8709</ele>
        <time>2015-06-27T21:53:32Z</time>
      </trkpt>
      <trkpt lat="45.73326" lon="4.39337">
        <ele>546.8709</ele>
        <time>2015-06-27T21:53:37Z</time>
      </trkpt>
      <trkpt lat="45.73331" lon="4.39345">
        <ele>547.50745</ele>
        <time>2015-06-27T21:53:42Z</time>
      </trkpt>
      <trkpt lat="45.73336" lon="4.39354">
        <ele>547.50745</ele>
        <time>2015-06-27T21:53:47Z</time>
      </trkpt>
      <trkpt lat="45.73339" lon="4.3936">
        <ele>548.3276</ele>
        <time>2015-06-27T21:53:52Z</time>
      </trkpt>
      <trkpt lat="45.73344" lon="4.39365">
        <ele>548.3276</ele>
        <time>2015-06-27T21:53:57Z</time>
      </trkpt>
      <trkpt lat="45.73347" lon="4.3937">
        <ele>549.35565</ele>
        <time>2015-06-27T21:54:02Z</time>
      </trkpt>
      <trkpt lat="45.73353" lon="4.39377">
        <ele>549.35565</ele>
        <time>2015-06-27T21:54:07Z</time>
      </trkpt>
      <trkpt lat="45.73359" lon="4.39382">
        <ele>550.49854</ele>
        <time>2015-06-27T21:54:12Z</time>
      </trkpt>
      <trkpt lat="45.73365" lon="4.39387">
        <ele>550.49854</ele>
        <time>2015-06-27T21:54:17Z</time>
      </trkpt>
      <trkpt lat="45.73369" lon="4.39394">
        <ele>551.7994</ele>
        <time>2015-06-27T21:54:22Z</time>
      </trkpt>
      <trkpt lat="45.73375" lon="4.394">
        <ele>551.7994</ele>
        <time>2015-06-27T21:54:27Z</time>
      </trkpt>
      <trkpt lat="45.73378" lon="4.39404">
        <ele>553.21136</ele>
        <time>2015-06-27T21:54:32Z</time>
      </trkpt>
      <trkpt lat="45.73383" lon="4.39409">
        <ele>553.21136</ele>
        <time>2015-06-27T21:54:37Z</time>
      </trkpt>
      <trkpt lat="45.73386" lon="4.39414">
        <ele>554.6332</ele>
        <time>2015-06-27T21:54:42Z</time>
      </trkpt>
      <trkpt lat="45.73391" lon="4.39419">
        <ele>554.6332</ele>
        <time>2015-06-27T21:54:47Z</time>
      </trkpt>
      <trkpt lat="45.73397" lon="4.39425">
        <ele>556.10095</ele>
        <time>2015-06-27T21:54:52Z</time>
      </trkpt>
      <trkpt lat="45.73402" lon="4.3943">
        <ele>556.10095</ele>
        <time>2015-06-27T21:54:57Z</time>
      </trkpt>
      <trkpt lat="45.73406" lon="4.39436">
        <ele>557.63354</ele>
        <time>2015-06-27T21:55:02Z</time>
      </trkpt>
      <trkpt lat="45.73411" lon="4.39443">
        <ele>557.63354</ele>
        <time>2015-06-27T21:55:07Z</time>
      </trkpt>
      <trkpt lat="45.73417" lon="4.39451">
        <ele>559.2628</ele>
        <time>2015-06-27T21:55:12Z</time>
      </trkpt>
      <trkpt lat="45.73421" lon="4.39456">
        <ele>559.2628</ele>
        <time>2015-06-27T21:55:17Z</time>
      </trkpt>
      <trkpt lat="45.73425" lon="4.39459">
        <ele>560.9607</ele>
        <time>2015-06-27T21:55:22Z</time>
      </trkpt>
      <trkpt lat="45.73428" lon="4.39463">
        <ele>560.9607</ele>
        <time>2015-06-27T21:55:27Z</time>
      </trkpt>
      <trkpt lat="45.73432" lon="4.3947">
        <ele>562.57117</ele>
        <time>2015-06-27T21:55:32Z</time>
      </trkpt>
      <trkpt lat="45.73436" lon="4.39475">
        <ele>562.57117</ele>
        <time>2015-06-27T21:55:37Z</time>
      </trkpt>
      <trkpt lat="45.73441" lon="4.39481">
        <ele>564.15216</ele>
        <time>2015-06-27T21:55:42Z</time>
      </trkpt>
      <trkpt lat="45.73445" lon="4.39488">
        <ele>564.15216</ele>
        <time>2015-06-27T21:55:47Z</time>
      </trkpt>
      <trkpt lat="45.7345" lon="4.39493">
        <ele>565.67084</ele>
        <time>2015-06-27T21:55:52Z</time>
      </trkpt>
      <trkpt lat="45.73453" lon="4.39498">
        <ele>565.67084</ele>
        <time>2015-06-27T21:55:57Z</time>
      </trkpt>
      <trkpt lat="45.73458" lon="4.395">
        <ele>567.1838</ele>
        <time>2015-06-27T21:56:02Z</time>
      </trkpt>
      <trkpt lat="45.73461" lon="4.39506">
        <ele>567.1838</ele>
        <time>2015-06-27T21:56:07Z</time>
      </trkpt>
      <trkpt lat="45.73469" lon="4.3951">
        <ele>568.758</ele>
        <time>2015-06-27T21:56:12Z</time>
      </trkpt>
      <trkpt lat="45.73476" lon="4.39514">
        <ele>568.758</ele>
        <time>2015-06-27T21:56:17Z</time>
      </trkpt>
      <trkpt lat="45.73481" lon="4.39517">
        <ele>570.3835</ele>
        <time>2015-06-27T21:56:22Z</time>
      </trkpt>
      <trkpt lat="45.73487" lon="4.3952">
        <ele>570.3835</ele>
        <time>2015-06-27T21:56:27Z</time>
      </trkpt>
      <trkpt lat="45.73493" lon="4.39522">
        <ele>572.0655</ele>
        <time>2015-06-27T21:56:32Z</time>
      </trkpt>
      <trkpt lat="45.73498" lon="4.39524">
        <ele>572.0655</ele>
        <time>2015-06-27T21:56:37Z</time>
      </trkpt>
      <trkpt lat="45.73504" lon="4.39526">
        <ele>573.6791</ele>
        <time>2015-06-27T21:56:42Z</time>
      </trkpt>
      <trkpt lat="45.73509" lon="4.3953">
        <ele>573.6791</ele>
        <time>2015-06-27T21:56:47Z</time>
      </trkpt>
      <trkpt lat="45.73517" lon="4.39534">
        <ele>575.22424</ele>
        <time>2015-06-27T21:56:52Z</time>
      </trkpt>
      <trkpt lat="45.73523" lon="4.39536">
        <ele>575.22424</ele>
        <time>2015-06-27T21:56:57Z</time>
      </trkpt>
      <trkpt lat="45.73528" lon="4.39539">
        <ele>576.67267</ele>
        <time>2015-06-27T21:57:02Z</time>
      </trkpt>
      <trkpt lat="45.73534" lon="4.39543">
        <ele>576.67267</ele>
        <time>2015-06-27T21:57:07Z</time>
      </trkpt>
      <trkpt lat="45.73538" lon="4.39546">
        <ele>578.08484</ele>
        <time>2015-06-27T21:57:12Z</time>
      </trkpt>
      <trkpt lat="45.73544" lon="4.39547">
        <ele>578.08484</ele>
        <time>2015-06-27T21:57:17Z</time>
      </trkpt>
      <trkpt lat="45.73549" lon="4.39552">
        <ele>579.4451</ele>
        <time>2015-06-27T21:57:22Z</time>
      </trkpt>
      <trkpt lat="45.73554" lon="4.39556">
        <ele>579.4451</ele>
        <time>2015-06-27T21:57:27Z</time>
      </trkpt>
      <trkpt lat="45.73562" lon="4.39562">
        <ele>580.8258</ele>
        <time>2015-06-27T21:57:32Z</time>
      </trkpt>
      <trkpt lat="45.73566" lon="4.39567">
        <ele>580.8258</ele>
        <time>2015-06-27T21:57:37Z</time>
      </trkpt>
      <trkpt lat="45.73572" lon="4.39572">
        <ele>582.09235</ele>
        <time>2015-06-27T21:57:42Z</time>
      </trkpt>
      <trkpt lat="45.73577" lon="4.39578">
        <ele>582.09235</ele>
        <time>2015-06-27T21:57:47Z</time>
      </trkpt>
      <trkpt lat="45.73581" lon="4.39584">
        <ele>583.25006</ele>
        <time>2015-06-27T21:57:52Z</time>
      </trkpt>
      <trkpt lat="45.73587" lon="4.39589">
        <ele>583.25006</ele>
        <time>2015-06-27T21:57:57Z</time>
      </trkpt>
      <trkpt lat="45.73591" lon="4.39594">
        <ele>584.2614</ele>
        <time>2015-06-27T21:58:02Z</time>
      </trkpt>
      <trkpt lat="45.73596" lon="4.396">
        <ele>584.2614</ele>
        <time>2015-06-27T21:58:07Z</time>
      </trkpt>
      <trkpt lat="45.73603" lon="4.39607">
        <ele>585.2072</ele>
        <time>2015-06-27T21:58:12Z</time>
      </trkpt>
      <trkpt lat="45.73607" lon="4.39612">
        <ele>585.2072</ele>
        <time>2015-06-27T21:58:17Z</time>
      </trkpt>
      <trkpt lat="45.73611" lon="4.39617">
        <ele>586.16284</ele>
        <time>2015-06-27T21:58:22Z</time>
      </trkpt>
      <trkpt lat="45.73617" lon="4.39622">
        <ele>586.16284</ele>
        <time>2015-06-27T21:58:27Z</time>
      </trkpt>
      <trkpt lat="45.73622" lon="4.39625">
        <ele>587.1262</ele>
        <time>2015-06-27T21:58:32Z</time>
      </trkpt>
      <trkpt lat="45.73628" lon="4.39629">
        <ele>587.1262</ele>
        <time>2015-06-27T21:58:37Z</time>
      </trkpt>
      <trkpt lat="45.73634" lon="4.39632">
        <ele>588.1098</ele>
        <time>2015-06-27T21:58:42Z</time>
      </trkpt>
      <trkpt lat="45.73639" lon="4.39635">
        <ele>588.1098</ele>
        <time>2015-06-27T21:58:47Z</time>
      </trkpt>
      <trkpt lat="45.73643" lon="4.39643">
        <ele>589.0534</ele>
        <time>2015-06-27T21:58:52Z</time>
      </trkpt>
      <trkpt lat="45.73648" lon="4.3965">
        <ele>589.0534</ele>
        <time>2015-06-27T21:58:57Z</time>
      </trkpt>
      <trkpt lat="45.73652" lon="4.39654">
        <ele>589.93005</ele>
        <time>2015-06-27T21:59:02Z</time>
      </trkpt>
      <trkpt lat="45.73657" lon="4.3966">
        <ele>589.93005</ele>
        <time>2015-06-27T21:59:07Z</time>
      </trkpt>
      <trkpt lat="45.73662" lon="4.39665">
        <ele>590.68646</ele>
        <time>2015-06-27T21:59:12Z</time>
      </trkpt>
      <trkpt lat="45.73668" lon="4.39671">
        <ele>590.68646</ele>
        <time>2015-06-27T21:59:17Z</time>
      </trkpt>
      <trkpt lat="45.73674" lon="4.39675">
        <ele>591.3745</ele>
        <time>2015-06-27T21:59:22Z</time>
      </trkpt>
      <trkpt lat="45.73678" lon="4.39678">
        <ele>591.3745</ele>
        <time>2015-06-27T21:59:27Z</time>
      </trkpt>
      <trkpt lat="45.73683" lon="4.39682">
        <ele>592.02814</ele>
        <time>2015-06-27T21:59:32Z</time>
      </trkpt>
      <trkpt lat="45.73688" lon="4.39687">
        <ele>592.02814</ele>
        <time>2015-06-27T21:59:37Z</time>
      </trkpt>
      <trkpt lat="45.73693" lon="4.3969">
        <ele>592.6502</ele>
        <time>2015-06-27T21:59:42Z</time>
      </trkpt>
      <trkpt lat="45.73699" lon="4.39696">
        <ele>592.6502</ele>
        <time>2015-06-27T21:59:47Z</time>
      </trkpt>
      <trkpt lat="45.73703" lon="4.397">
        <ele>593.31555</ele>
        <time>2015-06-27T21:59:52Z</time>
      </trkpt>
      <trkpt lat="45.73708" lon="4.39702">
        <ele>593.31555</ele>
        <time>2015-06-27T21:59:57Z</time>
      </trkpt>
      <trkpt lat="45.73713" lon="4.39706">
        <ele>593.9494</ele>
        <time>2015-06-27T22:00:02Z</time>
      </trkpt>
      <trkpt lat="45.73719" lon="4.3971">
        <ele>593.9494</ele>
        <time>2015-06-27T22:00:07Z</time>
      </trkpt>
      <trkpt lat="45.73723" lon="4.39715">
        <ele>594.5835</ele>
        <time>2015-06-27T22:00:12Z</time>
      </trkpt>
      <trkpt lat="45.73729" lon="4.39721">
        <ele>594.5835</ele>
        <time>2015-06-27T22:00:17Z</time>
      </trkpt>
      <trkpt lat="45.73734" lon="4.39725">
        <ele>595.233</ele>
        <time>2015-06-27T22:00:22Z</time>
      </trkpt>
      <trkpt lat="45.73739" lon="4.39729">
        <ele>595.233</ele>
        <time>2015-06-27T22:00:27Z</time>
      </trkpt>
      <trkpt lat="45.73746" lon="4.39735">
        <ele>595.92615</ele>
        <time>2015-06-27T22:00:32Z</time>
      </trkpt>
      <trkpt lat="45.73752" lon="4.3974">
        <ele>595.92615</ele>
        <time>2015-06-27T22:00:37Z</time>
      </trkpt>
      <trkpt lat="45.73756" lon="4.39744">
        <ele>596.502</ele>
        <time>2015-06-27T22:00:42Z</time>
      </trkpt>
      <trkpt lat="45.73761" lon="4.39749">
        <ele>596.502</ele>
        <time>2015-06-27T22:00:47Z</time>
      </trkpt>
      <trkpt lat="45.73765" lon="4.39756">
        <ele>596.99896</ele>
        <time>2015-06-27T22:00:52Z</time>
      </trkpt>
      <trkpt lat="45.7377" lon="4.39761">
        <ele>596.99896</ele>
        <time>2015-06-27T22:00:57Z</time>
      </trkpt>
      <trkpt lat="45.73774" lon="4.39767">
        <ele>597.4385</ele>
        <time>2015-06-27T22:01:02Z</time>
      </trkpt>
      <trkpt lat="45.73781" lon="4.39772">
        <ele>597.4385</ele>
        <time>2015-06-27T22:01:07Z</time>
      </trkpt>
      <trkpt lat="45.73785" lon="4.39778">
        <ele>597.9416</ele>
        <time>2015-06-27T22:01:12Z</time>
      </trkpt>
      <trkpt lat="45.7379" lon="4.39784">
        <ele>597.9416</ele>
        <time>2015-06-27T22:01:17Z</time>
      </trkpt>
      <trkpt lat="45.73795" lon="4.3979">
        <ele>598.476</ele>
        <time>2015-06-27T22:01:22Z</time>
      </trkpt>
      <trkpt lat="45.73801" lon="4.39798">
        <ele>598.476</ele>
        <time>2015-06-27T22:01:27Z</time>
      </trkpt>
      <trkpt lat="45.73804" lon="4.39801">
        <ele>599.0264</ele>
        <time>2015-06-27T22:01:32Z</time>
      </trkpt>
      <trkpt lat="45.73808" lon="4.39803">
        <ele>599.0264</ele>
        <time>2015-06-27T22:01:37Z</time>
      </trkpt>
      <trkpt lat="45.73812" lon="4.39808">
        <ele>599.57837</ele>
        <time>2015-06-27T22:01:42Z</time>
      </trkpt>
      <trkpt lat="45.73817" lon="4.39814">
        <ele>599.57837</ele>
        <time>2015-06-27T22:01:47Z</time>
      </trkpt>
      <trkpt lat="45.73821" lon="4.3982">
        <ele>600.0897</ele>
        <time>2015-06-27T22:01:52Z</time>
      </trkpt>
      <trkpt lat="45.73825" lon="4.39824">
        <ele>600.0897</ele>
        <time>2015-06-27T22:01:57Z</time>
      </trkpt>
      <trkpt lat="45.7383" lon="4.39829">
        <ele>600.5361</ele>
        <time>2015-06-27T22:02:02Z</time>
      </trkpt>
      <trkpt lat="45.73836" lon="4.39837">
        <ele>600.5361</ele>
        <time>2015-06-27T22:02:07Z</time>
      </trkpt>
      <trkpt lat="45.7384" lon="4.39841">
        <ele>600.88043</ele>
        <time>2015-06-27T22:02:12Z</time>
      </trkpt>
      <trkpt lat="45.73845" lon="4.39849">
        <ele>600.88043</ele>
        <time>2015-06-27T22:02:17Z</time>
      </trkpt>
      <trkpt lat="45.73848" lon="4.39856">
        <ele>601.1321</ele>
        <time>2015-06-27T22:02:22Z</time>
      </trkpt>
      <trkpt lat="45.73852" lon="4.39862">
        <ele>601.1321</ele>
        <time>2015-06-27T22:02:27Z</time>
      </trkpt>
      <trkpt lat="45.73856" lon="4.39867">
        <ele>601.3288</ele>
        <time>2015-06-27T22:02:32Z</time>
      </trkpt>
      <trkpt lat="45.73859" lon="4.39875">
        <ele>601.3288</ele>
        <time>2015-06-27T22:02:37Z</time>
      </trkpt>
      <trkpt lat="45.73863" lon="4.39883">
        <ele>601.4768</ele>
        <time>2015-06-27T22:02:42Z</time>
      </trkpt>
      <trkpt lat="45.73868" lon="4.39891">
        <ele>601.4768</ele>
        <time>2015-06-27T22:02:47Z</time>
      </trkpt>
      <trkpt lat="45.73872" lon="4.39899">
        <ele>601.6252</ele>
        <time>2015-06-27T22:02:52Z</time>
      </trkpt>
      <trkpt lat="45.73875" lon="4.39905">
        <ele>601.6252</ele>
        <time>2015-06-27T22:02:57Z</time>
      </trkpt>
      <trkpt lat="45.73878" lon="4.39913">
        <ele>601.6898</ele>
        <time>2015-06-27T22:03:02Z</time>
      </trkpt>
      <trkpt lat="45.73882" lon="4.3992">
        <ele>601.6898</ele>
        <time>2015-06-27T22:03:07Z</time>
      </trkpt>
      <trkpt lat="45.73884" lon="4.39928">
        <ele>601.63605</ele>
        <time>2015-06-27T22:03:12Z</time>
      </trkpt>
      <trkpt lat="45.73886" lon="4.39935">
        <ele>601.63605</ele>
        <time>2015-06-27T22:03:17Z</time>
      </trkpt>
      <trkpt lat="45.73888" lon="4.39943">
        <ele>601.5619</ele>
        <time>2015-06-27T22:03:22Z</time>
      </trkpt>
      <trkpt lat="45.73891" lon="4.39949">
        <ele>601.5619</ele>
        <time>2015-06-27T22:03:27Z</time>
      </trkpt>
      <trkpt lat="45.73893" lon="4.39957">
        <ele>601.4717</ele>
        <time>2015-06-27T22:03:32Z</time>
      </trkpt>
      <trkpt lat="45.73895" lon="4.39963">
        <ele>601.4717</ele>
        <time>2015-06-27T22:03:37Z</time>
      </trkpt>
      <trkpt lat="45.73897" lon="4.39967">
        <ele>601.4717</ele>
        <time>2015-06-27T22:03:42Z</time>
      </trkpt>
      <trkpt lat="45.739" lon="4.39977">
        <ele>601.26843</ele>
        <time>2015-06-27T22:03:47Z</time>
      </trkpt>
      <trkpt lat="45.73903" lon="4.39987">
        <ele>601.26843</ele>
        <time>2015-06-27T22:03:52Z</time>
      </trkpt>
      <trkpt lat="45.73905" lon="4.39995">
        <ele>601.05005</ele>
        <time>2015-06-27T22:03:57Z</time>
      </trkpt>
      <trkpt lat="45.73907" lon="4.40003">
        <ele>601.05005</ele>
        <time>2015-06-27T22:04:02Z</time>
      </trkpt>
      <trkpt lat="45.73909" lon="4.40012">
        <ele>600.93604</ele>
        <time>2015-06-27T22:04:07Z</time>
      </trkpt>
      <trkpt lat="45.73912" lon="4.40022">
        <ele>600.93604</ele>
        <time>2015-06-27T22:04:12Z</time>
      </trkpt>
      <trkpt lat="45.73915" lon="4.40031">
        <ele>600.8493</ele>
        <time>2015-06-27T22:04:17Z</time>
      </trkpt>
      <trkpt lat="45.73917" lon="4.40039">
        <ele>600.8493</ele>
        <time>2015-06-27T22:04:22Z</time>
      </trkpt>
      <trkpt lat="45.73919" lon="4.40047">
        <ele>600.71844</ele>
        <time>2015-06-27T22:04:27Z</time>
      </trkpt>
      <trkpt lat="45.7392" lon="4.40054">
        <ele>600.71844</ele>
        <time>2015-06-27T22:04:32Z</time>
      </trkpt>
      <trkpt lat="45.73921" lon="4.40063">
        <ele>600.57806</ele>
        <time>2015-06-27T22:04:37Z</time>
      </trkpt>
      <trkpt lat="45.73924" lon="4.40072">
        <ele>600.57806</ele>
        <time>2015-06-27T22:04:42Z</time>
      </trkpt>
      <trkpt lat="45.73927" lon="4.40081">
        <ele>600.38824</ele>
        <time>2015-06-27T22:04:47Z</time>
      </trkpt>
      <trkpt lat="45.7393" lon="4.40089">
        <ele>600.38824</ele>
        <time>2015-06-27T22:04:52Z</time>
      </trkpt>
      <trkpt lat="45.73931" lon="4.40095">
        <ele>600.1985</ele>
        <time>2015-06-27T22:04:57Z</time>
      </trkpt>
      <trkpt lat="45.73933" lon="4.40103">
        <ele>600.1985</ele>
        <time>2015-06-27T22:05:02Z</time>
      </trkpt>
      <trkpt lat="45.73935" lon="4.4011">
        <ele>600.0258</ele>
        <time>2015-06-27T22:05:07Z</time>
      </trkpt>
      <trkpt lat="45.73937" lon="4.40118">
        <ele>600.0258</ele>
        <time>2015-06-27T22:05:12Z</time>
      </trkpt>
      <trkpt lat="45.7394" lon="4.40126">
        <ele>599.8281</ele>
        <time>2015-06-27T22:05:17Z</time>
      </trkpt>
      <trkpt lat="45.73942" lon="4.40135">
        <ele>599.8281</ele>
        <time>2015-06-27T22:05:22Z</time>
      </trkpt>
      <trkpt lat="45.73944" lon="4.40146">
        <ele>599.6097</ele>
        <time>2015-06-27T22:05:27Z</time>
      </trkpt>
      <trkpt lat="45.73947" lon="4.40153">
        <ele>599.6097</ele>
        <time>2015-06-27T22:05:32Z</time>
      </trkpt>
      <trkpt lat="45.7395" lon="4.4016">
        <ele>599.44653</ele>
        <time>2015-06-27T22:05:37Z</time>
      </trkpt>
      <trkpt lat="45.73951" lon="4.40169">
        <ele>599.44653</ele>
        <time>2015-06-27T22:05:42Z</time>
      </trkpt>
      <trkpt lat="45.73952" lon="4.40179">
        <ele>599.2647</ele>
        <time>2015-06-27T22:05:47Z</time>
      </trkpt>
      <trkpt lat="45.73955" lon="4.40188">
        <ele>599.2647</ele>
        <time>2015-06-27T22:05:52Z</time>
      </trkpt>
      <trkpt lat="45.73957" lon="4.40197">
        <ele>599.05334</ele>
        <time>2015-06-27T22:05:57Z</time>
      </trkpt>
      <trkpt lat="45.7396" lon="4.40205">
        <ele>599.05334</ele>
        <time>2015-06-27T22:06:02Z</time>
      </trkpt>
      <trkpt lat="45.7396" lon="4.40212">
        <ele>598.8311</ele>
        <time>2015-06-27T22:06:07Z</time>
      </trkpt>
      <trkpt lat="45.73963" lon="4.40222">
        <ele>598.8311</ele>
        <time>2015-06-27T22:06:12Z</time>
      </trkpt>
      <trkpt lat="45.73964" lon="4.40232">
        <ele>598.57214</ele>
        <time>2015-06-27T22:06:17Z</time>
      </trkpt>
      <trkpt lat="45.73968" lon="4.4024">
        <ele>598.57214</ele>
        <time>2015-06-27T22:06:22Z</time>
      </trkpt>
      <trkpt lat="45.7397" lon="4.40245">
        <ele>598.4109</ele>
        <time>2015-06-27T22:06:27Z</time>
      </trkpt>
      <trkpt lat="45.73972" lon="4.40255">
        <ele>598.4109</ele>
        <time>2015-06-27T22:06:32Z</time>
      </trkpt>
      <trkpt lat="45.73975" lon="4.40264">
        <ele>598.3131</ele>
        <time>2015-06-27T22:06:37Z</time>
      </trkpt>
      <trkpt lat="45.73978" lon="4.40274">
        <ele>598.3131</ele>
        <time>2015-06-27T22:06:42Z</time>
      </trkpt>
      <trkpt lat="45.7398" lon="4.40283">
        <ele>598.2181</ele>
        <time>2015-06-27T22:06:47Z</time>
      </trkpt>
      <trkpt lat="45.73984" lon="4.4029">
        <ele>598.2181</ele>
        <time>2015-06-27T22:06:52Z</time>
      </trkpt>
      <trkpt lat="45.73987" lon="4.40299">
        <ele>598.11255</ele>
        <time>2015-06-27T22:06:57Z</time>
      </trkpt>
      <trkpt lat="45.73989" lon="4.40308">
        <ele>598.11255</ele>
        <time>2015-06-27T22:07:02Z</time>
      </trkpt>
      <trkpt lat="45.73991" lon="4.40316">
        <ele>597.9266</ele>
        <time>2015-06-27T22:07:07Z</time>
      </trkpt>
      <trkpt lat="45.73992" lon="4.40321">
        <ele>597.9266</ele>
        <time>2015-06-27T22:07:12Z</time>
      </trkpt>
      <trkpt lat="45.73994" lon="4.40328">
        <ele>597.9266</ele>
        <time>2015-06-27T22:07:17Z</time>
      </trkpt>
      <trkpt lat="45.73997" lon="4.40338">
        <ele>597.5812</ele>
        <time>2015-06-27T22:07:22Z</time>
      </trkpt>
      <trkpt lat="45.74" lon="4.40347">
        <ele>597.5812</ele>
        <time>2015-06-27T22:07:27Z</time>
      </trkpt>
      <trkpt lat="45.74002" lon="4.40356">
        <ele>597.19073</ele>
        <time>2015-06-27T22:07:32Z</time>
      </trkpt>
      <trkpt lat="45.74003" lon="4.40362">
        <ele>597.19073</ele>
        <time>2015-06-27T22:07:37Z</time>
      </trkpt>
      <trkpt lat="45.74003" lon="4.4037">
        <ele>596.68854</ele>
        <time>2015-06-27T22:07:42Z</time>
      </trkpt>
      <trkpt lat="45.74008" lon="4.4038">
        <ele>596.68854</ele>
        <time>2015-06-27T22:07:47Z</time>
      </trkpt>
      <trkpt lat="45.74012" lon="4.40391">
        <ele>596.1425</ele>
        <time>2015-06-27T22:07:52Z</time>
      </trkpt>
      <trkpt lat="45.74016" lon="4.40401">
        <ele>596.1425</ele>
        <time>2015-06-27T22:07:57Z</time>
      </trkpt>
      <trkpt lat="45.74019" lon="4.40407">
        <ele>595.6014</ele>
        <time>2015-06-27T22:08:02Z</time>
      </trkpt>
      <trkpt lat="45.74023" lon="4.40417">
        <ele>595.6014</ele>
        <time>2015-06-27T22:08:07Z</time>
      </trkpt>
      <trkpt lat="45.74027" lon="4.40425">
        <ele>595.12463</ele>
        <time>2015-06-27T22:08:12Z</time>
      </trkpt>
      <trkpt lat="45.74027" lon="4.40435">
        <ele>595.12463</ele>
        <time>2015-06-27T22:08:17Z</time>
      </trkpt>
      <trkpt lat="45.7403" lon="4.40445">
        <ele>594.6949</ele>
        <time>2015-06-27T22:08:22Z</time>
      </trkpt>
      <trkpt lat="45.74033" lon="4.40452">
        <ele>594.6949</ele>
        <time>2015-06-27T22:08:27Z</time>
      </trkpt>
      <trkpt lat="45.74036" lon="4.40463">
        <ele>594.368</ele>
        <time>2015-06-27T22:08:32Z</time>
      </trkpt>
      <trkpt lat="45.74035" lon="4.40472">
        <ele>594.368</ele>
        <time>2015-06-27T22:08:37Z</time>
      </trkpt>
      <trkpt lat="45.74035" lon="4.40479">
        <ele>594.10895</ele>
        <time>2015-06-27T22:08:42Z</time>
      </trkpt>
      <trkpt lat="45.74037" lon="4.4049">
        <ele>594.10895</ele>
        <time>2015-06-27T22:08:47Z</time>
      </trkpt>
      <trkpt lat="45.74038" lon="4.405">
        <ele>593.91376</ele>
        <time>2015-06-27T22:08:52Z</time>
      </trkpt>
      <trkpt lat="45.74038" lon="4.40509">
        <ele>593.91376</ele>
        <time>2015-06-27T22:08:57Z</time>
      </trkpt>
      <trkpt lat="45.7404" lon="4.40519">
        <ele>593.7353</ele>
        <time>2015-06-27T22:09:02Z</time>
      </trkpt>
      <trkpt lat="45.74043" lon="4.40527">
        <ele>593.7353</ele>
        <time>2015-06-27T22:09:07Z</time>
      </trkpt>
      <trkpt lat="45.74045" lon="4.40537">
        <ele>593.5442</ele>
        <time>2015-06-27T22:09:12Z</time>
      </trkpt>
      <trkpt lat="45.74047" lon="4.40548">
        <ele>593.5442</ele>
        <time>2015-06-27T22:09:17Z</time>
      </trkpt>
      <trkpt lat="45.74049" lon="4.40552">
        <ele>593.3276</ele>
        <time>2015-06-27T22:09:22Z</time>
      </trkpt>
      <trkpt lat="45.74053" lon="4.4056">
        <ele>593.3276</ele>
        <time>2015-06-27T22:09:27Z</time>
      </trkpt>
      <trkpt lat="45.74056" lon="4.40572">
        <ele>593.17444</ele>
        <time>2015-06-27T22:09:32Z</time>
      </trkpt>
      <trkpt lat="45.74059" lon="4.40581">
        <ele>593.17444</ele>
        <time>2015-06-27T22:09:37Z</time>
      </trkpt>
      <trkpt lat="45.74063" lon="4.40589">
        <ele>593.0373</ele>
        <time>2015-06-27T22:09:42Z</time>
      </trkpt>
      <trkpt lat="45.74068" lon="4.40597">
        <ele>593.0373</ele>
        <time>2015-06-27T22:09:47Z</time>
      </trkpt>
      <trkpt lat="45.7407" lon="4.40604">
        <ele>592.98737</ele>
        <time>2015-06-27T22:09:52Z</time>
      </trkpt>
      <trkpt lat="45.74072" lon="4.40613">
        <ele>592.98737</ele>
        <time>2015-06-27T22:09:57Z</time>
      </trkpt>
      <trkpt lat="45.74073" lon="4.40621">
        <ele>592.93176</ele>
        <time>2015-06-27T22:10:02Z</time>
      </trkpt>
      <trkpt lat="45.74076" lon="4.40629">
        <ele>592.93176</ele>
        <time>2015-06-27T22:10:07Z</time>
      </trkpt>
      <trkpt lat="45.74078" lon="4.40637">
        <ele>592.88525</ele>
        <time>2015-06-27T22:10:12Z</time>
      </trkpt>
      <trkpt lat="45.74081" lon="4.40645">
        <ele>592.88525</ele>
        <time>2015-06-27T22:10:17Z</time>
      </trkpt>
      <trkpt lat="45.74085" lon="4.40655">
        <ele>592.948</ele>
        <time>2015-06-27T22:10:22Z</time>
      </trkpt>
      <trkpt lat="45.74086" lon="4.40661">
        <ele>592.948</ele>
        <time>2015-06-27T22:10:27Z</time>
      </trkpt>
      <trkpt lat="45.74088" lon="4.40668">
        <ele>593.0827</ele>
        <time>2015-06-27T22:10:32Z</time>
      </trkpt>
      <trkpt lat="45.7409" lon="4.40674">
        <ele>593.0827</ele>
        <time>2015-06-27T22:10:37Z</time>
      </trkpt>
      <trkpt lat="45.74094" lon="4.40684">
        <ele>593.31226</ele>
        <time>2015-06-27T22:10:42Z</time>
      </trkpt>
      <trkpt lat="45.74098" lon="4.40696">
        <ele>593.31226</ele>
        <time>2015-06-27T22:10:47Z</time>
      </trkpt>
      <trkpt lat="45.74099" lon="4.40702">
        <ele>593.6575</ele>
        <time>2015-06-27T22:10:52Z</time>
      </trkpt>
      <trkpt lat="45.74102" lon="4.4071">
        <ele>593.6575</ele>
        <time>2015-06-27T22:10:57Z</time>
      </trkpt>
      <trkpt lat="45.74105" lon="4.40717">
        <ele>594.0798</ele>
        <time>2015-06-27T22:11:02Z</time>
      </trkpt>
      <trkpt lat="45.74108" lon="4.40725">
        <ele>594.0798</ele>
        <time>2015-06-27T22:11:07Z</time>
      </trkpt>
      <trkpt lat="45.74111" lon="4.40736">
        <ele>594.44214</ele>
        <time>2015-06-27T22:11:12Z</time>
      </trkpt>
      <trkpt lat="45.74112" lon="4.40742">
        <ele>594.44214</ele>
        <time>2015-06-27T22:11:17Z</time>
      </trkpt>
      <trkpt lat="45.74115" lon="4.40751">
        <ele>594.83417</ele>
        <time>2015-06-27T22:11:22Z</time>
      </trkpt>
      <trkpt lat="45.74117" lon="4.40759">
        <ele>594.83417</ele>
        <time>2015-06-27T22:11:27Z</time>
      </trkpt>
      <trkpt lat="45.74116" lon="4.40766">
        <ele>595.2809</ele>
        <time>2015-06-27T22:11:32Z</time>
      </trkpt>
      <trkpt lat="45.74114" lon="4.40774">
        <ele>595.2809</ele>
        <time>2015-06-27T22:11:37Z</time>
      </trkpt>
      <trkpt lat="45.74109" lon="4.4078">
        <ele>595.8487</ele>
        <time>2015-06-27T22:11:42Z</time>
      </trkpt>
      <trkpt lat="45.74106" lon="4.40785">
        <ele>595.8487</ele>
        <time>2015-06-27T22:11:47Z</time>
      </trkpt>
      <trkpt lat="45.74101" lon="4.40792">
        <ele>596.52673</ele>
        <time>2015-06-27T22:11:52Z</time>
      </trkpt>
      <trkpt lat="45.741" lon="4.40796">
        <ele>596.52673</ele>
        <time>2015-06-27T22:11:57Z</time>
      </trkpt>
      <trkpt lat="45.74095" lon="4.40806">
        <ele>597.27576</ele>
        <time>2015-06-27T22:12:02Z</time>
      </trkpt>
      <trkpt lat="45.74093" lon="4.40814">
        <ele>597.27576</ele>
        <time>2015-06-27T22:12:07Z</time>
      </trkpt>
      <trkpt lat="45.74091" lon="4.40822">
        <ele>598.1457</ele>
        <time>2015-06-27T22:12:12Z</time>
      </trkpt>
      <trkpt lat="45.74089" lon="4.40829">
        <ele>598.1457</ele>
        <time>2015-06-27T22:12:17Z</time>
      </trkpt>
      <trkpt lat="45.74086" lon="4.40838">
        <ele>599.13934</ele>
        <time>2015-06-27T22:12:22Z</time>
      </trkpt>
      <trkpt lat="45.74082" lon="4.40845">
        <ele>599.13934</ele>
        <time>2015-06-27T22:12:27Z</time>
      </trkpt>
      <trkpt lat="45.7408" lon="4.40854">
        <ele>600.1724</ele>
        <time>2015-06-27T22:12:32Z</time>
      </trkpt>
      <trkpt lat="45.74078" lon="4.40861">
        <ele>600.1724</ele>
        <time>2015-06-27T22:12:37Z</time>
      </trkpt>
      <trkpt lat="45.74075" lon="4.40868">
        <ele>601.1955</ele>
        <time>2015-06-27T22:12:42Z</time>
      </trkpt>
      <trkpt lat="45.74073" lon="4.40878">
        <ele>601.1955</ele>
        <time>2015-06-27T22:12:47Z</time>
      </trkpt>
      <trkpt lat="45.74073" lon="4.40887">
        <ele>602.2496</ele>
        <time>2015-06-27T22:12:52Z</time>
      </trkpt>
      <trkpt lat="45.74074" lon="4.40896">
        <ele>602.2496</ele>
        <time>2015-06-27T22:12:57Z</time>
      </trkpt>
      <trkpt lat="45.74074" lon="4.40901">
        <ele>603.3867</ele>
        <time>2015-06-27T22:13:02Z</time>
      </trkpt>
      <trkpt lat="45.74072" lon="4.4091">
        <ele>603.3867</ele>
        <time>2015-06-27T22:13:07Z</time>
      </trkpt>
      <trkpt lat="45.74072" lon="4.40918">
        <ele>604.612</ele>
        <time>2015-06-27T22:13:12Z</time>
      </trkpt>
      <trkpt lat="45.74071" lon="4.40925">
        <ele>604.612</ele>
        <time>2015-06-27T22:13:17Z</time>
      </trkpt>
      <trkpt lat="45.74069" lon="4.40936">
        <ele>605.8721</ele>
        <time>2015-06-27T22:13:22Z</time>
      </trkpt>
      <trkpt lat="45.74068" lon="4.40945">
        <ele>605.8721</ele>
        <time>2015-06-27T22:13:27Z</time>
      </trkpt>
      <trkpt lat="45.74067" lon="4.4095">
        <ele>607.1033</ele>
        <time>2015-06-27T22:13:32Z</time>
      </trkpt>
      <trkpt lat="45.74065" lon="4.40958">
        <ele>607.1033</ele>
        <time>2015-06-27T22:13:37Z</time>
      </trkpt>
      <trkpt lat="45.74064" lon="4.40966">
        <ele>608.30426</ele>
        <time>2015-06-27T22:13:42Z</time>
      </trkpt>
      <trkpt lat="45.74064" lon="4.40975">
        <ele>608.30426</ele>
        <time>2015-06-27T22:13:47Z</time>
      </trkpt>
      <trkpt lat="45.74062" lon="4.40982">
        <ele>609.4164</ele>
        <time>2015-06-27T22:13:52Z</time>
      </trkpt>
      <trkpt lat="45.7406" lon="4.40988">
        <ele>609.4164</ele>
        <time>2015-06-27T22:13:57Z</time>
      </trkpt>
      <trkpt lat="45.74058" lon="4.40998">
        <ele>610.4576</ele>
        <time>2015-06-27T22:14:02Z</time>
      </trkpt>
      <trkpt lat="45.74055" lon="4.41004">
        <ele>610.4576</ele>
        <time>2015-06-27T22:14:07Z</time>
      </trkpt>
      <trkpt lat="45.74051" lon="4.41012">
        <ele>611.51697</ele>
        <time>2015-06-27T22:14:12Z</time>
      </trkpt>
      <trkpt lat="45.74046" lon="4.41019">
        <ele>611.51697</ele>
        <time>2015-06-27T22:14:17Z</time>
      </trkpt>
      <trkpt lat="45.74042" lon="4.41027">
        <ele>612.48975</ele>
        <time>2015-06-27T22:14:22Z</time>
      </trkpt>
      <trkpt lat="45.74038" lon="4.41034">
        <ele>612.48975</ele>
        <time>2015-06-27T22:14:27Z</time>
      </trkpt>
      <trkpt lat="45.74034" lon="4.41043">
        <ele>613.2502</ele>
        <time>2015-06-27T22:14:32Z</time>
      </trkpt>
      <trkpt lat="45.7403" lon="4.4105">
        <ele>613.2502</ele>
        <time>2015-06-27T22:14:37Z</time>
      </trkpt>
      <trkpt lat="45.74028" lon="4.41054">
        <ele>613.9133</ele>
        <time>2015-06-27T22:14:42Z</time>
      </trkpt>
      <trkpt lat="45.74026" lon="4.41061">
        <ele>613.9133</ele>
        <time>2015-06-27T22:14:47Z</time>
      </trkpt>
      <trkpt lat="45.74022" lon="4.41069">
        <ele>614.4705</ele>
        <time>2015-06-27T22:14:52Z</time>
      </trkpt>
      <trkpt lat="45.74019" lon="4.41075">
        <ele>614.4705</ele>
        <time>2015-06-27T22:14:57Z</time>
      </trkpt>
      <trkpt lat="45.74015" lon="4.4108">
        <ele>614.9143</ele>
        <time>2015-06-27T22:15:02Z</time>
      </trkpt>
      <trkpt lat="45.7401" lon="4.41085">
        <ele>614.9143</ele>
        <time>2015-06-27T22:15:07Z</time>
      </trkpt>
      <trkpt lat="45.74004" lon="4.41088">
        <ele>615.28143</ele>
        <time>2015-06-27T22:15:12Z</time>
      </trkpt>
      <trkpt lat="45.73998" lon="4.41093">
        <ele>615.28143</ele>
        <time>2015-06-27T22:15:17Z</time>
      </trkpt>
      <trkpt lat="45.73993" lon="4.41096">
        <ele>615.6638</ele>
        <time>2015-06-27T22:15:22Z</time>
      </trkpt>
      <trkpt lat="45.73988" lon="4.41099">
        <ele>615.6638</ele>
        <time>2015-06-27T22:15:27Z</time>
      </trkpt>
      <trkpt lat="45.73982" lon="4.41105">
        <ele>616.0601</ele>
        <time>2015-06-27T22:15:32Z</time>
      </trkpt>
      <trkpt lat="45.73979" lon="4.41109">
        <ele>616.0601</ele>
        <time>2015-06-27T22:15:37Z</time>
      </trkpt>
      <trkpt lat="45.73976" lon="4.41111">
        <ele>616.0601</ele>
        <time>2015-06-27T22:15:42Z</time>
      </trkpt>
      <trkpt lat="45.73971" lon="4.41116">
        <ele>616.44037</ele>
        <time>2015-06-27T22:15:47Z</time>
      </trkpt>
      <trkpt lat="45.73968" lon="4.41121">
        <ele>616.44037</ele>
        <time>2015-06-27T22:15:52Z</time>
      </trkpt>
      <trkpt lat="45.73963" lon="4.41126">
        <ele>616.777</ele>
        <time>2015-06-27T22:15:57Z</time>
      </trkpt>
      <trkpt lat="45.73958" lon="4.4113">
        <ele>616.777</ele>
        <time>2015-06-27T22:16:02Z</time>
      </trkpt>
      <trkpt lat="45.73955" lon="4.41131">
        <ele>616.777</ele>
        <time>2015-06-27T22:16:07Z</time>
      </trkpt>
      <trkpt lat="45.73952" lon="4.41132">
        <ele>617.275</ele>
        <time>2015-06-27T22:16:12Z</time>
      </trkpt>
      <trkpt lat="45.73947" lon="4.41135">
        <ele>617.275</ele>
        <time>2015-06-27T22:16:17Z</time>
      </trkpt>
      <trkpt lat="45.73943" lon="4.41139">
        <ele>617.7783</ele>
        <time>2015-06-27T22:16:22Z</time>
      </trkpt>
      <trkpt lat="45.73939" lon="4.41141">
        <ele>617.7783</ele>
        <time>2015-06-27T22:16:27Z</time>
      </trkpt>
      <trkpt lat="45.73934" lon="4.41143">
        <ele>618.243</ele>
        <time>2015-06-27T22:16:32Z</time>
      </trkpt>
      <trkpt lat="45.73929" lon="4.41143">
        <ele>618.243</ele>
        <time>2015-06-27T22:16:37Z</time>
      </trkpt>
      <trkpt lat="45.73924" lon="4.41144">
        <ele>618.715</ele>
        <time>2015-06-27T22:16:42Z</time>
      </trkpt>
      <trkpt lat="45.7392" lon="4.41144">
        <ele>618.715</ele>
        <time>2015-06-27T22:16:47Z</time>
      </trkpt>
      <trkpt lat="45.73915" lon="4.41144">
        <ele>618.715</ele>
        <time>2015-06-27T22:16:52Z</time>
      </trkpt>
      <trkpt lat="45.7391" lon="4.41146">
        <ele>619.4389</ele>
        <time>2015-06-27T22:16:57Z</time>
      </trkpt>
      <trkpt lat="45.73906" lon="4.41146">
        <ele>619.4389</ele>
        <time>2015-06-27T22:17:02Z</time>
      </trkpt>
      <trkpt lat="45.73902" lon="4.41148">
        <ele>619.4389</ele>
        <time>2015-06-27T22:17:07Z</time>
      </trkpt>
      <trkpt lat="45.73897" lon="4.41149">
        <ele>620.2801</ele>
        <time>2015-06-27T22:17:12Z</time>
      </trkpt>
      <trkpt lat="45.73893" lon="4.4115">
        <ele>620.2801</ele>
        <time>2015-06-27T22:17:17Z</time>
      </trkpt>
      <trkpt lat="45.73889" lon="4.41149">
        <ele>620.2801</ele>
        <time>2015-06-27T22:17:22Z</time>
      </trkpt>
      <trkpt lat="45.73882" lon="4.41151">
        <ele>621.22894</ele>
        <time>2015-06-27T22:17:27Z</time>
      </trkpt>
      <trkpt lat="45.73879" lon="4.41153">
        <ele>621.22894</ele>
        <time>2015-06-27T22:17:32Z</time>
      </trkpt>
      <trkpt lat="45.73874" lon="4.41154">
        <ele>621.22894</ele>
        <time>2015-06-27T22:17:37Z</time>
      </trkpt>
      <trkpt lat="45.73866" lon="4.41157">
        <ele>622.3052</ele>
        <time>2015-06-27T22:17:42Z</time>
      </trkpt>
      <trkpt lat="45.73861" lon="4.41158">
        <ele>622.3052</ele>
        <time>2015-06-27T22:17:47Z</time>
      </trkpt>
      <trkpt lat="45.73856" lon="4.4116">
        <ele>623.4402</ele>
        <time>2015-06-27T22:17:52Z</time>
      </trkpt>
      <trkpt lat="45.73853" lon="4.41165">
        <ele>623.4402</ele>
        <time>2015-06-27T22:17:57Z</time>
      </trkpt>
      <trkpt lat="45.73851" lon="4.4117">
        <ele>623.4402</ele>
        <time>2015-06-27T22:18:02Z</time>
      </trkpt>
      <trkpt lat="45.73844" lon="4.41177">
        <ele>624.6424</ele>
        <time>2015-06-27T22:18:07Z</time>
      </trkpt>
      <trkpt lat="45.73839" lon="4.41183">
        <ele>624.6424</ele>
        <time>2015-06-27T22:18:12Z</time>
      </trkpt>
      <trkpt lat="45.73831" lon="4.41189">
        <ele>625.9049</ele>
        <time>2015-06-27T22:18:17Z</time>
      </trkpt>
      <trkpt lat="45.73826" lon="4.41196">
        <ele>625.9049</ele>
        <time>2015-06-27T22:18:22Z</time>
      </trkpt>
      <trkpt lat="45.73822" lon="4.41203">
        <ele>627.1494</ele>
        <time>2015-06-27T22:18:27Z</time>
      </trkpt>
      <trkpt lat="45.7382" lon="4.41207">
        <ele>627.1494</ele>
        <time>2015-06-27T22:18:32Z</time>
      </trkpt>
      <trkpt lat="45.73815" lon="4.41213">
        <ele>628.3176</ele>
        <time>2015-06-27T22:18:37Z</time>
      </trkpt>
      <trkpt lat="45.73811" lon="4.4122">
        <ele>628.3176</ele>
        <time>2015-06-27T22:18:42Z</time>
      </trkpt>
      <trkpt lat="45.73807" lon="4.41226">
        <ele>629.5576</ele>
        <time>2015-06-27T22:18:47Z</time>
      </trkpt>
      <trkpt lat="45.73802" lon="4.41231">
        <ele>629.5576</ele>
        <time>2015-06-27T22:18:52Z</time>
      </trkpt>
      <trkpt lat="45.73797" lon="4.41238">
        <ele>630.7904</ele>
        <time>2015-06-27T22:18:57Z</time>
      </trkpt>
      <trkpt lat="45.73791" lon="4.41245">
        <ele>630.7904</ele>
        <time>2015-06-27T22:19:02Z</time>
      </trkpt>
      <trkpt lat="45.73788" lon="4.4125">
        <ele>631.9715</ele>
        <time>2015-06-27T22:19:07Z</time>
      </trkpt>
      <trkpt lat="45.73783" lon="4.41257">
        <ele>631.9715</ele>
        <time>2015-06-27T22:19:12Z</time>
      </trkpt>
      <trkpt lat="45.73779" lon="4.4126">
        <ele>633.0024</ele>
        <time>2015-06-27T22:19:17Z</time>
      </trkpt>
      <trkpt lat="45.73774" lon="4.41265">
        <ele>633.0024</ele>
        <time>2015-06-27T22:19:22Z</time>
      </trkpt>
      <trkpt lat="45.73768" lon="4.41273">
        <ele>633.9218</ele>
        <time>2015-06-27T22:19:27Z</time>
      </trkpt>
      <trkpt lat="45.73761" lon="4.41279">
        <ele>633.9218</ele>
        <time>2015-06-27T22:19:32Z</time>
      </trkpt>
      <trkpt lat="45.73756" lon="4.41283">
        <ele>634.7374</ele>
        <time>2015-06-27T22:19:37Z</time>
      </trkpt>
      <trkpt lat="45.73752" lon="4.41288">
        <ele>634.7374</ele>
        <time>2015-06-27T22:19:42Z</time>
      </trkpt>
      <trkpt lat="45.73746" lon="4.41294">
        <ele>635.4421</ele>
        <time>2015-06-27T22:19:47Z</time>
      </trkpt>
      <trkpt lat="45.73742" lon="4.41301">
        <ele>635.4421</ele>
        <time>2015-06-27T22:19:52Z</time>
      </trkpt>
      <trkpt lat="45.73737" lon="4.41308">
        <ele>636.01514</ele>
        <time>2015-06-27T22:19:57Z</time>
      </trkpt>
      <trkpt lat="45.73734" lon="4.41313">
        <ele>636.01514</ele>
        <time>2015-06-27T22:20:02Z</time>
      </trkpt>
      <trkpt lat="45.7373" lon="4.4132">
        <ele>636.3514</ele>
        <time>2015-06-27T22:20:07Z</time>
      </trkpt>
      <trkpt lat="45.7373" lon="4.4133">
        <ele>636.3514</ele>
        <time>2015-06-27T22:20:12Z</time>
      </trkpt>
      <trkpt lat="45.73729" lon="4.4134">
        <ele>636.5703</ele>
        <time>2015-06-27T22:20:17Z</time>
      </trkpt>
      <trkpt lat="45.73729" lon="4.4135">
        <ele>636.5703</ele>
        <time>2015-06-27T22:20:22Z</time>
      </trkpt>
      <trkpt lat="45.73729" lon="4.41359">
        <ele>636.76855</ele>
        <time>2015-06-27T22:20:27Z</time>
      </trkpt>
      <trkpt lat="45.73731" lon="4.4137">
        <ele>636.76855</ele>
        <time>2015-06-27T22:20:32Z</time>
      </trkpt>
      <trkpt lat="45.73731" lon="4.4138">
        <ele>636.92035</ele>
        <time>2015-06-27T22:20:37Z</time>
      </trkpt>
      <trkpt lat="45.73731" lon="4.41388">
        <ele>636.92035</ele>
        <time>2015-06-27T22:20:42Z</time>
      </trkpt>
      <trkpt lat="45.73729" lon="4.41395">
        <ele>636.95886</ele>
        <time>2015-06-27T22:20:47Z</time>
      </trkpt>
      <trkpt lat="45.73724" lon="4.41402">
        <ele>636.95886</ele>
        <time>2015-06-27T22:20:52Z</time>
      </trkpt>
      <trkpt lat="45.73721" lon="4.41409">
        <ele>636.9232</ele>
        <time>2015-06-27T22:20:57Z</time>
      </trkpt>
      <trkpt lat="45.73718" lon="4.41413">
        <ele>636.9232</ele>
        <time>2015-06-27T22:21:02Z</time>
      </trkpt>
      <trkpt lat="45.73714" lon="4.41416">
        <ele>636.9232</ele>
        <time>2015-06-27T22:21:07Z</time>
      </trkpt>
      <trkpt lat="45.73709" lon="4.41421">
        <ele>636.8933</ele>
        <time>2015-06-27T22:21:12Z</time>
      </trkpt>
      <trkpt lat="45.73706" lon="4.41424">
        <ele>636.8933</ele>
        <time>2015-06-27T22:21:17Z</time>
      </trkpt>
      <trkpt lat="45.73702" lon="4.41431">
        <ele>636.7701</ele>
        <time>2015-06-27T22:21:22Z</time>
      </trkpt>
      <trkpt lat="45.73697" lon="4.41439">
        <ele>636.7701</ele>
        <time>2015-06-27T22:21:27Z</time>
      </trkpt>
      <trkpt lat="45.73697" lon="4.41448">
        <ele>636.49084</ele>
        <time>2015-06-27T22:21:32Z</time>
      </trkpt>
      <trkpt lat="45.73697" lon="4.41454">
        <ele>636.49084</ele>
        <time>2015-06-27T22:21:37Z</time>
      </trkpt>
      <trkpt lat="45.73695" lon="4.41461">
        <ele>636.0844</ele>
        <time>2015-06-27T22:21:42Z</time>
      </trkpt>
      <trkpt lat="45.73692" lon="4.41471">
        <ele>636.0844</ele>
        <time>2015-06-27T22:21:47Z</time>
      </trkpt>
      <trkpt lat="45.73691" lon="4.41481">
        <ele>635.4914</ele>
        <time>2015-06-27T22:21:52Z</time>
      </trkpt>
      <trkpt lat="45.73689" lon="4.41487">
        <ele>635.4914</ele>
        <time>2015-06-27T22:21:57Z</time>
      </trkpt>
      <trkpt lat="45.73687" lon="4.41495">
        <ele>634.6716</ele>
        <time>2015-06-27T22:22:02Z</time>
      </trkpt>
      <trkpt lat="45.73686" lon="4.41505">
        <ele>634.6716</ele>
        <time>2015-06-27T22:22:07Z</time>
      </trkpt>
      <trkpt lat="45.73685" lon="4.41513">
        <ele>633.7613</ele>
        <time>2015-06-27T22:22:12Z</time>
      </trkpt>
      <trkpt lat="45.73685" lon="4.41521">
        <ele>633.7613</ele>
        <time>2015-06-27T22:22:17Z</time>
      </trkpt>
      <trkpt lat="45.73687" lon="4.41525">
        <ele>632.743</ele>
        <time>2015-06-27T22:22:22Z</time>
      </trkpt>
      <trkpt lat="45.73689" lon="4.41527">
        <ele>632.743</ele>
        <time>2015-06-27T22:22:27Z</time>
      </trkpt>
      <trkpt lat="45.73693" lon="4.4153">
        <ele>632.743</ele>
        <time>2015-06-27T22:22:32Z</time>
      </trkpt>
      <trkpt lat="45.73699" lon="4.41533">
        <ele>631.39874</ele>
        <time>2015-06-27T22:22:37Z</time>
      </trkpt>
      <trkpt lat="45.73706" lon="4.41535">
        <ele>631.39874</ele>
        <time>2015-06-27T22:22:42Z</time>
      </trkpt>
      <trkpt lat="45.73711" lon="4.41535">
        <ele>629.8735</ele>
        <time>2015-06-27T22:22:47Z</time>
      </trkpt>
      <trkpt lat="45.73718" lon="4.41537">
        <ele>629.8735</ele>
        <time>2015-06-27T22:22:52Z</time>
      </trkpt>
      <trkpt lat="45.73724" lon="4.41539">
        <ele>628.2874</ele>
        <time>2015-06-27T22:22:57Z</time>
      </trkpt>
      <trkpt lat="45.73728" lon="4.41538">
        <ele>628.2874</ele>
        <time>2015-06-27T22:23:02Z</time>
      </trkpt>
      <trkpt lat="45.73732" lon="4.41532">
        <ele>626.73773</ele>
        <time>2015-06-27T22:23:07Z</time>
      </trkpt>
      <trkpt lat="45.73736" lon="4.41526">
        <ele>626.73773</ele>
        <time>2015-06-27T22:23:12Z</time>
      </trkpt>
      <trkpt lat="45.73739" lon="4.41523">
        <ele>625.314</ele>
        <time>2015-06-27T22:23:17Z</time>
      </trkpt>
      <trkpt lat="45.73746" lon="4.41525">
        <ele>625.314</ele>
        <time>2015-06-27T22:23:22Z</time>
      </trkpt>
      <trkpt lat="45.73753" lon="4.41527">
        <ele>623.9838</ele>
        <time>2015-06-27T22:23:27Z</time>
      </trkpt>
      <trkpt lat="45.73759" lon="4.41525">
        <ele>623.9838</ele>
        <time>2015-06-27T22:23:32Z</time>
      </trkpt>
      <trkpt lat="45.73763" lon="4.4152">
        <ele>622.6012</ele>
        <time>2015-06-27T22:23:37Z</time>
      </trkpt>
      <trkpt lat="45.73766" lon="4.41519">
        <ele>622.6012</ele>
        <time>2015-06-27T22:23:42Z</time>
      </trkpt>
      <trkpt lat="45.73765" lon="4.41521">
        <ele>622.6012</ele>
        <time>2015-06-27T22:23:47Z</time>
      </trkpt>
      <trkpt lat="45.73763" lon="4.41524">
        <ele>622.6012</ele>
        <time>2015-06-27T22:23:52Z</time>
      </trkpt>
      <trkpt lat="45.73763" lon="4.41524">
        <ele>622.6012</ele>
        <time>2015-06-27T22:23:57Z</time>
      </trkpt>
      <trkpt lat="45.73762" lon="4.41525">
        <ele>622.6012</ele>
        <time>2015-06-27T22:24:02Z</time>
      </trkpt>
      <trkpt lat="45.73762" lon="4.41525">
        <ele>622.6012</ele>
        <time>2015-06-27T22:24:07Z</time>
      </trkpt>
      <trkpt lat="45.73762" lon="4.41525">
        <ele>621.33356</ele>
        <time>2015-06-27T22:24:12Z</time>
      </trkpt>
      <trkpt lat="45.73761" lon="4.41527">
        <ele>621.33356</ele>
        <time>2015-06-27T22:24:17Z</time>
      </trkpt>
      <trkpt lat="45.73762" lon="4.41536">
        <ele>621.33356</ele>
        <time>2015-06-27T22:24:22Z</time>
      </trkpt>
      <trkpt lat="45.73771" lon="4.41546">
        <ele>620.09076</ele>
        <time>2015-06-27T22:24:27Z</time>
      </trkpt>
      <trkpt lat="45.73776" lon="4.41548">
        <ele>620.09076</ele>
        <time>2015-06-27T22:24:32Z</time>
      </trkpt>
      <trkpt lat="45.7378" lon="4.41555">
        <ele>618.9041</ele>
        <time>2015-06-27T22:24:37Z</time>
      </trkpt>
      <trkpt lat="45.73784" lon="4.4156">
        <ele>618.9041</ele>
        <time>2015-06-27T22:24:42Z</time>
      </trkpt>
      <trkpt lat="45.73787" lon="4.41565">
        <ele>617.7305</ele>
        <time>2015-06-27T22:24:47Z</time>
      </trkpt>
      <trkpt lat="45.73791" lon="4.41574">
        <ele>617.7305</ele>
        <time>2015-06-27T22:24:52Z</time>
      </trkpt>
      <trkpt lat="45.73794" lon="4.4158">
        <ele>616.6306</ele>
        <time>2015-06-27T22:24:57Z</time>
      </trkpt>
      <trkpt lat="45.73799" lon="4.4159">
        <ele>616.6306</ele>
        <time>2015-06-27T22:25:02Z</time>
      </trkpt>
      <trkpt lat="45.73802" lon="4.41599">
        <ele>615.617</ele>
        <time>2015-06-27T22:25:07Z</time>
      </trkpt>
      <trkpt lat="45.73805" lon="4.41608">
        <ele>615.617</ele>
        <time>2015-06-27T22:25:12Z</time>
      </trkpt>
      <trkpt lat="45.73809" lon="4.41617">
        <ele>614.7874</ele>
        <time>2015-06-27T22:25:17Z</time>
      </trkpt>
      <trkpt lat="45.73813" lon="4.41623">
        <ele>614.7874</ele>
        <time>2015-06-27T22:25:22Z</time>
      </trkpt>
      <trkpt lat="45.73816" lon="4.41628">
        <ele>614.1165</ele>
        <time>2015-06-27T22:25:27Z</time>
      </trkpt>
      <trkpt lat="45.73821" lon="4.41633">
        <ele>614.1165</ele>
        <time>2015-06-27T22:25:32Z</time>
      </trkpt>
      <trkpt lat="45.73825" lon="4.41638">
        <ele>613.537</ele>
        <time>2015-06-27T22:25:37Z</time>
      </trkpt>
      <trkpt lat="45.73829" lon="4.41645">
        <ele>613.537</ele>
        <time>2015-06-27T22:25:42Z</time>
      </trkpt>
      <trkpt lat="45.73834" lon="4.41652">
        <ele>613.11584</ele>
        <time>2015-06-27T22:25:47Z</time>
      </trkpt>
      <trkpt lat="45.73838" lon="4.41661">
        <ele>613.11584</ele>
        <time>2015-06-27T22:25:52Z</time>
      </trkpt>
      <trkpt lat="45.73845" lon="4.41672">
        <ele>612.82794</ele>
        <time>2015-06-27T22:25:57Z</time>
      </trkpt>
      <trkpt lat="45.73851" lon="4.41679">
        <ele>612.82794</ele>
        <time>2015-06-27T22:26:02Z</time>
      </trkpt>
      <trkpt lat="45.73855" lon="4.41685">
        <ele>612.64966</ele>
        <time>2015-06-27T22:26:07Z</time>
      </trkpt>
      <trkpt lat="45.73862" lon="4.41692">
        <ele>612.64966</ele>
        <time>2015-06-27T22:26:12Z</time>
      </trkpt>
      <trkpt lat="45.73867" lon="4.417">
        <ele>612.55865</ele>
        <time>2015-06-27T22:26:17Z</time>
      </trkpt>
      <trkpt lat="45.73873" lon="4.4171">
        <ele>612.55865</ele>
        <time>2015-06-27T22:26:22Z</time>
      </trkpt>
      <trkpt lat="45.73878" lon="4.41718">
        <ele>612.5339</ele>
        <time>2015-06-27T22:26:27Z</time>
      </trkpt>
      <trkpt lat="45.73884" lon="4.41726">
        <ele>612.5339</ele>
        <time>2015-06-27T22:26:32Z</time>
      </trkpt>
      <trkpt lat="45.73889" lon="4.41734">
        <ele>612.6131</ele>
        <time>2015-06-27T22:26:37Z</time>
      </trkpt>
      <trkpt lat="45.73896" lon="4.41742">
        <ele>612.6131</ele>
        <time>2015-06-27T22:26:42Z</time>
      </trkpt>
      <trkpt lat="45.73903" lon="4.41748">
        <ele>612.84546</ele>
        <time>2015-06-27T22:26:47Z</time>
      </trkpt>
      <trkpt lat="45.7391" lon="4.41754">
        <ele>612.84546</ele>
        <time>2015-06-27T22:26:52Z</time>
      </trkpt>
      <trkpt lat="45.73917" lon="4.41763">
        <ele>613.2183</ele>
        <time>2015-06-27T22:26:57Z</time>
      </trkpt>
      <trkpt lat="45.73923" lon="4.4177">
        <ele>613.2183</ele>
        <time>2015-06-27T22:27:02Z</time>
      </trkpt>
      <trkpt lat="45.73929" lon="4.41776">
        <ele>613.7627</ele>
        <time>2015-06-27T22:27:07Z</time>
      </trkpt>
      <trkpt lat="45.73935" lon="4.41781">
        <ele>613.7627</ele>
        <time>2015-06-27T22:27:12Z</time>
      </trkpt>
      <trkpt lat="45.73941" lon="4.41782">
        <ele>614.3338</ele>
        <time>2015-06-27T22:27:17Z</time>
      </trkpt>
      <trkpt lat="45.73948" lon="4.41784">
        <ele>614.3338</ele>
        <time>2015-06-27T22:27:22Z</time>
      </trkpt>
      <trkpt lat="45.73957" lon="4.41787">
        <ele>614.8407</ele>
        <time>2015-06-27T22:27:27Z</time>
      </trkpt>
      <trkpt lat="45.73964" lon="4.41791">
        <ele>614.8407</ele>
        <time>2015-06-27T22:27:32Z</time>
      </trkpt>
      <trkpt lat="45.73971" lon="4.41792">
        <ele>615.32904</ele>
        <time>2015-06-27T22:27:37Z</time>
      </trkpt>
      <trkpt lat="45.73977" lon="4.41791">
        <ele>615.32904</ele>
        <time>2015-06-27T22:27:42Z</time>
      </trkpt>
      <trkpt lat="45.73985" lon="4.41789">
        <ele>615.8409</ele>
        <time>2015-06-27T22:27:47Z</time>
      </trkpt>
      <trkpt lat="45.73991" lon="4.41786">
        <ele>615.8409</ele>
        <time>2015-06-27T22:27:52Z</time>
      </trkpt>
      <trkpt lat="45.73995" lon="4.41783">
        <ele>616.3866</ele>
        <time>2015-06-27T22:27:57Z</time>
      </trkpt>
      <trkpt lat="45.74" lon="4.41779">
        <ele>616.3866</ele>
        <time>2015-06-27T22:28:02Z</time>
      </trkpt>
      <trkpt lat="45.74006" lon="4.41774">
        <ele>616.9323</ele>
        <time>2015-06-27T22:28:07Z</time>
      </trkpt>
      <trkpt lat="45.7401" lon="4.4177">
        <ele>616.9323</ele>
        <time>2015-06-27T22:28:12Z</time>
      </trkpt>
      <trkpt lat="45.74017" lon="4.41765">
        <ele>617.44653</ele>
        <time>2015-06-27T22:28:17Z</time>
      </trkpt>
      <trkpt lat="45.74023" lon="4.41762">
        <ele>617.44653</ele>
        <time>2015-06-27T22:28:22Z</time>
      </trkpt>
      <trkpt lat="45.74027" lon="4.4176">
        <ele>618.0157</ele>
        <time>2015-06-27T22:28:27Z</time>
      </trkpt>
      <trkpt lat="45.74032" lon="4.41755">
        <ele>618.0157</ele>
        <time>2015-06-27T22:28:32Z</time>
      </trkpt>
      <trkpt lat="45.74035" lon="4.41751">
        <ele>618.6764</ele>
        <time>2015-06-27T22:28:37Z</time>
      </trkpt>
      <trkpt lat="45.74039" lon="4.41743">
        <ele>618.6764</ele>
        <time>2015-06-27T22:28:42Z</time>
      </trkpt>
      <trkpt lat="45.74045" lon="4.41737">
        <ele>619.3902</ele>
        <time>2015-06-27T22:28:47Z</time>
      </trkpt>
      <trkpt lat="45.74049" lon="4.4173">
        <ele>619.3902</ele>
        <time>2015-06-27T22:28:52Z</time>
      </trkpt>
      <trkpt lat="45.74054" lon="4.41729">
        <ele>620.1647</ele>
        <time>2015-06-27T22:28:57Z</time>
      </trkpt>
      <trkpt lat="45.74058" lon="4.41736">
        <ele>620.1647</ele>
        <time>2015-06-27T22:29:02Z</time>
      </trkpt>
      <trkpt lat="45.74065" lon="4.41741">
        <ele>620.877</ele>
        <time>2015-06-27T22:29:07Z</time>
      </trkpt>
      <trkpt lat="45.7407" lon="4.41744">
        <ele>620.877</ele>
        <time>2015-06-27T22:29:12Z</time>
      </trkpt>
      <trkpt lat="45.74076" lon="4.41752">
        <ele>621.58655</ele>
        <time>2015-06-27T22:29:17Z</time>
      </trkpt>
      <trkpt lat="45.74078" lon="4.41757">
        <ele>621.58655</ele>
        <time>2015-06-27T22:29:22Z</time>
      </trkpt>
      <trkpt lat="45.74081" lon="4.41766">
        <ele>622.3051</ele>
        <time>2015-06-27T22:29:27Z</time>
      </trkpt>
      <trkpt lat="45.74086" lon="4.4177">
        <ele>622.3051</ele>
        <time>2015-06-27T22:29:32Z</time>
      </trkpt>
      <trkpt lat="45.7409" lon="4.41774">
        <ele>622.98596</ele>
        <time>2015-06-27T22:29:37Z</time>
      </trkpt>
      <trkpt lat="45.74096" lon="4.4178">
        <ele>622.98596</ele>
        <time>2015-06-27T22:29:42Z</time>
      </trkpt>
      <trkpt lat="45.74101" lon="4.41787">
        <ele>623.68695</ele>
        <time>2015-06-27T22:29:47Z</time>
      </trkpt>
      <trkpt lat="45.74108" lon="4.41794">
        <ele>623.68695</ele>
        <time>2015-06-27T22:29:52Z</time>
      </trkpt>
      <trkpt lat="45.74113" lon="4.41799">
        <ele>624.3607</ele>
        <time>2015-06-27T22:29:57Z</time>
      </trkpt>
      <trkpt lat="45.74117" lon="4.41803">
        <ele>624.3607</ele>
        <time>2015-06-27T22:30:02Z</time>
      </trkpt>
      <trkpt lat="45.74124" lon="4.41811">
        <ele>625.0356</ele>
        <time>2015-06-27T22:30:07Z</time>
      </trkpt>
      <trkpt lat="45.74128" lon="4.41819">
        <ele>625.0356</ele>
        <time>2015-06-27T22:30:12Z</time>
      </trkpt>
      <trkpt lat="45.74132" lon="4.41824">
        <ele>625.7523</ele>
        <time>2015-06-27T22:30:17Z</time>
      </trkpt>
      <trkpt lat="45.74138" lon="4.41826">
        <ele>625.7523</ele>
        <time>2015-06-27T22:30:22Z</time>
      </trkpt>
      <trkpt lat="45.74143" lon="4.41827">
        <ele>626.4477</ele>
        <time>2015-06-27T22:30:27Z</time>
      </trkpt>
      <trkpt lat="45.74149" lon="4.41832">
        <ele>626.4477</ele>
        <time>2015-06-27T22:30:32Z</time>
      </trkpt>
      <trkpt lat="45.74154" lon="4.41835">
        <ele>627.22186</ele>
        <time>2015-06-27T22:30:37Z</time>
      </trkpt>
      <trkpt lat="45.74157" lon="4.41838">
        <ele>627.22186</ele>
        <time>2015-06-27T22:30:42Z</time>
      </trkpt>
      <trkpt lat="45.74162" lon="4.41841">
        <ele>627.22186</ele>
        <time>2015-06-27T22:30:47Z</time>
      </trkpt>
      <trkpt lat="45.74165" lon="4.41842">
        <ele>628.0521</ele>
        <time>2015-06-27T22:30:52Z</time>
      </trkpt>
      <trkpt lat="45.74172" lon="4.41844">
        <ele>628.0521</ele>
        <time>2015-06-27T22:30:57Z</time>
      </trkpt>
      <trkpt lat="45.74177" lon="4.41843">
        <ele>628.78766</ele>
        <time>2015-06-27T22:31:02Z</time>
      </trkpt>
      <trkpt lat="45.74184" lon="4.41841">
        <ele>628.78766</ele>
        <time>2015-06-27T22:31:07Z</time>
      </trkpt>
      <trkpt lat="45.74191" lon="4.41842">
        <ele>629.4477</ele>
        <time>2015-06-27T22:31:12Z</time>
      </trkpt>
      <trkpt lat="45.74196" lon="4.4184">
        <ele>629.4477</ele>
        <time>2015-06-27T22:31:17Z</time>
      </trkpt>
      <trkpt lat="45.74206" lon="4.4184">
        <ele>630.15106</ele>
        <time>2015-06-27T22:31:22Z</time>
      </trkpt>
      <trkpt lat="45.74214" lon="4.41846">
        <ele>630.8061</ele>
        <time>2015-06-27T22:31:27Z</time>
      </trkpt>
      <trkpt lat="45.74218" lon="4.41849">
        <ele>630.8061</ele>
        <time>2015-06-27T22:31:32Z</time>
      </trkpt>
      <trkpt lat="45.74221" lon="4.41856">
        <ele>631.4579</ele>
        <time>2015-06-27T22:31:37Z</time>
      </trkpt>
      <trkpt lat="45.74227" lon="4.41861">
        <ele>631.4579</ele>
        <time>2015-06-27T22:31:42Z</time>
      </trkpt>
      <trkpt lat="45.7423" lon="4.41868">
        <ele>632.0906</ele>
        <time>2015-06-27T22:31:47Z</time>
      </trkpt>
      <trkpt lat="45.74233" lon="4.41874">
        <ele>632.0906</ele>
        <time>2015-06-27T22:31:52Z</time>
      </trkpt>
      <trkpt lat="45.74238" lon="4.41879">
        <ele>632.63196</ele>
        <time>2015-06-27T22:31:57Z</time>
      </trkpt>
      <trkpt lat="45.74242" lon="4.41884">
        <ele>632.63196</ele>
        <time>2015-06-27T22:32:02Z</time>
      </trkpt>
      <trkpt lat="45.74246" lon="4.41892">
        <ele>633.0442</ele>
        <time>2015-06-27T22:32:07Z</time>
      </trkpt>
      <trkpt lat="45.74252" lon="4.41897">
        <ele>633.0442</ele>
        <time>2015-06-27T22:32:12Z</time>
      </trkpt>
      <trkpt lat="45.74254" lon="4.41901">
        <ele>633.2929</ele>
        <time>2015-06-27T22:32:17Z</time>
      </trkpt>
      <trkpt lat="45.74259" lon="4.41912">
        <ele>633.4762</ele>
        <time>2015-06-27T22:32:22Z</time>
      </trkpt>
      <trkpt lat="45.74263" lon="4.41919">
        <ele>633.4762</ele>
        <time>2015-06-27T22:32:27Z</time>
      </trkpt>
      <trkpt lat="45.74269" lon="4.41926">
        <ele>633.61334</ele>
        <time>2015-06-27T22:32:32Z</time>
      </trkpt>
      <trkpt lat="45.74274" lon="4.41933">
        <ele>633.61334</ele>
        <time>2015-06-27T22:32:37Z</time>
      </trkpt>
      <trkpt lat="45.74276" lon="4.41941">
        <ele>633.6646</ele>
        <time>2015-06-27T22:32:42Z</time>
      </trkpt>
      <trkpt lat="45.74278" lon="4.41949">
        <ele>633.6646</ele>
        <time>2015-06-27T22:32:47Z</time>
      </trkpt>
      <trkpt lat="45.74285" lon="4.41956">
        <ele>633.55035</ele>
        <time>2015-06-27T22:32:52Z</time>
      </trkpt>
      <trkpt lat="45.74289" lon="4.41961">
        <ele>633.55035</ele>
        <time>2015-06-27T22:32:57Z</time>
      </trkpt>
      <trkpt lat="45.74292" lon="4.41971">
        <ele>633.28375</ele>
        <time>2015-06-27T22:33:02Z</time>
      </trkpt>
      <trkpt lat="45.74293" lon="4.41978">
        <ele>633.28375</ele>
        <time>2015-06-27T22:33:07Z</time>
      </trkpt>
      <trkpt lat="45.74296" lon="4.41984">
        <ele>632.92065</ele>
        <time>2015-06-27T22:33:12Z</time>
      </trkpt>
      <trkpt lat="45.743" lon="4.41995">
        <ele>632.92065</ele>
        <time>2015-06-27T22:33:17Z</time>
      </trkpt>
      <trkpt lat="45.74302" lon="4.42003">
        <ele>632.4987</ele>
        <time>2015-06-27T22:33:22Z</time>
      </trkpt>
      <trkpt lat="45.74306" lon="4.42009">
        <ele>632.4987</ele>
        <time>2015-06-27T22:33:27Z</time>
      </trkpt>
      <trkpt lat="45.74311" lon="4.42015">
        <ele>631.9234</ele>
        <time>2015-06-27T22:33:32Z</time>
      </trkpt>
      <trkpt lat="45.74316" lon="4.42021">
        <ele>631.9234</ele>
        <time>2015-06-27T22:33:37Z</time>
      </trkpt>
      <trkpt lat="45.7432" lon="4.42025">
        <ele>631.338</ele>
        <time>2015-06-27T22:33:42Z</time>
      </trkpt>
      <trkpt lat="45.74323" lon="4.42027">
        <ele>631.338</ele>
        <time>2015-06-27T22:33:47Z</time>
      </trkpt>
      <trkpt lat="45.74326" lon="4.42029">
        <ele>631.338</ele>
        <time>2015-06-27T22:33:52Z</time>
      </trkpt>
      <trkpt lat="45.7433" lon="4.42032">
        <ele>630.7313</ele>
        <time>2015-06-27T22:33:57Z</time>
      </trkpt>
      <trkpt lat="45.74335" lon="4.42035">
        <ele>630.7313</ele>
        <time>2015-06-27T22:34:02Z</time>
      </trkpt>
      <trkpt lat="45.7434" lon="4.42038">
        <ele>630.2227</ele>
        <time>2015-06-27T22:34:07Z</time>
      </trkpt>
      <trkpt lat="45.74343" lon="4.42043">
        <ele>630.2227</ele>
        <time>2015-06-27T22:34:12Z</time>
      </trkpt>
      <trkpt lat="45.74348" lon="4.42046">
        <ele>629.77844</ele>
        <time>2015-06-27T22:34:17Z</time>
      </trkpt>
      <trkpt lat="45.74354" lon="4.42052">
        <ele>629.77844</ele>
        <time>2015-06-27T22:34:22Z</time>
      </trkpt>
      <trkpt lat="45.7436" lon="4.42059">
        <ele>629.3813</ele>
        <time>2015-06-27T22:34:27Z</time>
      </trkpt>
      <trkpt lat="45.74366" lon="4.42062">
        <ele>629.3813</ele>
        <time>2015-06-27T22:34:32Z</time>
      </trkpt>
      <trkpt lat="45.74372" lon="4.42065">
        <ele>629.0298</ele>
        <time>2015-06-27T22:34:37Z</time>
      </trkpt>
      <trkpt lat="45.74377" lon="4.42067">
        <ele>629.0298</ele>
        <time>2015-06-27T22:34:42Z</time>
      </trkpt>
      <trkpt lat="45.74381" lon="4.42075">
        <ele>628.77985</ele>
        <time>2015-06-27T22:34:47Z</time>
      </trkpt>
      <trkpt lat="45.74381" lon="4.42085">
        <ele>628.77985</ele>
        <time>2015-06-27T22:34:52Z</time>
      </trkpt>
      <trkpt lat="45.74382" lon="4.42093">
        <ele>628.55347</ele>
        <time>2015-06-27T22:34:57Z</time>
      </trkpt>
      <trkpt lat="45.74383" lon="4.42103">
        <ele>628.55347</ele>
        <time>2015-06-27T22:35:02Z</time>
      </trkpt>
      <trkpt lat="45.74384" lon="4.4211">
        <ele>628.2638</ele>
        <time>2015-06-27T22:35:07Z</time>
      </trkpt>
      <trkpt lat="45.74385" lon="4.42121">
        <ele>628.2638</ele>
        <time>2015-06-27T22:35:12Z</time>
      </trkpt>
      <trkpt lat="45.74384" lon="4.42132">
        <ele>627.94574</ele>
        <time>2015-06-27T22:35:17Z</time>
      </trkpt>
      <trkpt lat="45.74383" lon="4.42141">
        <ele>627.94574</ele>
        <time>2015-06-27T22:35:22Z</time>
      </trkpt>
      <trkpt lat="45.74384" lon="4.4215">
        <ele>627.6317</ele>
        <time>2015-06-27T22:35:27Z</time>
      </trkpt>
      <trkpt lat="45.74385" lon="4.42157">
        <ele>627.6317</ele>
        <time>2015-06-27T22:35:32Z</time>
      </trkpt>
      <trkpt lat="45.74385" lon="4.4216">
        <ele>627.6317</ele>
        <time>2015-06-27T22:35:37Z</time>
      </trkpt>
      <trkpt lat="45.74387" lon="4.42167">
        <ele>627.35175</ele>
        <time>2015-06-27T22:35:42Z</time>
      </trkpt>
      <trkpt lat="45.74386" lon="4.42176">
        <ele>627.35175</ele>
        <time>2015-06-27T22:35:47Z</time>
      </trkpt>
      <trkpt lat="45.74387" lon="4.42187">
        <ele>627.0039</ele>
        <time>2015-06-27T22:35:52Z</time>
      </trkpt>
      <trkpt lat="45.74387" lon="4.42193">
        <ele>627.0039</ele>
        <time>2015-06-27T22:35:57Z</time>
      </trkpt>
      <trkpt lat="45.74387" lon="4.42204">
        <ele>626.63776</ele>
        <time>2015-06-27T22:36:02Z</time>
      </trkpt>
      <trkpt lat="45.74388" lon="4.42214">
        <ele>626.63776</ele>
        <time>2015-06-27T22:36:07Z</time>
      </trkpt>
      <trkpt lat="45.74389" lon="4.42222">
        <ele>626.2995</ele>
        <time>2015-06-27T22:36:12Z</time>
      </trkpt>
      <trkpt lat="45.74389" lon="4.4223">
        <ele>626.2995</ele>
        <time>2015-06-27T22:36:17Z</time>
      </trkpt>
      <trkpt lat="45.74389" lon="4.42241">
        <ele>626.00287</ele>
        <time>2015-06-27T22:36:22Z</time>
      </trkpt>
      <trkpt lat="45.7439" lon="4.42251">
        <ele>626.00287</ele>
        <time>2015-06-27T22:36:27Z</time>
      </trkpt>
      <trkpt lat="45.74391" lon="4.4226">
        <ele>625.674</ele>
        <time>2015-06-27T22:36:32Z</time>
      </trkpt>
      <trkpt lat="45.74394" lon="4.42269">
        <ele>625.674</ele>
        <time>2015-06-27T22:36:37Z</time>
      </trkpt>
      <trkpt lat="45.74394" lon="4.42278">
        <ele>625.2589</ele>
        <time>2015-06-27T22:36:42Z</time>
      </trkpt>
      <trkpt lat="45.74394" lon="4.42288">
        <ele>625.2589</ele>
        <time>2015-06-27T22:36:47Z</time>
      </trkpt>
      <trkpt lat="45.74393" lon="4.42297">
        <ele>624.8663</ele>
        <time>2015-06-27T22:36:52Z</time>
      </trkpt>
      <trkpt lat="45.74391" lon="4.42306">
        <ele>624.8663</ele>
        <time>2015-06-27T22:36:57Z</time>
      </trkpt>
      <trkpt lat="45.74388" lon="4.42316">
        <ele>624.46704</ele>
        <time>2015-06-27T22:37:02Z</time>
      </trkpt>
      <trkpt lat="45.74384" lon="4.42322">
        <ele>624.46704</ele>
        <time>2015-06-27T22:37:07Z</time>
      </trkpt>
      <trkpt lat="45.74379" lon="4.42328">
        <ele>623.9765</ele>
        <time>2015-06-27T22:37:12Z</time>
      </trkpt>
      <trkpt lat="45.74375" lon="4.42334">
        <ele>623.9765</ele>
        <time>2015-06-27T22:37:17Z</time>
      </trkpt>
      <trkpt lat="45.74374" lon="4.42335">
        <ele>623.9765</ele>
        <time>2015-06-27T22:37:22Z</time>
      </trkpt>
      <trkpt lat="45.74375" lon="4.42333">
        <ele>623.9765</ele>
        <time>2015-06-27T22:37:27Z</time>
      </trkpt>
      <trkpt lat="45.74373" lon="4.42336">
        <ele>623.5183</ele>
        <time>2015-06-27T22:37:32Z</time>
      </trkpt>
      <trkpt lat="45.74369" lon="4.42341">
        <ele>623.5183</ele>
        <time>2015-06-27T22:37:37Z</time>
      </trkpt>
      <trkpt lat="45.74363" lon="4.42347">
        <ele>623.2356</ele>
        <time>2015-06-27T22:37:42Z</time>
      </trkpt>
      <trkpt lat="45.74358" lon="4.4235">
        <ele>623.2356</ele>
        <time>2015-06-27T22:37:47Z</time>
      </trkpt>
      <trkpt lat="45.74352" lon="4.42355">
        <ele>623.0876</ele>
        <time>2015-06-27T22:37:52Z</time>
      </trkpt>
      <trkpt lat="45.74346" lon="4.4236">
        <ele>623.0876</ele>
        <time>2015-06-27T22:37:57Z</time>
      </trkpt>
      <trkpt lat="45.74341" lon="4.42366">
        <ele>622.96387</ele>
        <time>2015-06-27T22:38:02Z</time>
      </trkpt>
      <trkpt lat="45.74335" lon="4.42371">
        <ele>622.96387</ele>
        <time>2015-06-27T22:38:07Z</time>
      </trkpt>
      <trkpt lat="45.74332" lon="4.42377">
        <ele>622.87744</ele>
        <time>2015-06-27T22:38:12Z</time>
      </trkpt>
      <trkpt lat="45.74328" lon="4.42382">
        <ele>622.87744</ele>
        <time>2015-06-27T22:38:17Z</time>
      </trkpt>
      <trkpt lat="45.74325" lon="4.4239">
        <ele>622.8835</ele>
        <time>2015-06-27T22:38:22Z</time>
      </trkpt>
      <trkpt lat="45.74323" lon="4.42397">
        <ele>622.8835</ele>
        <time>2015-06-27T22:38:27Z</time>
      </trkpt>
      <trkpt lat="45.74324" lon="4.42397">
        <ele>622.8835</ele>
        <time>2015-06-27T22:38:32Z</time>
      </trkpt>
      <trkpt lat="45.74321" lon="4.42408">
        <ele>623.0471</ele>
        <time>2015-06-27T22:38:37Z</time>
      </trkpt>
      <trkpt lat="45.7432" lon="4.4241">
        <ele>623.0471</ele>
        <time>2015-06-27T22:38:42Z</time>
      </trkpt>
      <trkpt lat="45.74316" lon="4.42419">
        <ele>623.0471</ele>
        <time>2015-06-27T22:38:47Z</time>
      </trkpt>
      <trkpt lat="45.74314" lon="4.42426">
        <ele>623.47156</ele>
        <time>2015-06-27T22:38:52Z</time>
      </trkpt>
      <trkpt lat="45.7431" lon="4.42436">
        <ele>623.47156</ele>
        <time>2015-06-27T22:38:57Z</time>
      </trkpt>
      <trkpt lat="45.74305" lon="4.42443">
        <ele>624.07855</ele>
        <time>2015-06-27T22:39:02Z</time>
      </trkpt>
      <trkpt lat="45.74298" lon="4.42443">
        <ele>624.07855</ele>
        <time>2015-06-27T22:39:07Z</time>
      </trkpt>
      <trkpt lat="45.74293" lon="4.4244">
        <ele>624.7088</ele>
        <time>2015-06-27T22:39:12Z</time>
      </trkpt>
      <trkpt lat="45.74287" lon="4.42438">
        <ele>624.7088</ele>
        <time>2015-06-27T22:39:17Z</time>
      </trkpt>
      <trkpt lat="45.7428" lon="4.42434">
        <ele>625.3586</ele>
        <time>2015-06-27T22:39:22Z</time>
      </trkpt>
      <trkpt lat="45.74273" lon="4.4243">
        <ele>625.3586</ele>
        <time>2015-06-27T22:39:27Z</time>
      </trkpt>
      <trkpt lat="45.74266" lon="4.42427">
        <ele>625.96686</ele>
        <time>2015-06-27T22:39:32Z</time>
      </trkpt>
      <trkpt lat="45.7426" lon="4.42421">
        <ele>625.96686</ele>
        <time>2015-06-27T22:39:37Z</time>
      </trkpt>
      <trkpt lat="45.74253" lon="4.42419">
        <ele>626.5059</ele>
        <time>2015-06-27T22:39:42Z</time>
      </trkpt>
      <trkpt lat="45.74246" lon="4.42417">
        <ele>626.5059</ele>
        <time>2015-06-27T22:39:47Z</time>
      </trkpt>
      <trkpt lat="45.74238" lon="4.42414">
        <ele>627.008</ele>
        <time>2015-06-27T22:39:52Z</time>
      </trkpt>
      <trkpt lat="45.74232" lon="4.42411">
        <ele>627.008</ele>
        <time>2015-06-27T22:39:57Z</time>
      </trkpt>
      <trkpt lat="45.74226" lon="4.42407">
        <ele>627.4886</ele>
        <time>2015-06-27T22:40:02Z</time>
      </trkpt>
      <trkpt lat="45.74219" lon="4.42404">
        <ele>627.4886</ele>
        <time>2015-06-27T22:40:07Z</time>
      </trkpt>
      <trkpt lat="45.74212" lon="4.424">
        <ele>627.94775</ele>
        <time>2015-06-27T22:40:12Z</time>
      </trkpt>
      <trkpt lat="45.74208" lon="4.42397">
        <ele>627.94775</ele>
        <time>2015-06-27T22:40:17Z</time>
      </trkpt>
      <trkpt lat="45.74201" lon="4.42396">
        <ele>628.29913</ele>
        <time>2015-06-27T22:40:22Z</time>
      </trkpt>
      <trkpt lat="45.74193" lon="4.42394">
        <ele>628.29913</ele>
        <time>2015-06-27T22:40:27Z</time>
      </trkpt>
      <trkpt lat="45.74187" lon="4.4239">
        <ele>628.5928</ele>
        <time>2015-06-27T22:40:32Z</time>
      </trkpt>
      <trkpt lat="45.74179" lon="4.42389">
        <ele>628.5928</ele>
        <time>2015-06-27T22:40:37Z</time>
      </trkpt>
      <trkpt lat="45.74173" lon="4.42388">
        <ele>628.8175</ele>
        <time>2015-06-27T22:40:42Z</time>
      </trkpt>
      <trkpt lat="45.74166" lon="4.42386">
        <ele>628.8175</ele>
        <time>2015-06-27T22:40:47Z</time>
      </trkpt>
      <trkpt lat="45.7416" lon="4.42383">
        <ele>628.9201</ele>
        <time>2015-06-27T22:40:52Z</time>
      </trkpt>
      <trkpt lat="45.74153" lon="4.4238">
        <ele>628.9201</ele>
        <time>2015-06-27T22:40:57Z</time>
      </trkpt>
      <trkpt lat="45.74145" lon="4.42379">
        <ele>629.0244</ele>
        <time>2015-06-27T22:41:02Z</time>
      </trkpt>
      <trkpt lat="45.74137" lon="4.42376">
        <ele>629.0244</ele>
        <time>2015-06-27T22:41:07Z</time>
      </trkpt>
      <trkpt lat="45.7413" lon="4.42375">
        <ele>629.18756</ele>
        <time>2015-06-27T22:41:12Z</time>
      </trkpt>
      <trkpt lat="45.74123" lon="4.42372">
        <ele>629.18756</ele>
        <time>2015-06-27T22:41:17Z</time>
      </trkpt>
      <trkpt lat="45.74115" lon="4.42371">
        <ele>629.3183</ele>
        <time>2015-06-27T22:41:22Z</time>
      </trkpt>
      <trkpt lat="45.74107" lon="4.4237">
        <ele>629.3183</ele>
        <time>2015-06-27T22:41:27Z</time>
      </trkpt>
      <trkpt lat="45.74101" lon="4.42372">
        <ele>629.4619</ele>
        <time>2015-06-27T22:41:32Z</time>
      </trkpt>
      <trkpt lat="45.74093" lon="4.42372">
        <ele>629.4619</ele>
        <time>2015-06-27T22:41:37Z</time>
      </trkpt>
      <trkpt lat="45.74084" lon="4.42371">
        <ele>629.54486</ele>
        <time>2015-06-27T22:41:42Z</time>
      </trkpt>
      <trkpt lat="45.74077" lon="4.42373">
        <ele>629.54486</ele>
        <time>2015-06-27T22:41:47Z</time>
      </trkpt>
      <trkpt lat="45.7407" lon="4.42374">
        <ele>629.44183</ele>
        <time>2015-06-27T22:41:52Z</time>
      </trkpt>
      <trkpt lat="45.74063" lon="4.42378">
        <ele>629.44183</ele>
        <time>2015-06-27T22:41:57Z</time>
      </trkpt>
      <trkpt lat="45.74057" lon="4.42381">
        <ele>629.22437</ele>
        <time>2015-06-27T22:42:02Z</time>
      </trkpt>
      <trkpt lat="45.74052" lon="4.42383">
        <ele>629.22437</ele>
        <time>2015-06-27T22:42:07Z</time>
      </trkpt>
      <trkpt lat="45.74044" lon="4.42388">
        <ele>628.916</ele>
        <time>2015-06-27T22:42:12Z</time>
      </trkpt>
      <trkpt lat="45.74037" lon="4.42389">
        <ele>628.916</ele>
        <time>2015-06-27T22:42:17Z</time>
      </trkpt>
      <trkpt lat="45.74032" lon="4.42391">
        <ele>628.52435</ele>
        <time>2015-06-27T22:42:22Z</time>
      </trkpt>
      <trkpt lat="45.74025" lon="4.42393">
        <ele>628.52435</ele>
        <time>2015-06-27T22:42:27Z</time>
      </trkpt>
      <trkpt lat="45.74018" lon="4.42397">
        <ele>628.0134</ele>
        <time>2015-06-27T22:42:32Z</time>
      </trkpt>
      <trkpt lat="45.74013" lon="4.42399">
        <ele>628.0134</ele>
        <time>2015-06-27T22:42:37Z</time>
      </trkpt>
      <trkpt lat="45.74005" lon="4.42402">
        <ele>627.37915</ele>
        <time>2015-06-27T22:42:42Z</time>
      </trkpt>
      <trkpt lat="45.73997" lon="4.42405">
        <ele>627.37915</ele>
        <time>2015-06-27T22:42:47Z</time>
      </trkpt>
      <trkpt lat="45.7399" lon="4.42408">
        <ele>626.66125</ele>
        <time>2015-06-27T22:42:52Z</time>
      </trkpt>
      <trkpt lat="45.73984" lon="4.42411">
        <ele>626.66125</ele>
        <time>2015-06-27T22:42:57Z</time>
      </trkpt>
      <trkpt lat="45.73978" lon="4.42413">
        <ele>625.8823</ele>
        <time>2015-06-27T22:43:02Z</time>
      </trkpt>
      <trkpt lat="45.73972" lon="4.42416">
        <ele>625.8823</ele>
        <time>2015-06-27T22:43:07Z</time>
      </trkpt>
      <trkpt lat="45.73966" lon="4.42419">
        <ele>624.9916</ele>
        <time>2015-06-27T22:43:12Z</time>
      </trkpt>
      <trkpt lat="45.73959" lon="4.42422">
        <ele>624.9916</ele>
        <time>2015-06-27T22:43:17Z</time>
      </trkpt>
      <trkpt lat="45.73951" lon="4.42423">
        <ele>623.9997</ele>
        <time>2015-06-27T22:43:22Z</time>
      </trkpt>
      <trkpt lat="45.73944" lon="4.42425">
        <ele>623.9997</ele>
        <time>2015-06-27T22:43:27Z</time>
      </trkpt>
      <trkpt lat="45.73938" lon="4.42428">
        <ele>622.9313</ele>
        <time>2015-06-27T22:43:32Z</time>
      </trkpt>
      <trkpt lat="45.7393" lon="4.42431">
        <ele>622.9313</ele>
        <time>2015-06-27T22:43:37Z</time>
      </trkpt>
      <trkpt lat="45.73922" lon="4.42433">
        <ele>621.76624</ele>
        <time>2015-06-27T22:43:42Z</time>
      </trkpt>
      <trkpt lat="45.73915" lon="4.42433">
        <ele>621.76624</ele>
        <time>2015-06-27T22:43:47Z</time>
      </trkpt>
      <trkpt lat="45.73908" lon="4.42434">
        <ele>620.54364</ele>
        <time>2015-06-27T22:43:52Z</time>
      </trkpt>
      <trkpt lat="45.73901" lon="4.42438">
        <ele>620.54364</ele>
        <time>2015-06-27T22:43:57Z</time>
      </trkpt>
      <trkpt lat="45.73894" lon="4.42439">
        <ele>619.25665</ele>
        <time>2015-06-27T22:44:02Z</time>
      </trkpt>
      <trkpt lat="45.73887" lon="4.42442">
        <ele>619.25665</ele>
        <time>2015-06-27T22:44:07Z</time>
      </trkpt>
      <trkpt lat="45.73881" lon="4.42443">
        <ele>617.9135</ele>
        <time>2015-06-27T22:44:12Z</time>
      </trkpt>
      <trkpt lat="45.73873" lon="4.42446">
        <ele>617.9135</ele>
        <time>2015-06-27T22:44:17Z</time>
      </trkpt>
      <trkpt lat="45.73865" lon="4.42449">
        <ele>616.47864</ele>
        <time>2015-06-27T22:44:22Z</time>
      </trkpt>
      <trkpt lat="45.73857" lon="4.4245">
        <ele>616.47864</ele>
        <time>2015-06-27T22:44:27Z</time>
      </trkpt>
      <trkpt lat="45.7385" lon="4.42454">
        <ele>615.0058</ele>
        <time>2015-06-27T22:44:32Z</time>
      </trkpt>
      <trkpt lat="45.73846" lon="4.42461">
        <ele>615.0058</ele>
        <time>2015-06-27T22:44:37Z</time>
      </trkpt>
      <trkpt lat="45.73841" lon="4.42472">
        <ele>613.4728</ele>
        <time>2015-06-27T22:44:42Z</time>
      </trkpt>
      <trkpt lat="45.73837" lon="4.42481">
        <ele>613.4728</ele>
        <time>2015-06-27T22:44:47Z</time>
      </trkpt>
      <trkpt lat="45.73832" lon="4.42489">
        <ele>611.84467</ele>
        <time>2015-06-27T22:44:52Z</time>
      </trkpt>
      <trkpt lat="45.7383" lon="4.42493">
        <ele>611.84467</ele>
        <time>2015-06-27T22:44:57Z</time>
      </trkpt>
      <trkpt lat="45.73826" lon="4.42503">
        <ele>610.23334</ele>
        <time>2015-06-27T22:45:02Z</time>
      </trkpt>
      <trkpt lat="45.73822" lon="4.42511">
        <ele>610.23334</ele>
        <time>2015-06-27T22:45:07Z</time>
      </trkpt>
      <trkpt lat="45.73817" lon="4.42515">
        <ele>608.56946</ele>
        <time>2015-06-27T22:45:12Z</time>
      </trkpt>
      <trkpt lat="45.73813" lon="4.42522">
        <ele>608.56946</ele>
        <time>2015-06-27T22:45:17Z</time>
      </trkpt>
      <trkpt lat="45.73805" lon="4.42528">
        <ele>606.83215</ele>
        <time>2015-06-27T22:45:22Z</time>
      </trkpt>
      <trkpt lat="45.73799" lon="4.42534">
        <ele>606.83215</ele>
        <time>2015-06-27T22:45:27Z</time>
      </trkpt>
      <trkpt lat="45.73793" lon="4.42537">
        <ele>605.1173</ele>
        <time>2015-06-27T22:45:32Z</time>
      </trkpt>
      <trkpt lat="45.73794" lon="4.42535">
        <ele>605.1173</ele>
        <time>2015-06-27T22:45:37Z</time>
      </trkpt>
      <trkpt lat="45.73784" lon="4.42535">
        <ele>603.45605</ele>
        <time>2015-06-27T22:45:42Z</time>
      </trkpt>
      <trkpt lat="45.73774" lon="4.42534">
        <ele>601.86255</ele>
        <time>2015-06-27T22:45:47Z</time>
      </trkpt>
      <trkpt lat="45.73767" lon="4.42535">
        <ele>601.86255</ele>
        <time>2015-06-27T22:45:52Z</time>
      </trkpt>
      <trkpt lat="45.73761" lon="4.42533">
        <ele>600.3064</ele>
        <time>2015-06-27T22:45:57Z</time>
      </trkpt>
      <trkpt lat="45.73754" lon="4.42528">
        <ele>600.3064</ele>
        <time>2015-06-27T22:46:02Z</time>
      </trkpt>
      <trkpt lat="45.73748" lon="4.42523">
        <ele>598.77356</ele>
        <time>2015-06-27T22:46:07Z</time>
      </trkpt>
      <trkpt lat="45.73742" lon="4.4252">
        <ele>598.77356</ele>
        <time>2015-06-27T22:46:12Z</time>
      </trkpt>
      <trkpt lat="45.73736" lon="4.42518">
        <ele>597.3807</ele>
        <time>2015-06-27T22:46:17Z</time>
      </trkpt>
      <trkpt lat="45.7373" lon="4.42515">
        <ele>597.3807</ele>
        <time>2015-06-27T22:46:22Z</time>
      </trkpt>
      <trkpt lat="45.73722" lon="4.42512">
        <ele>596.16315</ele>
        <time>2015-06-27T22:46:27Z</time>
      </trkpt>
      <trkpt lat="45.73716" lon="4.42509">
        <ele>596.16315</ele>
        <time>2015-06-27T22:46:32Z</time>
      </trkpt>
      <trkpt lat="45.73709" lon="4.42507">
        <ele>595.03784</ele>
        <time>2015-06-27T22:46:37Z</time>
      </trkpt>
      <trkpt lat="45.73702" lon="4.42505">
        <ele>595.03784</ele>
        <time>2015-06-27T22:46:42Z</time>
      </trkpt>
      <trkpt lat="45.73694" lon="4.42507">
        <ele>594.08606</ele>
        <time>2015-06-27T22:46:47Z</time>
      </trkpt>
      <trkpt lat="45.73689" lon="4.42509">
        <ele>594.08606</ele>
        <time>2015-06-27T22:46:52Z</time>
      </trkpt>
      <trkpt lat="45.73684" lon="4.42511">
        <ele>593.28156</ele>
        <time>2015-06-27T22:46:57Z</time>
      </trkpt>
      <trkpt lat="45.73679" lon="4.42512">
        <ele>593.28156</ele>
        <time>2015-06-27T22:47:02Z</time>
      </trkpt>
      <trkpt lat="45.73673" lon="4.42512">
        <ele>592.62823</ele>
        <time>2015-06-27T22:47:07Z</time>
      </trkpt>
      <trkpt lat="45.73666" lon="4.42512">
        <ele>592.62823</ele>
        <time>2015-06-27T22:47:12Z</time>
      </trkpt>
      <trkpt lat="45.7366" lon="4.42512">
        <ele>592.1006</ele>
        <time>2015-06-27T22:47:17Z</time>
      </trkpt>
      <trkpt lat="45.73655" lon="4.42512">
        <ele>592.1006</ele>
        <time>2015-06-27T22:47:22Z</time>
      </trkpt>
      <trkpt lat="45.7365" lon="4.42511">
        <ele>591.76086</ele>
        <time>2015-06-27T22:47:27Z</time>
      </trkpt>
      <trkpt lat="45.73645" lon="4.4251">
        <ele>591.76086</ele>
        <time>2015-06-27T22:47:32Z</time>
      </trkpt>
      <trkpt lat="45.7364" lon="4.42509">
        <ele>591.60846</ele>
        <time>2015-06-27T22:47:37Z</time>
      </trkpt>
      <trkpt lat="45.73634" lon="4.42509">
        <ele>591.60846</ele>
        <time>2015-06-27T22:47:42Z</time>
      </trkpt>
      <trkpt lat="45.73629" lon="4.42506">
        <ele>591.77203</ele>
        <time>2015-06-27T22:47:47Z</time>
      </trkpt>
      <trkpt lat="45.73628" lon="4.42504">
        <ele>591.77203</ele>
        <time>2015-06-27T22:47:52Z</time>
      </trkpt>
      <trkpt lat="45.73627" lon="4.42503">
        <ele>591.77203</ele>
        <time>2015-06-27T22:47:57Z</time>
      </trkpt>
      <trkpt lat="45.73628" lon="4.425">
        <ele>591.77203</ele>
        <time>2015-06-27T22:48:02Z</time>
      </trkpt>
      <trkpt lat="45.73628" lon="4.42501">
        <ele>591.77203</ele>
        <time>2015-06-27T22:48:07Z</time>
      </trkpt>
      <trkpt lat="45.73629" lon="4.425">
        <ele>591.77203</ele>
        <time>2015-06-27T22:48:12Z</time>
      </trkpt>
      <trkpt lat="45.73629" lon="4.425">
        <ele>591.77203</ele>
        <time>2015-06-27T22:48:17Z</time>
      </trkpt>
      <trkpt lat="45.73628" lon="4.425">
        <ele>591.77203</ele>
        <time>2015-06-27T22:48:22Z</time>
      </trkpt>
      <trkpt lat="45.73628" lon="4.42501">
        <ele>591.77203</ele>
        <time>2015-06-27T22:48:27Z</time>
      </trkpt>
      <trkpt lat="45.73628" lon="4.42501">
        <ele>591.77203</ele>
        <time>2015-06-27T22:48:32Z</time>
      </trkpt>
      <trkpt lat="45.73629" lon="4.42502">
        <ele>592.38416</ele>
        <time>2015-06-27T22:48:37Z</time>
      </trkpt>
      <trkpt lat="45.73628" lon="4.42502">
        <ele>592.38416</ele>
        <time>2015-06-27T22:48:42Z</time>
      </trkpt>
      <trkpt lat="45.73628" lon="4.42502">
        <ele>592.38416</ele>
        <time>2015-06-27T22:48:47Z</time>
      </trkpt>
      <trkpt lat="45.73627" lon="4.42502">
        <ele>592.38416</ele>
        <time>2015-06-27T22:48:52Z</time>
      </trkpt>
      <trkpt lat="45.73623" lon="4.425">
        <ele>592.38416</ele>
        <time>2015-06-27T22:48:57Z</time>
      </trkpt>
      <trkpt lat="45.73618" lon="4.42501">
        <ele>593.07654</ele>
        <time>2015-06-27T22:49:02Z</time>
      </trkpt>
      <trkpt lat="45.73616" lon="4.42503">
        <ele>593.07654</ele>
        <time>2015-06-27T22:49:07Z</time>
      </trkpt>
      <trkpt lat="45.73609" lon="4.425">
        <ele>593.9542</ele>
        <time>2015-06-27T22:49:12Z</time>
      </trkpt>
      <trkpt lat="45.73603" lon="4.425">
        <ele>593.9542</ele>
        <time>2015-06-27T22:49:17Z</time>
      </trkpt>
      <trkpt lat="45.73602" lon="4.42497">
        <ele>593.9542</ele>
        <time>2015-06-27T22:49:22Z</time>
      </trkpt>
      <trkpt lat="45.73603" lon="4.42497">
        <ele>594.94116</ele>
        <time>2015-06-27T22:49:27Z</time>
      </trkpt>
      <trkpt lat="45.73598" lon="4.42501">
        <ele>594.94116</ele>
        <time>2015-06-27T22:49:32Z</time>
      </trkpt>
      <trkpt lat="45.73592" lon="4.42503">
        <ele>596.03876</ele>
        <time>2015-06-27T22:49:37Z</time>
      </trkpt>
      <trkpt lat="45.73585" lon="4.42504">
        <ele>596.03876</ele>
        <time>2015-06-27T22:49:42Z</time>
      </trkpt>
      <trkpt lat="45.73579" lon="4.42505">
        <ele>597.21906</ele>
        <time>2015-06-27T22:49:47Z</time>
      </trkpt>
      <trkpt lat="45.73571" lon="4.425">
        <ele>598.47034</ele>
        <time>2015-06-27T22:49:52Z</time>
      </trkpt>
      <trkpt lat="45.73564" lon="4.42493">
        <ele>598.47034</ele>
        <time>2015-06-27T22:49:57Z</time>
      </trkpt>
      <trkpt lat="45.73557" lon="4.42489">
        <ele>599.83936</ele>
        <time>2015-06-27T22:50:02Z</time>
      </trkpt>
      <trkpt lat="45.7355" lon="4.42484">
        <ele>599.83936</ele>
        <time>2015-06-27T22:50:07Z</time>
      </trkpt>
      <trkpt lat="45.73543" lon="4.42482">
        <ele>601.2826</ele>
        <time>2015-06-27T22:50:12Z</time>
      </trkpt>
      <trkpt lat="45.73537" lon="4.42479">
        <ele>601.2826</ele>
        <time>2015-06-27T22:50:17Z</time>
      </trkpt>
      <trkpt lat="45.73528" lon="4.42476">
        <ele>602.7885</ele>
        <time>2015-06-27T22:50:22Z</time>
      </trkpt>
      <trkpt lat="45.73525" lon="4.42475">
        <ele>602.7885</ele>
        <time>2015-06-27T22:50:27Z</time>
      </trkpt>
      <trkpt lat="45.73518" lon="4.42474">
        <ele>604.303</ele>
        <time>2015-06-27T22:50:32Z</time>
      </trkpt>
      <trkpt lat="45.73512" lon="4.42471">
        <ele>604.303</ele>
        <time>2015-06-27T22:50:37Z</time>
      </trkpt>
      <trkpt lat="45.73505" lon="4.4247">
        <ele>605.8193</ele>
        <time>2015-06-27T22:50:42Z</time>
      </trkpt>
      <trkpt lat="45.73498" lon="4.42469">
        <ele>605.8193</ele>
        <time>2015-06-27T22:50:47Z</time>
      </trkpt>
      <trkpt lat="45.73488" lon="4.42468">
        <ele>607.36005</ele>
        <time>2015-06-27T22:50:52Z</time>
      </trkpt>
      <trkpt lat="45.73482" lon="4.42469">
        <ele>607.36005</ele>
        <time>2015-06-27T22:50:57Z</time>
      </trkpt>
      <trkpt lat="45.73475" lon="4.42467">
        <ele>608.90295</ele>
        <time>2015-06-27T22:51:02Z</time>
      </trkpt>
      <trkpt lat="45.73467" lon="4.42467">
        <ele>608.90295</ele>
        <time>2015-06-27T22:51:07Z</time>
      </trkpt>
      <trkpt lat="45.7346" lon="4.42467">
        <ele>610.42773</ele>
        <time>2015-06-27T22:51:12Z</time>
      </trkpt>
      <trkpt lat="45.73452" lon="4.42465">
        <ele>610.42773</ele>
        <time>2015-06-27T22:51:17Z</time>
      </trkpt>
      <trkpt lat="45.73445" lon="4.42464">
        <ele>611.9587</ele>
        <time>2015-06-27T22:51:22Z</time>
      </trkpt>
      <trkpt lat="45.73437" lon="4.42462">
        <ele>611.9587</ele>
        <time>2015-06-27T22:51:27Z</time>
      </trkpt>
      <trkpt lat="45.7343" lon="4.42463">
        <ele>613.461</ele>
        <time>2015-06-27T22:51:32Z</time>
      </trkpt>
      <trkpt lat="45.73421" lon="4.42462">
        <ele>613.461</ele>
        <time>2015-06-27T22:51:37Z</time>
      </trkpt>
      <trkpt lat="45.73412" lon="4.42463">
        <ele>614.9604</ele>
        <time>2015-06-27T22:51:42Z</time>
      </trkpt>
      <trkpt lat="45.73406" lon="4.42462">
        <ele>614.9604</ele>
        <time>2015-06-27T22:51:47Z</time>
      </trkpt>
      <trkpt lat="45.73399" lon="4.42461">
        <ele>616.3508</ele>
        <time>2015-06-27T22:51:52Z</time>
      </trkpt>
      <trkpt lat="45.73394" lon="4.42461">
        <ele>616.3508</ele>
        <time>2015-06-27T22:51:57Z</time>
      </trkpt>
      <trkpt lat="45.73391" lon="4.42461">
        <ele>616.3508</ele>
        <time>2015-06-27T22:52:02Z</time>
      </trkpt>
      <trkpt lat="45.73383" lon="4.42464">
        <ele>617.59247</ele>
        <time>2015-06-27T22:52:07Z</time>
      </trkpt>
      <trkpt lat="45.73376" lon="4.42466">
        <ele>617.59247</ele>
        <time>2015-06-27T22:52:12Z</time>
      </trkpt>
      <trkpt lat="45.73368" lon="4.42468">
        <ele>618.67773</ele>
        <time>2015-06-27T22:52:17Z</time>
      </trkpt>
      <trkpt lat="45.7336" lon="4.42472">
        <ele>618.67773</ele>
        <time>2015-06-27T22:52:22Z</time>
      </trkpt>
      <trkpt lat="45.73354" lon="4.42479">
        <ele>619.58563</ele>
        <time>2015-06-27T22:52:27Z</time>
      </trkpt>
      <trkpt lat="45.73347" lon="4.42484">
        <ele>619.58563</ele>
        <time>2015-06-27T22:52:32Z</time>
      </trkpt>
      <trkpt lat="45.73341" lon="4.42486">
        <ele>620.38403</ele>
        <time>2015-06-27T22:52:37Z</time>
      </trkpt>
      <trkpt lat="45.73335" lon="4.42491">
        <ele>620.38403</ele>
        <time>2015-06-27T22:52:42Z</time>
      </trkpt>
      <trkpt lat="45.73334" lon="4.42492">
        <ele>620.38403</ele>
        <time>2015-06-27T22:52:47Z</time>
      </trkpt>
      <trkpt lat="45.73333" lon="4.42493">
        <ele>621.06415</ele>
        <time>2015-06-27T22:52:52Z</time>
      </trkpt>
      <trkpt lat="45.73333" lon="4.42492">
        <ele>621.06415</ele>
        <time>2015-06-27T22:52:57Z</time>
      </trkpt>
      <trkpt lat="45.73333" lon="4.42491">
        <ele>621.06415</ele>
        <time>2015-06-27T22:53:02Z</time>
      </trkpt>
      <trkpt lat="45.73333" lon="4.42491">
        <ele>621.06415</ele>
        <time>2015-06-27T22:53:07Z</time>
      </trkpt>
      <trkpt lat="45.73333" lon="4.42494">
        <ele>621.06415</ele>
        <time>2015-06-27T22:53:12Z</time>
      </trkpt>
      <trkpt lat="45.73333" lon="4.425">
        <ele>621.06415</ele>
        <time>2015-06-27T22:53:17Z</time>
      </trkpt>
      <trkpt lat="45.73334" lon="4.42508">
        <ele>621.6903</ele>
        <time>2015-06-27T22:53:22Z</time>
      </trkpt>
      <trkpt lat="45.73336" lon="4.42518">
        <ele>621.6903</ele>
        <time>2015-06-27T22:53:27Z</time>
      </trkpt>
      <trkpt lat="45.7334" lon="4.42525">
        <ele>622.2361</ele>
        <time>2015-06-27T22:53:32Z</time>
      </trkpt>
      <trkpt lat="45.73345" lon="4.42534">
        <ele>622.2361</ele>
        <time>2015-06-27T22:53:37Z</time>
      </trkpt>
      <trkpt lat="45.73349" lon="4.42543">
        <ele>622.74927</ele>
        <time>2015-06-27T22:53:42Z</time>
      </trkpt>
      <trkpt lat="45.73352" lon="4.42553">
        <ele>622.74927</ele>
        <time>2015-06-27T22:53:47Z</time>
      </trkpt>
      <trkpt lat="45.73356" lon="4.42562">
        <ele>623.1592</ele>
        <time>2015-06-27T22:53:52Z</time>
      </trkpt>
      <trkpt lat="45.73351" lon="4.42571">
        <ele>623.1592</ele>
        <time>2015-06-27T22:53:57Z</time>
      </trkpt>
      <trkpt lat="45.73344" lon="4.42576">
        <ele>623.4583</ele>
        <time>2015-06-27T22:54:02Z</time>
      </trkpt>
      <trkpt lat="45.73337" lon="4.42582">
        <ele>623.4583</ele>
        <time>2015-06-27T22:54:07Z</time>
      </trkpt>
      <trkpt lat="45.73329" lon="4.42587">
        <ele>623.66907</ele>
        <time>2015-06-27T22:54:12Z</time>
      </trkpt>
      <trkpt lat="45.73321" lon="4.42593">
        <ele>623.78357</ele>
        <time>2015-06-27T22:54:17Z</time>
      </trkpt>
      <trkpt lat="45.73315" lon="4.426">
        <ele>623.78357</ele>
        <time>2015-06-27T22:54:22Z</time>
      </trkpt>
      <trkpt lat="45.73314" lon="4.42607">
        <ele>623.7951</ele>
        <time>2015-06-27T22:54:27Z</time>
      </trkpt>
      <trkpt lat="45.73313" lon="4.42614">
        <ele>623.7951</ele>
        <time>2015-06-27T22:54:32Z</time>
      </trkpt>
      <trkpt lat="45.73315" lon="4.42614">
        <ele>623.7951</ele>
        <time>2015-06-27T22:54:37Z</time>
      </trkpt>
      <trkpt lat="45.73316" lon="4.42613">
        <ele>623.7951</ele>
        <time>2015-06-27T22:54:42Z</time>
      </trkpt>
      <trkpt lat="45.73315" lon="4.42612">
        <ele>623.7951</ele>
        <time>2015-06-27T22:54:47Z</time>
      </trkpt>
      <trkpt lat="45.73316" lon="4.42612">
        <ele>623.6688</ele>
        <time>2015-06-27T22:54:52Z</time>
      </trkpt>
      <trkpt lat="45.73316" lon="4.42614">
        <ele>623.6688</ele>
        <time>2015-06-27T22:54:57Z</time>
      </trkpt>
      <trkpt lat="45.73316" lon="4.42613">
        <ele>623.6688</ele>
        <time>2015-06-27T22:55:02Z</time>
      </trkpt>
      <trkpt lat="45.73317" lon="4.42614">
        <ele>623.6688</ele>
        <time>2015-06-27T22:55:07Z</time>
      </trkpt>
      <trkpt lat="45.73318" lon="4.42616">
        <ele>623.6688</ele>
        <time>2015-06-27T22:55:12Z</time>
      </trkpt>
      <trkpt lat="45.73321" lon="4.42619">
        <ele>623.6688</ele>
        <time>2015-06-27T22:55:17Z</time>
      </trkpt>
      <trkpt lat="45.73322" lon="4.42621">
        <ele>623.3586</ele>
        <time>2015-06-27T22:55:22Z</time>
      </trkpt>
      <trkpt lat="45.73322" lon="4.42622">
        <ele>623.3586</ele>
        <time>2015-06-27T22:55:27Z</time>
      </trkpt>
      <trkpt lat="45.7332" lon="4.42623">
        <ele>623.3586</ele>
        <time>2015-06-27T22:55:32Z</time>
      </trkpt>
      <trkpt lat="45.7332" lon="4.42624">
        <ele>623.3586</ele>
        <time>2015-06-27T22:55:37Z</time>
      </trkpt>
      <trkpt lat="45.73321" lon="4.42624">
        <ele>623.3586</ele>
        <time>2015-06-27T22:55:42Z</time>
      </trkpt>
      <trkpt lat="45.73322" lon="4.42624">
        <ele>623.3586</ele>
        <time>2015-06-27T22:55:47Z</time>
      </trkpt>
      <trkpt lat="45.73323" lon="4.42625">
        <ele>623.3586</ele>
        <time>2015-06-27T22:55:52Z</time>
      </trkpt>
      <trkpt lat="45.73324" lon="4.42626">
        <ele>623.3586</ele>
        <time>2015-06-27T22:55:57Z</time>
      </trkpt>
      <trkpt lat="45.73324" lon="4.42626">
        <ele>623.3586</ele>
        <time>2015-06-27T22:56:02Z</time>
      </trkpt>
      <trkpt lat="45.73325" lon="4.42625">
        <ele>623.3586</ele>
        <time>2015-06-27T22:56:07Z</time>
      </trkpt>
      <trkpt lat="45.73325" lon="4.42626">
        <ele>623.3586</ele>
        <time>2015-06-27T22:56:12Z</time>
      </trkpt>
      <trkpt lat="45.73327" lon="4.42628">
        <ele>622.9807</ele>
        <time>2015-06-27T22:56:17Z</time>
      </trkpt>
      <trkpt lat="45.73326" lon="4.42629">
        <ele>622.9807</ele>
        <time>2015-06-27T22:56:22Z</time>
      </trkpt>
      <trkpt lat="45.73326" lon="4.4263">
        <ele>622.9807</ele>
        <time>2015-06-27T22:56:27Z</time>
      </trkpt>
      <trkpt lat="45.73326" lon="4.4263">
        <ele>622.9807</ele>
        <time>2015-06-27T22:56:32Z</time>
      </trkpt>
      <trkpt lat="45.73327" lon="4.4263">
        <ele>622.9807</ele>
        <time>2015-06-27T22:56:37Z</time>
      </trkpt>
      <trkpt lat="45.73328" lon="4.42631">
        <ele>622.9807</ele>
        <time>2015-06-27T22:56:42Z</time>
      </trkpt>
      <trkpt lat="45.73327" lon="4.42633">
        <ele>622.9807</ele>
        <time>2015-06-27T22:56:47Z</time>
      </trkpt>
      <trkpt lat="45.73328" lon="4.4264">
        <ele>622.6</ele>
        <time>2015-06-27T22:56:52Z</time>
      </trkpt>
      <trkpt lat="45.73328" lon="4.42643">
        <ele>622.6</ele>
        <time>2015-06-27T22:56:57Z</time>
      </trkpt>
      <trkpt lat="45.73329" lon="4.42643">
        <ele>622.6</ele>
        <time>2015-06-27T22:57:02Z</time>
      </trkpt>
      <trkpt lat="45.73329" lon="4.42643">
        <ele>622.6</ele>
        <time>2015-06-27T22:57:07Z</time>
      </trkpt>
      <trkpt lat="45.73329" lon="4.42643">
        <ele>622.6</ele>
        <time>2015-06-27T22:57:12Z</time>
      </trkpt>
      <trkpt lat="45.73329" lon="4.42642">
        <ele>622.6</ele>
        <time>2015-06-27T22:57:17Z</time>
      </trkpt>
      <trkpt lat="45.73331" lon="4.42643">
        <ele>622.6</ele>
        <time>2015-06-27T22:57:22Z</time>
      </trkpt>
      <trkpt lat="45.73331" lon="4.42643">
        <ele>622.6</ele>
        <time>2015-06-27T22:57:27Z</time>
      </trkpt>
      <trkpt lat="45.73332" lon="4.42646">
        <ele>622.6</ele>
        <time>2015-06-27T22:57:32Z</time>
      </trkpt>
      <trkpt lat="45.73331" lon="4.42647">
        <ele>622.0748</ele>
        <time>2015-06-27T22:57:37Z</time>
      </trkpt>
      <trkpt lat="45.73331" lon="4.42647">
        <ele>622.0748</ele>
        <time>2015-06-27T22:57:42Z</time>
      </trkpt>
      <trkpt lat="45.73331" lon="4.42648">
        <ele>622.0748</ele>
        <time>2015-06-27T22:57:47Z</time>
      </trkpt>
      <trkpt lat="45.73331" lon="4.42648">
        <ele>622.0748</ele>
        <time>2015-06-27T22:57:52Z</time>
      </trkpt>
      <trkpt lat="45.7333" lon="4.42648">
        <ele>622.0748</ele>
        <time>2015-06-27T22:57:57Z</time>
      </trkpt>
      <trkpt lat="45.73329" lon="4.42649">
        <ele>622.0748</ele>
        <time>2015-06-27T22:58:02Z</time>
      </trkpt>
      <trkpt lat="45.73324" lon="4.4265">
        <ele>622.0748</ele>
        <time>2015-06-27T22:58:07Z</time>
      </trkpt>
      <trkpt lat="45.73322" lon="4.42655">
        <ele>621.6203</ele>
        <time>2015-06-27T22:58:12Z</time>
      </trkpt>
      <trkpt lat="45.7332" lon="4.42654">
        <ele>621.6203</ele>
        <time>2015-06-27T22:58:17Z</time>
      </trkpt>
      <trkpt lat="45.73319" lon="4.42653">
        <ele>621.6203</ele>
        <time>2015-06-27T22:58:22Z</time>
      </trkpt>
      <trkpt lat="45.73319" lon="4.42654">
        <ele>621.6203</ele>
        <time>2015-06-27T22:58:27Z</time>
      </trkpt>
      <trkpt lat="45.7332" lon="4.42654">
        <ele>621.6203</ele>
        <time>2015-06-27T22:58:32Z</time>
      </trkpt>
      <trkpt lat="45.73318" lon="4.42658">
        <ele>621.07513</ele>
        <time>2015-06-27T22:58:37Z</time>
      </trkpt>
      <trkpt lat="45.73318" lon="4.42659">
        <ele>621.07513</ele>
        <time>2015-06-27T22:58:42Z</time>
      </trkpt>
      <trkpt lat="45.73317" lon="4.42659">
        <ele>621.07513</ele>
        <time>2015-06-27T22:58:47Z</time>
      </trkpt>
      <trkpt lat="45.73318" lon="4.42659">
        <ele>621.07513</ele>
        <time>2015-06-27T22:58:52Z</time>
      </trkpt>
      <trkpt lat="45.73318" lon="4.42657">
        <ele>621.07513</ele>
        <time>2015-06-27T22:58:57Z</time>
      </trkpt>
      <trkpt lat="45.73318" lon="4.42659">
        <ele>621.07513</ele>
        <time>2015-06-27T22:59:02Z</time>
      </trkpt>
      <trkpt lat="45.73318" lon="4.4266">
        <ele>621.07513</ele>
        <time>2015-06-27T22:59:07Z</time>
      </trkpt>
      <trkpt lat="45.73318" lon="4.42661">
        <ele>621.07513</ele>
        <time>2015-06-27T22:59:12Z</time>
      </trkpt>
      <trkpt lat="45.73318" lon="4.4266">
        <ele>621.07513</ele>
        <time>2015-06-27T22:59:17Z</time>
      </trkpt>
      <trkpt lat="45.73318" lon="4.42661">
        <ele>621.07513</ele>
        <time>2015-06-27T22:59:22Z</time>
      </trkpt>
      <trkpt lat="45.73318" lon="4.42661">
        <ele>621.07513</ele>
        <time>2015-06-27T22:59:27Z</time>
      </trkpt>
      <trkpt lat="45.73318" lon="4.42661">
        <ele>621.07513</ele>
        <time>2015-06-27T22:59:32Z</time>
      </trkpt>
      <trkpt lat="45.73318" lon="4.4266">
        <ele>621.07513</ele>
        <time>2015-06-27T22:59:37Z</time>
      </trkpt>
      <trkpt lat="45.73318" lon="4.4266">
        <ele>621.07513</ele>
        <time>2015-06-27T22:59:42Z</time>
      </trkpt>
      <trkpt lat="45.73318" lon="4.4266">
        <ele>621.07513</ele>
        <time>2015-06-27T22:59:47Z</time>
      </trkpt>
      <trkpt lat="45.73319" lon="4.42659">
        <ele>621.07513</ele>
        <time>2015-06-27T22:59:52Z</time>
      </trkpt>
      <trkpt lat="45.73319" lon="4.42659">
        <ele>621.07513</ele>
        <time>2015-06-27T22:59:57Z</time>
      </trkpt>
      <trkpt lat="45.73319" lon="4.42659">
        <ele>621.07513</ele>
        <time>2015-06-27T23:00:02Z</time>
      </trkpt>
      <trkpt lat="45.73319" lon="4.42659">
        <ele>621.07513</ele>
        <time>2015-06-27T23:00:07Z</time>
      </trkpt>
      <trkpt lat="45.73319" lon="4.4266">
        <ele>621.07513</ele>
        <time>2015-06-27T23:00:12Z</time>
      </trkpt>
      <trkpt lat="45.73319" lon="4.4266">
        <ele>621.07513</ele>
        <time>2015-06-27T23:00:17Z</time>
      </trkpt>
      <trkpt lat="45.73318" lon="4.4266">
        <ele>621.07513</ele>
        <time>2015-06-27T23:00:22Z</time>
      </trkpt>
      <trkpt lat="45.73318" lon="4.4266">
        <ele>621.07513</ele>
        <time>2015-06-27T23:00:27Z</time>
      </trkpt>
      <trkpt lat="45.73318" lon="4.4266">
        <ele>621.07513</ele>
        <time>2015-06-27T23:00:32Z</time>
      </trkpt>
      <trkpt lat="45.73317" lon="4.4266">
        <ele>620.37683</ele>
        <time>2015-06-27T23:00:37Z</time>
      </trkpt>
      <trkpt lat="45.73317" lon="4.4266">
        <ele>620.37683</ele>
        <time>2015-06-27T23:00:42Z</time>
      </trkpt>
      <trkpt lat="45.73317" lon="4.4266">
        <ele>620.37683</ele>
        <time>2015-06-27T23:00:47Z</time>
      </trkpt>
      <trkpt lat="45.73317" lon="4.4266">
        <ele>620.37683</ele>
        <time>2015-06-27T23:00:52Z</time>
      </trkpt>
      <trkpt lat="45.73317" lon="4.4266">
        <ele>620.37683</ele>
        <time>2015-06-27T23:00:57Z</time>
      </trkpt>
      <trkpt lat="45.73318" lon="4.42661">
        <ele>620.37683</ele>
        <time>2015-06-27T23:01:02Z</time>
      </trkpt>
      <trkpt lat="45.73318" lon="4.42661">
        <ele>620.37683</ele>
        <time>2015-06-27T23:01:07Z</time>
      </trkpt>
      <trkpt lat="45.73318" lon="4.42661">
        <ele>620.37683</ele>
        <time>2015-06-27T23:01:12Z</time>
      </trkpt>
      <trkpt lat="45.73318" lon="4.42661">
        <ele>620.37683</ele>
        <time>2015-06-27T23:01:17Z</time>
      </trkpt>
      <trkpt lat="45.73318" lon="4.42661">
        <ele>620.37683</ele>
        <time>2015-06-27T23:01:22Z</time>
      </trkpt>
      <trkpt lat="45.73319" lon="4.4266">
        <ele>620.37683</ele>
        <time>2015-06-27T23:01:27Z</time>
      </trkpt>
      <trkpt lat="45.73319" lon="4.42659">
        <ele>620.37683</ele>
        <time>2015-06-27T23:01:32Z</time>
      </trkpt>
      <trkpt lat="45.73319" lon="4.42659">
        <ele>620.37683</ele>
        <time>2015-06-27T23:01:37Z</time>
      </trkpt>
      <trkpt lat="45.73319" lon="4.42658">
        <ele>620.37683</ele>
        <time>2015-06-27T23:01:42Z</time>
      </trkpt>
      <trkpt lat="45.73319" lon="4.42658">
        <ele>620.37683</ele>
        <time>2015-06-27T23:01:47Z</time>
      </trkpt>
      <trkpt lat="45.73319" lon="4.42658">
        <ele>620.37683</ele>
        <time>2015-06-27T23:01:52Z</time>
      </trkpt>
      <trkpt lat="45.73319" lon="4.42658">
        <ele>620.37683</ele>
        <time>2015-06-27T23:01:57Z</time>
      </trkpt>
      <trkpt lat="45.7332" lon="4.42659">
        <ele>620.37683</ele>
        <time>2015-06-27T23:02:02Z</time>
      </trkpt>
      <trkpt lat="45.73319" lon="4.42659">
        <ele>620.37683</ele>
        <time>2015-06-27T23:02:07Z</time>
      </trkpt>
      <trkpt lat="45.73319" lon="4.42659">
        <ele>620.37683</ele>
        <time>2015-06-27T23:02:12Z</time>
      </trkpt>
      <trkpt lat="45.73319" lon="4.42659">
        <ele>620.37683</ele>
        <time>2015-06-27T23:02:17Z</time>
      </trkpt>
      <trkpt lat="45.73318" lon="4.42659">
        <ele>620.37683</ele>
        <time>2015-06-27T23:02:22Z</time>
      </trkpt>
      <trkpt lat="45.73319" lon="4.42657">
        <ele>620.37683</ele>
        <time>2015-06-27T23:02:27Z</time>
      </trkpt>
      <trkpt lat="45.73319" lon="4.42658">
        <ele>620.37683</ele>
        <time>2015-06-27T23:02:32Z</time>
      </trkpt>
      <trkpt lat="45.73319" lon="4.42658">
        <ele>620.37683</ele>
        <time>2015-06-27T23:02:37Z</time>
      </trkpt>
      <trkpt lat="45.73319" lon="4.42658">
        <ele>620.37683</ele>
        <time>2015-06-27T23:02:42Z</time>
      </trkpt>
      <trkpt lat="45.73319" lon="4.42658">
        <ele>619.6983</ele>
        <time>2015-06-27T23:02:47Z</time>
      </trkpt>
      <trkpt lat="45.73319" lon="4.42658">
        <ele>619.6983</ele>
        <time>2015-06-27T23:02:52Z</time>
      </trkpt>
      <trkpt lat="45.7332" lon="4.42658">
        <ele>619.6983</ele>
        <time>2015-06-27T23:02:57Z</time>
      </trkpt>
      <trkpt lat="45.7332" lon="4.42659">
        <ele>619.6983</ele>
        <time>2015-06-27T23:03:02Z</time>
      </trkpt>
      <trkpt lat="45.7332" lon="4.42659">
        <ele>619.6983</ele>
        <time>2015-06-27T23:03:07Z</time>
      </trkpt>
      <trkpt lat="45.7332" lon="4.42659">
        <ele>619.6983</ele>
        <time>2015-06-27T23:03:12Z</time>
      </trkpt>
      <trkpt lat="45.7332" lon="4.42658">
        <ele>619.6983</ele>
        <time>2015-06-27T23:03:17Z</time>
      </trkpt>
      <trkpt lat="45.73319" lon="4.42658">
        <ele>619.6983</ele>
        <time>2015-06-27T23:03:22Z</time>
      </trkpt>
      <trkpt lat="45.73319" lon="4.42658">
        <ele>619.6983</ele>
        <time>2015-06-27T23:03:27Z</time>
      </trkpt>
      <trkpt lat="45.73319" lon="4.42658">
        <ele>619.6983</ele>
        <time>2015-06-27T23:03:32Z</time>
      </trkpt>
      <trkpt lat="45.73319" lon="4.42658">
        <ele>619.6983</ele>
        <time>2015-06-27T23:03:37Z</time>
      </trkpt>
      <trkpt lat="45.73319" lon="4.42659">
        <ele>619.6983</ele>
        <time>2015-06-27T23:03:42Z</time>
      </trkpt>
      <trkpt lat="45.73319" lon="4.42659">
        <ele>619.6983</ele>
        <time>2015-06-27T23:03:47Z</time>
      </trkpt>
      <trkpt lat="45.7332" lon="4.42659">
        <ele>619.6983</ele>
        <time>2015-06-27T23:03:52Z</time>
      </trkpt>
      <trkpt lat="45.73319" lon="4.42659">
        <ele>619.6983</ele>
        <time>2015-06-27T23:03:57Z</time>
      </trkpt>
      <trkpt lat="45.73319" lon="4.42659">
        <ele>619.6983</ele>
        <time>2015-06-27T23:04:02Z</time>
      </trkpt>
      <trkpt lat="45.73319" lon="4.42659">
        <ele>619.6983</ele>
        <time>2015-06-27T23:04:07Z</time>
      </trkpt>
      <trkpt lat="45.73319" lon="4.42659">
        <ele>619.6983</ele>
        <time>2015-06-27T23:04:12Z</time>
      </trkpt>
      <trkpt lat="45.73319" lon="4.4266">
        <ele>619.6983</ele>
        <time>2015-06-27T23:04:17Z</time>
      </trkpt>
      <trkpt lat="45.7332" lon="4.4266">
        <ele>619.6983</ele>
        <time>2015-06-27T23:04:22Z</time>
      </trkpt>
      <trkpt lat="45.7332" lon="4.4266">
        <ele>619.6983</ele>
        <time>2015-06-27T23:04:27Z</time>
      </trkpt>
      <trkpt lat="45.7332" lon="4.4266">
        <ele>619.6983</ele>
        <time>2015-06-27T23:04:32Z</time>
      </trkpt>
      <trkpt lat="45.7332" lon="4.4266">
        <ele>619.6983</ele>
        <time>2015-06-27T23:04:37Z</time>
      </trkpt>
      <trkpt lat="45.7332" lon="4.42661">
        <ele>619.6983</ele>
        <time>2015-06-27T23:04:42Z</time>
      </trkpt>
      <trkpt lat="45.73321" lon="4.4266">
        <ele>619.6983</ele>
        <time>2015-06-27T23:04:47Z</time>
      </trkpt>
      <trkpt lat="45.7332" lon="4.4266">
        <ele>619.6983</ele>
        <time>2015-06-27T23:04:52Z</time>
      </trkpt>
      <trkpt lat="45.7332" lon="4.4266">
        <ele>619.6983</ele>
        <time>2015-06-27T23:04:57Z</time>
      </trkpt>
      <trkpt lat="45.7332" lon="4.4266">
        <ele>619.6983</ele>
        <time>2015-06-27T23:05:02Z</time>
      </trkpt>
      <trkpt lat="45.7332" lon="4.42659">
        <ele>619.6983</ele>
        <time>2015-06-27T23:05:07Z</time>
      </trkpt>
      <trkpt lat="45.7332" lon="4.42659">
        <ele>619.6983</ele>
        <time>2015-06-27T23:05:12Z</time>
      </trkpt>
      <trkpt lat="45.7332" lon="4.42659">
        <ele>619.6983</ele>
        <time>2015-06-27T23:05:17Z</time>
      </trkpt>
      <trkpt lat="45.7332" lon="4.42659">
        <ele>619.6983</ele>
        <time>2015-06-27T23:05:22Z</time>
      </trkpt>
      <trkpt lat="45.7332" lon="4.4266">
        <ele>619.6983</ele>
        <time>2015-06-27T23:05:27Z</time>
      </trkpt>
      <trkpt lat="45.7332" lon="4.4266">
        <ele>619.6983</ele>
        <time>2015-06-27T23:05:32Z</time>
      </trkpt>
      <trkpt lat="45.7332" lon="4.42661">
        <ele>619.6983</ele>
        <time>2015-06-27T23:05:37Z</time>
      </trkpt>
      <trkpt lat="45.7332" lon="4.42661">
        <ele>618.8973</ele>
        <time>2015-06-27T23:05:42Z</time>
      </trkpt>
      <trkpt lat="45.7332" lon="4.42661">
        <ele>618.8973</ele>
        <time>2015-06-27T23:05:47Z</time>
      </trkpt>
      <trkpt lat="45.73319" lon="4.4266">
        <ele>618.8973</ele>
        <time>2015-06-27T23:05:52Z</time>
      </trkpt>
      <trkpt lat="45.73319" lon="4.4266">
        <ele>618.8973</ele>
        <time>2015-06-27T23:05:57Z</time>
      </trkpt>
      <trkpt lat="45.73318" lon="4.4266">
        <ele>618.8973</ele>
        <time>2015-06-27T23:06:02Z</time>
      </trkpt>
      <trkpt lat="45.73318" lon="4.4266">
        <ele>618.8973</ele>
        <time>2015-06-27T23:06:07Z</time>
      </trkpt>
      <trkpt lat="45.73318" lon="4.4266">
        <ele>618.8973</ele>
        <time>2015-06-27T23:06:12Z</time>
      </trkpt>
      <trkpt lat="45.73318" lon="4.4266">
        <ele>618.8973</ele>
        <time>2015-06-27T23:06:17Z</time>
      </trkpt>
      <trkpt lat="45.73318" lon="4.4266">
        <ele>618.8973</ele>
        <time>2015-06-27T23:06:22Z</time>
      </trkpt>
      <trkpt lat="45.73317" lon="4.42659">
        <ele>618.8973</ele>
        <time>2015-06-27T23:06:27Z</time>
      </trkpt>
      <trkpt lat="45.73318" lon="4.42658">
        <ele>618.8973</ele>
        <time>2015-06-27T23:06:32Z</time>
      </trkpt>
      <trkpt lat="45.73319" lon="4.42659">
        <ele>618.8973</ele>
        <time>2015-06-27T23:06:37Z</time>
      </trkpt>
      <trkpt lat="45.7332" lon="4.42659">
        <ele>618.8973</ele>
        <time>2015-06-27T23:06:42Z</time>
      </trkpt>
      <trkpt lat="45.73347" lon="4.42569">
        <ele>618.9517</ele>
        <time>2015-06-27T23:49:56Z</time>
      </trkpt>
      <trkpt lat="45.73344" lon="4.42575">
        <ele>618.9517</ele>
        <time>2015-06-27T23:50:11Z</time>
      </trkpt>
      <trkpt lat="45.73344" lon="4.42575">
        <ele>618.9517</ele>
        <time>2015-06-27T23:50:26Z</time>
      </trkpt>
      <trkpt lat="45.73344" lon="4.42575">
        <ele>618.9517</ele>
        <time>2015-06-27T23:50:31Z</time>
      </trkpt>
      <trkpt lat="45.73345" lon="4.42575">
        <ele>618.9517</ele>
        <time>2015-06-27T23:50:36Z</time>
      </trkpt>
      <trkpt lat="45.73344" lon="4.42575">
        <ele>618.9517</ele>
        <time>2015-06-27T23:50:41Z</time>
      </trkpt>
      <trkpt lat="45.73344" lon="4.42575">
        <ele>618.9517</ele>
        <time>2015-06-27T23:50:46Z</time>
      </trkpt>
      <trkpt lat="45.73345" lon="4.42576">
        <ele>618.9517</ele>
        <time>2015-06-27T23:50:51Z</time>
      </trkpt>
      <trkpt lat="45.73344" lon="4.42575">
        <ele>618.48846</ele>
        <time>2015-06-27T23:50:56Z</time>
      </trkpt>
      <trkpt lat="45.73343" lon="4.42575">
        <ele>618.48846</ele>
        <time>2015-06-27T23:51:01Z</time>
      </trkpt>
      <trkpt lat="45.73344" lon="4.42575">
        <ele>618.48846</ele>
        <time>2015-06-27T23:51:06Z</time>
      </trkpt>
      <trkpt lat="45.73343" lon="4.42575">
        <ele>618.48846</ele>
        <time>2015-06-27T23:51:11Z</time>
      </trkpt>
      <trkpt lat="45.73343" lon="4.42575">
        <ele>618.48846</ele>
        <time>2015-06-27T23:51:16Z</time>
      </trkpt>
      <trkpt lat="45.73343" lon="4.42575">
        <ele>618.48846</ele>
        <time>2015-06-27T23:51:21Z</time>
      </trkpt>
      <trkpt lat="45.73344" lon="4.42576">
        <ele>618.48846</ele>
        <time>2015-06-27T23:51:26Z</time>
      </trkpt>
      <trkpt lat="45.73344" lon="4.42577">
        <ele>618.48846</ele>
        <time>2015-06-27T23:51:31Z</time>
      </trkpt>
      <trkpt lat="45.73344" lon="4.42577">
        <ele>618.48846</ele>
        <time>2015-06-27T23:51:36Z</time>
      </trkpt>
      <trkpt lat="45.73344" lon="4.42577">
        <ele>618.48846</ele>
        <time>2015-06-27T23:51:41Z</time>
      </trkpt>
      <trkpt lat="45.73344" lon="4.42577">
        <ele>618.48846</ele>
        <time>2015-06-27T23:51:46Z</time>
      </trkpt>
      <trkpt lat="45.73344" lon="4.42578">
        <ele>618.48846</ele>
        <time>2015-06-27T23:51:51Z</time>
      </trkpt>
      <trkpt lat="45.73344" lon="4.42578">
        <ele>618.48846</ele>
        <time>2015-06-27T23:51:56Z</time>
      </trkpt>
      <trkpt lat="45.73344" lon="4.42578">
        <ele>618.48846</ele>
        <time>2015-06-27T23:52:01Z</time>
      </trkpt>
      <trkpt lat="45.73343" lon="4.42577">
        <ele>618.48846</ele>
        <time>2015-06-27T23:52:06Z</time>
      </trkpt>
      <trkpt lat="45.73344" lon="4.42578">
        <ele>618.48846</ele>
        <time>2015-06-27T23:52:11Z</time>
      </trkpt>
      <trkpt lat="45.73343" lon="4.42577">
        <ele>618.48846</ele>
        <time>2015-06-27T23:52:16Z</time>
      </trkpt>
      <trkpt lat="45.73344" lon="4.42578">
        <ele>618.48846</ele>
        <time>2015-06-27T23:52:21Z</time>
      </trkpt>
      <trkpt lat="45.73345" lon="4.42579">
        <ele>618.48846</ele>
        <time>2015-06-27T23:52:26Z</time>
      </trkpt>
      <trkpt lat="45.73345" lon="4.42579">
        <ele>618.0525</ele>
        <time>2015-06-27T23:52:31Z</time>
      </trkpt>
      <trkpt lat="45.73345" lon="4.4258">
        <ele>618.0525</ele>
        <time>2015-06-27T23:52:36Z</time>
      </trkpt>
      <trkpt lat="45.73345" lon="4.4258">
        <ele>618.0525</ele>
        <time>2015-06-27T23:52:41Z</time>
      </trkpt>
      <trkpt lat="45.73345" lon="4.4258">
        <ele>618.0525</ele>
        <time>2015-06-27T23:52:46Z</time>
      </trkpt>
      <trkpt lat="45.73344" lon="4.4258">
        <ele>618.0525</ele>
        <time>2015-06-27T23:52:51Z</time>
      </trkpt>
      <trkpt lat="45.73344" lon="4.4258">
        <ele>618.0525</ele>
        <time>2015-06-27T23:52:56Z</time>
      </trkpt>
      <trkpt lat="45.73343" lon="4.42579">
        <ele>618.0525</ele>
        <time>2015-06-27T23:53:01Z</time>
      </trkpt>
      <trkpt lat="45.73343" lon="4.42579">
        <ele>618.0525</ele>
        <time>2015-06-27T23:53:06Z</time>
      </trkpt>
      <trkpt lat="45.73342" lon="4.42578">
        <ele>618.0525</ele>
        <time>2015-06-27T23:53:11Z</time>
      </trkpt>
      <trkpt lat="45.73342" lon="4.42579">
        <ele>618.0525</ele>
        <time>2015-06-27T23:53:16Z</time>
      </trkpt>
      <trkpt lat="45.73343" lon="4.42579">
        <ele>618.0525</ele>
        <time>2015-06-27T23:53:21Z</time>
      </trkpt>
      <trkpt lat="45.73344" lon="4.4258">
        <ele>618.0525</ele>
        <time>2015-06-27T23:53:26Z</time>
      </trkpt>
      <trkpt lat="45.73344" lon="4.42579">
        <ele>618.0525</ele>
        <time>2015-06-27T23:53:31Z</time>
      </trkpt>
      <trkpt lat="45.73343" lon="4.42578">
        <ele>618.0525</ele>
        <time>2015-06-27T23:53:36Z</time>
      </trkpt>
      <trkpt lat="45.73342" lon="4.42577">
        <ele>617.58655</ele>
        <time>2015-06-27T23:53:41Z</time>
      </trkpt>
      <trkpt lat="45.73342" lon="4.42577">
        <ele>617.58655</ele>
        <time>2015-06-27T23:53:46Z</time>
      </trkpt>
      <trkpt lat="45.73341" lon="4.42576">
        <ele>617.58655</ele>
        <time>2015-06-27T23:53:51Z</time>
      </trkpt>
      <trkpt lat="45.73342" lon="4.42576">
        <ele>617.58655</ele>
        <time>2015-06-27T23:53:56Z</time>
      </trkpt>
      <trkpt lat="45.73342" lon="4.42576">
        <ele>617.58655</ele>
        <time>2015-06-27T23:54:01Z</time>
      </trkpt>
      <trkpt lat="45.73342" lon="4.42576">
        <ele>617.58655</ele>
        <time>2015-06-27T23:54:06Z</time>
      </trkpt>
      <trkpt lat="45.73342" lon="4.42576">
        <ele>617.58655</ele>
        <time>2015-06-27T23:54:11Z</time>
      </trkpt>
      <trkpt lat="45.73342" lon="4.42576">
        <ele>617.58655</ele>
        <time>2015-06-27T23:54:16Z</time>
      </trkpt>
      <trkpt lat="45.73342" lon="4.42576">
        <ele>617.58655</ele>
        <time>2015-06-27T23:54:21Z</time>
      </trkpt>
      <trkpt lat="45.73341" lon="4.42576">
        <ele>617.58655</ele>
        <time>2015-06-27T23:54:26Z</time>
      </trkpt>
      <trkpt lat="45.73343" lon="4.42577">
        <ele>617.58655</ele>
        <time>2015-06-27T23:54:31Z</time>
      </trkpt>
      <trkpt lat="45.73343" lon="4.42576">
        <ele>617.58655</ele>
        <time>2015-06-27T23:54:36Z</time>
      </trkpt>
      <trkpt lat="45.73343" lon="4.42576">
        <ele>617.58655</ele>
        <time>2015-06-27T23:54:41Z</time>
      </trkpt>
      <trkpt lat="45.73344" lon="4.42575">
        <ele>617.58655</ele>
        <time>2015-06-27T23:54:46Z</time>
      </trkpt>
      <trkpt lat="45.73345" lon="4.42575">
        <ele>617.58655</ele>
        <time>2015-06-27T23:54:51Z</time>
      </trkpt>
      <trkpt lat="45.73344" lon="4.42575">
        <ele>617.58655</ele>
        <time>2015-06-27T23:54:56Z</time>
      </trkpt>
      <trkpt lat="45.73345" lon="4.42575">
        <ele>617.58655</ele>
        <time>2015-06-27T23:55:01Z</time>
      </trkpt>
      <trkpt lat="45.73345" lon="4.42575">
        <ele>617.58655</ele>
        <time>2015-06-27T23:55:06Z</time>
      </trkpt>
      <trkpt lat="45.73345" lon="4.42575">
        <ele>617.58655</ele>
        <time>2015-06-27T23:55:11Z</time>
      </trkpt>
      <trkpt lat="45.73346" lon="4.42576">
        <ele>617.1674</ele>
        <time>2015-06-27T23:55:16Z</time>
      </trkpt>
      <trkpt lat="45.73348" lon="4.42577">
        <ele>617.1674</ele>
        <time>2015-06-27T23:55:21Z</time>
      </trkpt>
      <trkpt lat="45.73349" lon="4.42577">
        <ele>617.1674</ele>
        <time>2015-06-27T23:55:26Z</time>
      </trkpt>
      <trkpt lat="45.73353" lon="4.42575">
        <ele>617.1674</ele>
        <time>2015-06-27T23:55:31Z</time>
      </trkpt>
      <trkpt lat="45.73354" lon="4.42568">
        <ele>616.9668</ele>
        <time>2015-06-27T23:55:36Z</time>
      </trkpt>
      <trkpt lat="45.73353" lon="4.4256">
        <ele>616.9668</ele>
        <time>2015-06-27T23:55:41Z</time>
      </trkpt>
      <trkpt lat="45.7335" lon="4.42553">
        <ele>616.8838</ele>
        <time>2015-06-27T23:55:46Z</time>
      </trkpt>
      <trkpt lat="45.73346" lon="4.42547">
        <ele>616.8838</ele>
        <time>2015-06-27T23:55:51Z</time>
      </trkpt>
      <trkpt lat="45.73342" lon="4.42542">
        <ele>616.8679</ele>
        <time>2015-06-27T23:55:56Z</time>
      </trkpt>
      <trkpt lat="45.73338" lon="4.42533">
        <ele>616.8679</ele>
        <time>2015-06-27T23:56:01Z</time>
      </trkpt>
      <trkpt lat="45.73336" lon="4.42526">
        <ele>616.90076</ele>
        <time>2015-06-27T23:56:06Z</time>
      </trkpt>
      <trkpt lat="45.73335" lon="4.42525">
        <ele>616.90076</ele>
        <time>2015-06-27T23:56:11Z</time>
      </trkpt>
      <trkpt lat="45.73336" lon="4.42523">
        <ele>616.90076</ele>
        <time>2015-06-27T23:56:16Z</time>
      </trkpt>
      <trkpt lat="45.73335" lon="4.4252">
        <ele>616.90076</ele>
        <time>2015-06-27T23:56:21Z</time>
      </trkpt>
      <trkpt lat="45.73332" lon="4.42514">
        <ele>616.92194</ele>
        <time>2015-06-27T23:56:26Z</time>
      </trkpt>
      <trkpt lat="45.73327" lon="4.42505">
        <ele>616.92194</ele>
        <time>2015-06-27T23:56:31Z</time>
      </trkpt>
      <trkpt lat="45.73323" lon="4.42501">
        <ele>617.0053</ele>
        <time>2015-06-27T23:56:36Z</time>
      </trkpt>
      <trkpt lat="45.7332" lon="4.42496">
        <ele>617.0053</ele>
        <time>2015-06-27T23:56:41Z</time>
      </trkpt>
      <trkpt lat="45.73318" lon="4.42488">
        <ele>617.11804</ele>
        <time>2015-06-27T23:56:46Z</time>
      </trkpt>
      <trkpt lat="45.73315" lon="4.42482">
        <ele>617.11804</ele>
        <time>2015-06-27T23:56:51Z</time>
      </trkpt>
      <trkpt lat="45.73311" lon="4.42475">
        <ele>617.2296</ele>
        <time>2015-06-27T23:56:56Z</time>
      </trkpt>
      <trkpt lat="45.73306" lon="4.42469">
        <ele>617.2296</ele>
        <time>2015-06-27T23:57:01Z</time>
      </trkpt>
      <trkpt lat="45.733" lon="4.42467">
        <ele>617.32623</ele>
        <time>2015-06-27T23:57:06Z</time>
      </trkpt>
      <trkpt lat="45.73295" lon="4.42468">
        <ele>617.32623</ele>
        <time>2015-06-27T23:57:11Z</time>
      </trkpt>
      <trkpt lat="45.73291" lon="4.42471">
        <ele>617.4094</ele>
        <time>2015-06-27T23:57:16Z</time>
      </trkpt>
      <trkpt lat="45.73287" lon="4.42474">
        <ele>617.4094</ele>
        <time>2015-06-27T23:57:21Z</time>
      </trkpt>
      <trkpt lat="45.73283" lon="4.42477">
        <ele>617.4094</ele>
        <time>2015-06-27T23:57:26Z</time>
      </trkpt>
      <trkpt lat="45.7328" lon="4.42481">
        <ele>617.55273</ele>
        <time>2015-06-27T23:57:31Z</time>
      </trkpt>
      <trkpt lat="45.73276" lon="4.42484">
        <ele>617.55273</ele>
        <time>2015-06-27T23:57:36Z</time>
      </trkpt>
      <trkpt lat="45.73273" lon="4.42487">
        <ele>617.55273</ele>
        <time>2015-06-27T23:57:41Z</time>
      </trkpt>
      <trkpt lat="45.73269" lon="4.42495">
        <ele>617.6799</ele>
        <time>2015-06-27T23:57:46Z</time>
      </trkpt>
      <trkpt lat="45.73266" lon="4.42501">
        <ele>617.6799</ele>
        <time>2015-06-27T23:57:51Z</time>
      </trkpt>
      <trkpt lat="45.73262" lon="4.42507">
        <ele>617.76355</ele>
        <time>2015-06-27T23:57:56Z</time>
      </trkpt>
      <trkpt lat="45.73259" lon="4.4251">
        <ele>617.76355</ele>
        <time>2015-06-27T23:58:01Z</time>
      </trkpt>
      <trkpt lat="45.73256" lon="4.42514">
        <ele>617.76355</ele>
        <time>2015-06-27T23:58:06Z</time>
      </trkpt>
      <trkpt lat="45.73252" lon="4.42516">
        <ele>617.7641</ele>
        <time>2015-06-27T23:58:11Z</time>
      </trkpt>
      <trkpt lat="45.73246" lon="4.42521">
        <ele>617.7641</ele>
        <time>2015-06-27T23:58:16Z</time>
      </trkpt>
      <trkpt lat="45.7324" lon="4.4252">
        <ele>617.5296</ele>
        <time>2015-06-27T23:58:21Z</time>
      </trkpt>
      <trkpt lat="45.73238" lon="4.42519">
        <ele>617.5296</ele>
        <time>2015-06-27T23:58:26Z</time>
      </trkpt>
      <trkpt lat="45.73236" lon="4.4252">
        <ele>617.5296</ele>
        <time>2015-06-27T23:58:31Z</time>
      </trkpt>
      <trkpt lat="45.73235" lon="4.42521">
        <ele>617.5296</ele>
        <time>2015-06-27T23:58:36Z</time>
      </trkpt>
      <trkpt lat="45.73234" lon="4.4252">
        <ele>617.5296</ele>
        <time>2015-06-27T23:58:41Z</time>
      </trkpt>
      <trkpt lat="45.73233" lon="4.42521">
        <ele>617.5296</ele>
        <time>2015-06-27T23:58:46Z</time>
      </trkpt>
      <trkpt lat="45.73228" lon="4.42523">
        <ele>616.99207</ele>
        <time>2015-06-27T23:58:51Z</time>
      </trkpt>
      <trkpt lat="45.73224" lon="4.42525">
        <ele>616.99207</ele>
        <time>2015-06-27T23:58:56Z</time>
      </trkpt>
      <trkpt lat="45.7322" lon="4.42526">
        <ele>616.99207</ele>
        <time>2015-06-27T23:59:01Z</time>
      </trkpt>
      <trkpt lat="45.73215" lon="4.42529">
        <ele>616.24786</ele>
        <time>2015-06-27T23:59:06Z</time>
      </trkpt>
      <trkpt lat="45.73209" lon="4.42531">
        <ele>616.24786</ele>
        <time>2015-06-27T23:59:11Z</time>
      </trkpt>
      <trkpt lat="45.73206" lon="4.42534">
        <ele>615.4444</ele>
        <time>2015-06-27T23:59:16Z</time>
      </trkpt>
      <trkpt lat="45.73201" lon="4.42538">
        <ele>615.4444</ele>
        <time>2015-06-27T23:59:21Z</time>
      </trkpt>
      <trkpt lat="45.73194" lon="4.42544">
        <ele>614.54553</ele>
        <time>2015-06-27T23:59:26Z</time>
      </trkpt>
      <trkpt lat="45.73186" lon="4.42549">
        <ele>614.54553</ele>
        <time>2015-06-27T23:59:31Z</time>
      </trkpt>
      <trkpt lat="45.7318" lon="4.42553">
        <ele>613.5034</ele>
        <time>2015-06-27T23:59:36Z</time>
      </trkpt>
      <trkpt lat="45.73174" lon="4.42556">
        <ele>613.5034</ele>
        <time>2015-06-27T23:59:41Z</time>
      </trkpt>
      <trkpt lat="45.73168" lon="4.42561">
        <ele>612.41833</ele>
        <time>2015-06-27T23:59:46Z</time>
      </trkpt>
      <trkpt lat="45.7316" lon="4.42565">
        <ele>612.41833</ele>
        <time>2015-06-27T23:59:51Z</time>
      </trkpt>
      <trkpt lat="45.73154" lon="4.4257">
        <ele>611.3833</ele>
        <time>2015-06-27T23:59:56Z</time>
      </trkpt>
      <trkpt lat="45.73144" lon="4.42572">
        <ele>610.42645</ele>
        <time>2015-06-28T00:00:01Z</time>
      </trkpt>
      <trkpt lat="45.73137" lon="4.42571">
        <ele>610.42645</ele>
        <time>2015-06-28T00:00:06Z</time>
      </trkpt>
      <trkpt lat="45.73134" lon="4.42571">
        <ele>609.5305</ele>
        <time>2015-06-28T00:00:11Z</time>
      </trkpt>
      <trkpt lat="45.73128" lon="4.42572">
        <ele>609.5305</ele>
        <time>2015-06-28T00:00:16Z</time>
      </trkpt>
      <trkpt lat="45.73121" lon="4.42571">
        <ele>608.5928</ele>
        <time>2015-06-28T00:00:21Z</time>
      </trkpt>
      <trkpt lat="45.73116" lon="4.42573">
        <ele>608.5928</ele>
        <time>2015-06-28T00:00:26Z</time>
      </trkpt>
      <trkpt lat="45.73109" lon="4.42574">
        <ele>607.7054</ele>
        <time>2015-06-28T00:00:31Z</time>
      </trkpt>
      <trkpt lat="45.73103" lon="4.42583">
        <ele>607.7054</ele>
        <time>2015-06-28T00:00:36Z</time>
      </trkpt>
      <trkpt lat="45.73099" lon="4.42592">
        <ele>606.795</ele>
        <time>2015-06-28T00:00:41Z</time>
      </trkpt>
      <trkpt lat="45.73097" lon="4.42596">
        <ele>606.795</ele>
        <time>2015-06-28T00:00:46Z</time>
      </trkpt>
      <trkpt lat="45.73097" lon="4.42602">
        <ele>606.795</ele>
        <time>2015-06-28T00:00:51Z</time>
      </trkpt>
      <trkpt lat="45.73097" lon="4.42603">
        <ele>606.795</ele>
        <time>2015-06-28T00:00:56Z</time>
      </trkpt>
      <trkpt lat="45.73096" lon="4.42606">
        <ele>605.7071</ele>
        <time>2015-06-28T00:01:01Z</time>
      </trkpt>
      <trkpt lat="45.73097" lon="4.42613">
        <ele>605.7071</ele>
        <time>2015-06-28T00:01:06Z</time>
      </trkpt>
      <trkpt lat="45.73098" lon="4.42619">
        <ele>604.58734</ele>
        <time>2015-06-28T00:01:11Z</time>
      </trkpt>
      <trkpt lat="45.73098" lon="4.42627">
        <ele>604.58734</ele>
        <time>2015-06-28T00:01:16Z</time>
      </trkpt>
      <trkpt lat="45.73098" lon="4.42639">
        <ele>603.34</ele>
        <time>2015-06-28T00:01:21Z</time>
      </trkpt>
      <trkpt lat="45.73102" lon="4.42649">
        <ele>603.34</ele>
        <time>2015-06-28T00:01:26Z</time>
      </trkpt>
      <trkpt lat="45.73104" lon="4.42658">
        <ele>602.2082</ele>
        <time>2015-06-28T00:01:31Z</time>
      </trkpt>
      <trkpt lat="45.73108" lon="4.42664">
        <ele>602.2082</ele>
        <time>2015-06-28T00:01:36Z</time>
      </trkpt>
      <trkpt lat="45.73114" lon="4.42667">
        <ele>601.20044</ele>
        <time>2015-06-28T00:01:41Z</time>
      </trkpt>
      <trkpt lat="45.73118" lon="4.42671">
        <ele>601.20044</ele>
        <time>2015-06-28T00:01:46Z</time>
      </trkpt>
      <trkpt lat="45.73122" lon="4.42678">
        <ele>600.31</ele>
        <time>2015-06-28T00:01:51Z</time>
      </trkpt>
      <trkpt lat="45.73125" lon="4.42686">
        <ele>600.31</ele>
        <time>2015-06-28T00:01:56Z</time>
      </trkpt>
      <trkpt lat="45.73128" lon="4.42693">
        <ele>599.52997</ele>
        <time>2015-06-28T00:02:01Z</time>
      </trkpt>
      <trkpt lat="45.73132" lon="4.42701">
        <ele>599.52997</ele>
        <time>2015-06-28T00:02:06Z</time>
      </trkpt>
      <trkpt lat="45.73138" lon="4.42709">
        <ele>598.79614</ele>
        <time>2015-06-28T00:02:11Z</time>
      </trkpt>
      <trkpt lat="45.73142" lon="4.42714">
        <ele>598.79614</ele>
        <time>2015-06-28T00:02:16Z</time>
      </trkpt>
      <trkpt lat="45.73145" lon="4.4272">
        <ele>598.10626</ele>
        <time>2015-06-28T00:02:21Z</time>
      </trkpt>
      <trkpt lat="45.73153" lon="4.42726">
        <ele>598.10626</ele>
        <time>2015-06-28T00:02:26Z</time>
      </trkpt>
      <trkpt lat="45.73158" lon="4.42733">
        <ele>597.3862</ele>
        <time>2015-06-28T00:02:31Z</time>
      </trkpt>
      <trkpt lat="45.73163" lon="4.42739">
        <ele>597.3862</ele>
        <time>2015-06-28T00:02:36Z</time>
      </trkpt>
      <trkpt lat="45.73167" lon="4.42743">
        <ele>596.62476</ele>
        <time>2015-06-28T00:02:41Z</time>
      </trkpt>
      <trkpt lat="45.73172" lon="4.42748">
        <ele>596.62476</ele>
        <time>2015-06-28T00:02:46Z</time>
      </trkpt>
      <trkpt lat="45.73176" lon="4.42753">
        <ele>595.7972</ele>
        <time>2015-06-28T00:02:51Z</time>
      </trkpt>
      <trkpt lat="45.7318" lon="4.42756">
        <ele>595.7972</ele>
        <time>2015-06-28T00:02:56Z</time>
      </trkpt>
      <trkpt lat="45.73185" lon="4.42762">
        <ele>594.9384</ele>
        <time>2015-06-28T00:03:01Z</time>
      </trkpt>
      <trkpt lat="45.73188" lon="4.42766">
        <ele>594.9384</ele>
        <time>2015-06-28T00:03:06Z</time>
      </trkpt>
      <trkpt lat="45.73193" lon="4.4277">
        <ele>594.0951</ele>
        <time>2015-06-28T00:03:11Z</time>
      </trkpt>
      <trkpt lat="45.73196" lon="4.42771">
        <ele>594.0951</ele>
        <time>2015-06-28T00:03:16Z</time>
      </trkpt>
      <trkpt lat="45.73199" lon="4.42775">
        <ele>594.0951</ele>
        <time>2015-06-28T00:03:21Z</time>
      </trkpt>
      <trkpt lat="45.73202" lon="4.4278">
        <ele>593.4114</ele>
        <time>2015-06-28T00:03:26Z</time>
      </trkpt>
      <trkpt lat="45.73204" lon="4.42785">
        <ele>593.4114</ele>
        <time>2015-06-28T00:03:31Z</time>
      </trkpt>
      <trkpt lat="45.73206" lon="4.42793">
        <ele>592.8905</ele>
        <time>2015-06-28T00:03:36Z</time>
      </trkpt>
      <trkpt lat="45.73208" lon="4.42798">
        <ele>592.8905</ele>
        <time>2015-06-28T00:03:41Z</time>
      </trkpt>
      <trkpt lat="45.73211" lon="4.42805">
        <ele>592.4773</ele>
        <time>2015-06-28T00:03:46Z</time>
      </trkpt>
      <trkpt lat="45.73211" lon="4.42813">
        <ele>592.4773</ele>
        <time>2015-06-28T00:03:51Z</time>
      </trkpt>
      <trkpt lat="45.73214" lon="4.42817">
        <ele>592.12036</ele>
        <time>2015-06-28T00:03:56Z</time>
      </trkpt>
      <trkpt lat="45.73218" lon="4.42824">
        <ele>592.12036</ele>
        <time>2015-06-28T00:04:01Z</time>
      </trkpt>
      <trkpt lat="45.7322" lon="4.42828">
        <ele>591.7862</ele>
        <time>2015-06-28T00:04:06Z</time>
      </trkpt>
      <trkpt lat="45.73222" lon="4.42832">
        <ele>591.7862</ele>
        <time>2015-06-28T00:04:11Z</time>
      </trkpt>
      <trkpt lat="45.73224" lon="4.42839">
        <ele>591.4581</ele>
        <time>2015-06-28T00:04:16Z</time>
      </trkpt>
      <trkpt lat="45.73226" lon="4.42843">
        <ele>591.4581</ele>
        <time>2015-06-28T00:04:21Z</time>
      </trkpt>
      <trkpt lat="45.73229" lon="4.42847">
        <ele>591.4581</ele>
        <time>2015-06-28T00:04:26Z</time>
      </trkpt>
      <trkpt lat="45.7323" lon="4.42851">
        <ele>591.38</ele>
        <time>2015-06-28T00:04:31Z</time>
      </trkpt>
      <trkpt lat="45.7323" lon="4.42858">
        <ele>591.38</ele>
        <time>2015-06-28T00:04:36Z</time>
      </trkpt>
      <trkpt lat="45.73231" lon="4.42864">
        <ele>591.4887</ele>
        <time>2015-06-28T00:04:41Z</time>
      </trkpt>
      <trkpt lat="45.73234" lon="4.42873">
        <ele>591.4887</ele>
        <time>2015-06-28T00:04:46Z</time>
      </trkpt>
      <trkpt lat="45.73234" lon="4.42881">
        <ele>591.6534</ele>
        <time>2015-06-28T00:04:51Z</time>
      </trkpt>
      <trkpt lat="45.7323" lon="4.42888">
        <ele>591.6534</ele>
        <time>2015-06-28T00:04:56Z</time>
      </trkpt>
      <trkpt lat="45.73229" lon="4.42895">
        <ele>591.91095</ele>
        <time>2015-06-28T00:05:01Z</time>
      </trkpt>
      <trkpt lat="45.73228" lon="4.42902">
        <ele>591.91095</ele>
        <time>2015-06-28T00:05:06Z</time>
      </trkpt>
      <trkpt lat="45.73226" lon="4.42908">
        <ele>592.2089</ele>
        <time>2015-06-28T00:05:11Z</time>
      </trkpt>
      <trkpt lat="45.73224" lon="4.42913">
        <ele>592.2089</ele>
        <time>2015-06-28T00:05:16Z</time>
      </trkpt>
      <trkpt lat="45.73222" lon="4.42917">
        <ele>592.2089</ele>
        <time>2015-06-28T00:05:21Z</time>
      </trkpt>
      <trkpt lat="45.73219" lon="4.42921">
        <ele>592.7435</ele>
        <time>2015-06-28T00:05:26Z</time>
      </trkpt>
      <trkpt lat="45.73216" lon="4.42924">
        <ele>592.7435</ele>
        <time>2015-06-28T00:05:31Z</time>
      </trkpt>
      <trkpt lat="45.73211" lon="4.42928">
        <ele>593.36444</ele>
        <time>2015-06-28T00:05:36Z</time>
      </trkpt>
      <trkpt lat="45.73209" lon="4.42932">
        <ele>593.36444</ele>
        <time>2015-06-28T00:05:41Z</time>
      </trkpt>
      <trkpt lat="45.73205" lon="4.42938">
        <ele>594.14844</ele>
        <time>2015-06-28T00:05:46Z</time>
      </trkpt>
      <trkpt lat="45.73201" lon="4.42943">
        <ele>594.14844</ele>
        <time>2015-06-28T00:05:51Z</time>
      </trkpt>
      <trkpt lat="45.73197" lon="4.42946">
        <ele>595.0796</ele>
        <time>2015-06-28T00:05:56Z</time>
      </trkpt>
      <trkpt lat="45.73192" lon="4.4295">
        <ele>595.0796</ele>
        <time>2015-06-28T00:06:01Z</time>
      </trkpt>
      <trkpt lat="45.73189" lon="4.42953">
        <ele>596.17175</ele>
        <time>2015-06-28T00:06:06Z</time>
      </trkpt>
      <trkpt lat="45.73184" lon="4.42958">
        <ele>596.17175</ele>
        <time>2015-06-28T00:06:11Z</time>
      </trkpt>
      <trkpt lat="45.73178" lon="4.42961">
        <ele>597.35065</ele>
        <time>2015-06-28T00:06:16Z</time>
      </trkpt>
      <trkpt lat="45.73175" lon="4.42963">
        <ele>597.35065</ele>
        <time>2015-06-28T00:06:21Z</time>
      </trkpt>
      <trkpt lat="45.73174" lon="4.42967">
        <ele>597.35065</ele>
        <time>2015-06-28T00:06:26Z</time>
      </trkpt>
      <trkpt lat="45.73169" lon="4.42966">
        <ele>598.47546</ele>
        <time>2015-06-28T00:06:31Z</time>
      </trkpt>
      <trkpt lat="45.73166" lon="4.42972">
        <ele>598.47546</ele>
        <time>2015-06-28T00:06:36Z</time>
      </trkpt>
      <trkpt lat="45.73163" lon="4.42982">
        <ele>599.5311</ele>
        <time>2015-06-28T00:06:41Z</time>
      </trkpt>
      <trkpt lat="45.73161" lon="4.42991">
        <ele>599.5311</ele>
        <time>2015-06-28T00:06:46Z</time>
      </trkpt>
      <trkpt lat="45.73158" lon="4.42999">
        <ele>600.5183</ele>
        <time>2015-06-28T00:06:51Z</time>
      </trkpt>
      <trkpt lat="45.73156" lon="4.43003">
        <ele>600.5183</ele>
        <time>2015-06-28T00:06:56Z</time>
      </trkpt>
      <trkpt lat="45.73155" lon="4.43007">
        <ele>600.5183</ele>
        <time>2015-06-28T00:07:01Z</time>
      </trkpt>
      <trkpt lat="45.73154" lon="4.4301">
        <ele>600.5183</ele>
        <time>2015-06-28T00:07:06Z</time>
      </trkpt>
      <trkpt lat="45.73153" lon="4.43016">
        <ele>601.59644</ele>
        <time>2015-06-28T00:07:11Z</time>
      </trkpt>
      <trkpt lat="45.73151" lon="4.43026">
        <ele>601.59644</ele>
        <time>2015-06-28T00:07:16Z</time>
      </trkpt>
      <trkpt lat="45.73149" lon="4.43034">
        <ele>602.769</ele>
        <time>2015-06-28T00:07:21Z</time>
      </trkpt>
      <trkpt lat="45.7315" lon="4.43044">
        <ele>602.769</ele>
        <time>2015-06-28T00:07:26Z</time>
      </trkpt>
      <trkpt lat="45.73151" lon="4.43052">
        <ele>604.01025</ele>
        <time>2015-06-28T00:07:31Z</time>
      </trkpt>
      <trkpt lat="45.73155" lon="4.43057">
        <ele>604.01025</ele>
        <time>2015-06-28T00:07:36Z</time>
      </trkpt>
      <trkpt lat="45.73158" lon="4.43065">
        <ele>605.32495</ele>
        <time>2015-06-28T00:07:41Z</time>
      </trkpt>
      <trkpt lat="45.73155" lon="4.43072">
        <ele>605.32495</ele>
        <time>2015-06-28T00:07:46Z</time>
      </trkpt>
      <trkpt lat="45.73154" lon="4.43077">
        <ele>605.32495</ele>
        <time>2015-06-28T00:07:51Z</time>
      </trkpt>
      <trkpt lat="45.73155" lon="4.43082">
        <ele>606.7608</ele>
        <time>2015-06-28T00:07:56Z</time>
      </trkpt>
      <trkpt lat="45.73155" lon="4.43084">
        <ele>606.7608</ele>
        <time>2015-06-28T00:08:01Z</time>
      </trkpt>
      <trkpt lat="45.73154" lon="4.43088">
        <ele>606.7608</ele>
        <time>2015-06-28T00:08:06Z</time>
      </trkpt>
      <trkpt lat="45.73156" lon="4.43093">
        <ele>606.7608</ele>
        <time>2015-06-28T00:08:11Z</time>
      </trkpt>
      <trkpt lat="45.73155" lon="4.43097">
        <ele>608.18866</ele>
        <time>2015-06-28T00:08:16Z</time>
      </trkpt>
      <trkpt lat="45.73156" lon="4.43102">
        <ele>608.18866</ele>
        <time>2015-06-28T00:08:21Z</time>
      </trkpt>
      <trkpt lat="45.73155" lon="4.43105">
        <ele>608.18866</ele>
        <time>2015-06-28T00:08:26Z</time>
      </trkpt>
      <trkpt lat="45.73156" lon="4.4311">
        <ele>609.4748</ele>
        <time>2015-06-28T00:08:31Z</time>
      </trkpt>
      <trkpt lat="45.73156" lon="4.43117">
        <ele>609.4748</ele>
        <time>2015-06-28T00:08:36Z</time>
      </trkpt>
      <trkpt lat="45.73154" lon="4.43124">
        <ele>610.5821</ele>
        <time>2015-06-28T00:08:41Z</time>
      </trkpt>
      <trkpt lat="45.73153" lon="4.43127">
        <ele>610.5821</ele>
        <time>2015-06-28T00:08:46Z</time>
      </trkpt>
      <trkpt lat="45.73151" lon="4.43135">
        <ele>610.5821</ele>
        <time>2015-06-28T00:08:51Z</time>
      </trkpt>
      <trkpt lat="45.73149" lon="4.4314">
        <ele>611.77954</ele>
        <time>2015-06-28T00:08:56Z</time>
      </trkpt>
      <trkpt lat="45.73148" lon="4.43145">
        <ele>611.77954</ele>
        <time>2015-06-28T00:09:01Z</time>
      </trkpt>
      <trkpt lat="45.73146" lon="4.43154">
        <ele>612.8407</ele>
        <time>2015-06-28T00:09:06Z</time>
      </trkpt>
      <trkpt lat="45.73145" lon="4.43159">
        <ele>612.8407</ele>
        <time>2015-06-28T00:09:11Z</time>
      </trkpt>
      <trkpt lat="45.73143" lon="4.43163">
        <ele>612.8407</ele>
        <time>2015-06-28T00:09:16Z</time>
      </trkpt>
      <trkpt lat="45.73141" lon="4.43167">
        <ele>614.01733</ele>
        <time>2015-06-28T00:09:21Z</time>
      </trkpt>
      <trkpt lat="45.73139" lon="4.43174">
        <ele>614.01733</ele>
        <time>2015-06-28T00:09:26Z</time>
      </trkpt>
      <trkpt lat="45.73138" lon="4.43177">
        <ele>614.01733</ele>
        <time>2015-06-28T00:09:31Z</time>
      </trkpt>
      <trkpt lat="45.73139" lon="4.43177">
        <ele>614.01733</ele>
        <time>2015-06-28T00:09:36Z</time>
      </trkpt>
      <trkpt lat="45.73136" lon="4.43181">
        <ele>615.4273</ele>
        <time>2015-06-28T00:09:41Z</time>
      </trkpt>
      <trkpt lat="45.73133" lon="4.43187">
        <ele>615.4273</ele>
        <time>2015-06-28T00:09:46Z</time>
      </trkpt>
      <trkpt lat="45.73132" lon="4.43189">
        <ele>615.4273</ele>
        <time>2015-06-28T00:09:51Z</time>
      </trkpt>
      <trkpt lat="45.7313" lon="4.4319">
        <ele>616.8766</ele>
        <time>2015-06-28T00:09:56Z</time>
      </trkpt>
      <trkpt lat="45.73125" lon="4.43197">
        <ele>616.8766</ele>
        <time>2015-06-28T00:10:01Z</time>
      </trkpt>
      <trkpt lat="45.73125" lon="4.43197">
        <ele>616.8766</ele>
        <time>2015-06-28T00:10:06Z</time>
      </trkpt>
      <trkpt lat="45.73123" lon="4.43198">
        <ele>618.1711</ele>
        <time>2015-06-28T00:10:11Z</time>
      </trkpt>
      <trkpt lat="45.73119" lon="4.43201">
        <ele>618.1711</ele>
        <time>2015-06-28T00:10:16Z</time>
      </trkpt>
      <trkpt lat="45.73114" lon="4.43208">
        <ele>619.23236</ele>
        <time>2015-06-28T00:10:21Z</time>
      </trkpt>
      <trkpt lat="45.73107" lon="4.43214">
        <ele>619.23236</ele>
        <time>2015-06-28T00:10:26Z</time>
      </trkpt>
      <trkpt lat="45.73102" lon="4.43219">
        <ele>620.13275</ele>
        <time>2015-06-28T00:10:31Z</time>
      </trkpt>
      <trkpt lat="45.73096" lon="4.43225">
        <ele>620.13275</ele>
        <time>2015-06-28T00:10:36Z</time>
      </trkpt>
      <trkpt lat="45.73088" lon="4.43227">
        <ele>620.86755</ele>
        <time>2015-06-28T00:10:41Z</time>
      </trkpt>
      <trkpt lat="45.73083" lon="4.43224">
        <ele>620.86755</ele>
        <time>2015-06-28T00:10:46Z</time>
      </trkpt>
      <trkpt lat="45.7308" lon="4.43217">
        <ele>621.5342</ele>
        <time>2015-06-28T00:10:51Z</time>
      </trkpt>
      <trkpt lat="45.73079" lon="4.43211">
        <ele>621.5342</ele>
        <time>2015-06-28T00:10:56Z</time>
      </trkpt>
      <trkpt lat="45.73079" lon="4.4321">
        <ele>621.5342</ele>
        <time>2015-06-28T00:11:01Z</time>
      </trkpt>
      <trkpt lat="45.73081" lon="4.43207">
        <ele>621.5342</ele>
        <time>2015-06-28T00:11:06Z</time>
      </trkpt>
      <trkpt lat="45.73082" lon="4.43202">
        <ele>622.1509</ele>
        <time>2015-06-28T00:11:11Z</time>
      </trkpt>
      <trkpt lat="45.73081" lon="4.432">
        <ele>622.1509</ele>
        <time>2015-06-28T00:11:16Z</time>
      </trkpt>
      <trkpt lat="45.73079" lon="4.43195">
        <ele>622.1509</ele>
        <time>2015-06-28T00:11:21Z</time>
      </trkpt>
      <trkpt lat="45.73074" lon="4.43189">
        <ele>622.98004</ele>
        <time>2015-06-28T00:11:26Z</time>
      </trkpt>
      <trkpt lat="45.73071" lon="4.43183">
        <ele>622.98004</ele>
        <time>2015-06-28T00:11:31Z</time>
      </trkpt>
      <trkpt lat="45.73069" lon="4.43174">
        <ele>623.5723</ele>
        <time>2015-06-28T00:11:36Z</time>
      </trkpt>
      <trkpt lat="45.73069" lon="4.43169">
        <ele>623.5723</ele>
        <time>2015-06-28T00:11:41Z</time>
      </trkpt>
      <trkpt lat="45.73069" lon="4.43165">
        <ele>623.5723</ele>
        <time>2015-06-28T00:11:46Z</time>
      </trkpt>
      <trkpt lat="45.73068" lon="4.4316">
        <ele>623.80054</ele>
        <time>2015-06-28T00:11:51Z</time>
      </trkpt>
      <trkpt lat="45.73066" lon="4.43153">
        <ele>623.80054</ele>
        <time>2015-06-28T00:11:56Z</time>
      </trkpt>
      <trkpt lat="45.73064" lon="4.43143">
        <ele>623.90826</ele>
        <time>2015-06-28T00:12:01Z</time>
      </trkpt>
      <trkpt lat="45.73063" lon="4.43136">
        <ele>623.90826</ele>
        <time>2015-06-28T00:12:06Z</time>
      </trkpt>
      <trkpt lat="45.73062" lon="4.4313">
        <ele>623.8764</ele>
        <time>2015-06-28T00:12:11Z</time>
      </trkpt>
      <trkpt lat="45.73061" lon="4.43124">
        <ele>623.8764</ele>
        <time>2015-06-28T00:12:16Z</time>
      </trkpt>
      <trkpt lat="45.73059" lon="4.43117">
        <ele>623.84656</ele>
        <time>2015-06-28T00:12:21Z</time>
      </trkpt>
      <trkpt lat="45.73058" lon="4.4311">
        <ele>623.84656</ele>
        <time>2015-06-28T00:12:26Z</time>
      </trkpt>
      <trkpt lat="45.73058" lon="4.43105">
        <ele>623.8345</ele>
        <time>2015-06-28T00:12:31Z</time>
      </trkpt>
      <trkpt lat="45.73056" lon="4.43098">
        <ele>623.8345</ele>
        <time>2015-06-28T00:12:36Z</time>
      </trkpt>
      <trkpt lat="45.73053" lon="4.43093">
        <ele>623.75397</ele>
        <time>2015-06-28T00:12:41Z</time>
      </trkpt>
      <trkpt lat="45.73051" lon="4.43086">
        <ele>623.75397</ele>
        <time>2015-06-28T00:12:46Z</time>
      </trkpt>
      <trkpt lat="45.7305" lon="4.43079">
        <ele>623.655</ele>
        <time>2015-06-28T00:12:51Z</time>
      </trkpt>
      <trkpt lat="45.73049" lon="4.43073">
        <ele>623.655</ele>
        <time>2015-06-28T00:12:56Z</time>
      </trkpt>
      <trkpt lat="45.73047" lon="4.43065">
        <ele>623.4978</ele>
        <time>2015-06-28T00:13:01Z</time>
      </trkpt>
      <trkpt lat="45.73046" lon="4.43057">
        <ele>623.4978</ele>
        <time>2015-06-28T00:13:06Z</time>
      </trkpt>
      <trkpt lat="45.73045" lon="4.4305">
        <ele>623.24536</ele>
        <time>2015-06-28T00:13:11Z</time>
      </trkpt>
      <trkpt lat="45.73042" lon="4.43044">
        <ele>623.24536</ele>
        <time>2015-06-28T00:13:16Z</time>
      </trkpt>
      <trkpt lat="45.7304" lon="4.43039">
        <ele>623.02234</ele>
        <time>2015-06-28T00:13:21Z</time>
      </trkpt>
      <trkpt lat="45.73037" lon="4.43031">
        <ele>623.02234</ele>
        <time>2015-06-28T00:13:26Z</time>
      </trkpt>
      <trkpt lat="45.73035" lon="4.43026">
        <ele>622.7425</ele>
        <time>2015-06-28T00:13:31Z</time>
      </trkpt>
      <trkpt lat="45.73033" lon="4.43019">
        <ele>622.7425</ele>
        <time>2015-06-28T00:13:36Z</time>
      </trkpt>
      <trkpt lat="45.73031" lon="4.4301">
        <ele>622.4701</ele>
        <time>2015-06-28T00:13:41Z</time>
      </trkpt>
      <trkpt lat="45.7303" lon="4.43002">
        <ele>622.4701</ele>
        <time>2015-06-28T00:13:46Z</time>
      </trkpt>
      <trkpt lat="45.73028" lon="4.42994">
        <ele>622.22144</ele>
        <time>2015-06-28T00:13:51Z</time>
      </trkpt>
      <trkpt lat="45.73027" lon="4.42986">
        <ele>622.22144</ele>
        <time>2015-06-28T00:13:56Z</time>
      </trkpt>
      <trkpt lat="45.73027" lon="4.42976">
        <ele>621.99713</ele>
        <time>2015-06-28T00:14:01Z</time>
      </trkpt>
      <trkpt lat="45.73026" lon="4.42971">
        <ele>621.99713</ele>
        <time>2015-06-28T00:14:06Z</time>
      </trkpt>
      <trkpt lat="45.73023" lon="4.42969">
        <ele>621.99713</ele>
        <time>2015-06-28T00:14:11Z</time>
      </trkpt>
      <trkpt lat="45.73019" lon="4.42973">
        <ele>621.8266</ele>
        <time>2015-06-28T00:14:16Z</time>
      </trkpt>
      <trkpt lat="45.73018" lon="4.42976">
        <ele>621.8266</ele>
        <time>2015-06-28T00:14:21Z</time>
      </trkpt>
      <trkpt lat="45.73019" lon="4.42976">
        <ele>621.8266</ele>
        <time>2015-06-28T00:14:26Z</time>
      </trkpt>
      <trkpt lat="45.7302" lon="4.42974">
        <ele>621.8266</ele>
        <time>2015-06-28T00:14:31Z</time>
      </trkpt>
      <trkpt lat="45.73021" lon="4.42974">
        <ele>621.8266</ele>
        <time>2015-06-28T00:14:36Z</time>
      </trkpt>
      <trkpt lat="45.73018" lon="4.42978">
        <ele>621.69354</ele>
        <time>2015-06-28T00:14:41Z</time>
      </trkpt>
      <trkpt lat="45.73015" lon="4.42982">
        <ele>621.69354</ele>
        <time>2015-06-28T00:14:46Z</time>
      </trkpt>
      <trkpt lat="45.73013" lon="4.42988">
        <ele>621.69354</ele>
        <time>2015-06-28T00:14:51Z</time>
      </trkpt>
      <trkpt lat="45.7301" lon="4.42996">
        <ele>621.6692</ele>
        <time>2015-06-28T00:14:56Z</time>
      </trkpt>
      <trkpt lat="45.73009" lon="4.43003">
        <ele>621.6692</ele>
        <time>2015-06-28T00:15:01Z</time>
      </trkpt>
      <trkpt lat="45.73008" lon="4.43006">
        <ele>621.6692</ele>
        <time>2015-06-28T00:15:06Z</time>
      </trkpt>
      <trkpt lat="45.73007" lon="4.43012">
        <ele>621.84827</ele>
        <time>2015-06-28T00:15:11Z</time>
      </trkpt>
      <trkpt lat="45.73002" lon="4.4302">
        <ele>621.84827</ele>
        <time>2015-06-28T00:15:16Z</time>
      </trkpt>
      <trkpt lat="45.73" lon="4.43025">
        <ele>622.2023</ele>
        <time>2015-06-28T00:15:21Z</time>
      </trkpt>
      <trkpt lat="45.72998" lon="4.4303">
        <ele>622.2023</ele>
        <time>2015-06-28T00:15:26Z</time>
      </trkpt>
      <trkpt lat="45.72996" lon="4.43037">
        <ele>622.73346</ele>
        <time>2015-06-28T00:15:31Z</time>
      </trkpt>
      <trkpt lat="45.72995" lon="4.43043">
        <ele>622.73346</ele>
        <time>2015-06-28T00:15:36Z</time>
      </trkpt>
      <trkpt lat="45.72993" lon="4.4305">
        <ele>623.4864</ele>
        <time>2015-06-28T00:15:41Z</time>
      </trkpt>
      <trkpt lat="45.72993" lon="4.43052">
        <ele>623.4864</ele>
        <time>2015-06-28T00:15:46Z</time>
      </trkpt>
      <trkpt lat="45.72989" lon="4.4305">
        <ele>623.4864</ele>
        <time>2015-06-28T00:15:51Z</time>
      </trkpt>
      <trkpt lat="45.72982" lon="4.43045">
        <ele>624.2856</ele>
        <time>2015-06-28T00:15:56Z</time>
      </trkpt>
      <trkpt lat="45.72978" lon="4.43041">
        <ele>624.2856</ele>
        <time>2015-06-28T00:16:01Z</time>
      </trkpt>
      <trkpt lat="45.72978" lon="4.43041">
        <ele>624.2856</ele>
        <time>2015-06-28T00:16:06Z</time>
      </trkpt>
      <trkpt lat="45.72974" lon="4.43037">
        <ele>625.0116</ele>
        <time>2015-06-28T00:16:11Z</time>
      </trkpt>
      <trkpt lat="45.72968" lon="4.43033">
        <ele>625.0116</ele>
        <time>2015-06-28T00:16:16Z</time>
      </trkpt>
      <trkpt lat="45.72966" lon="4.4303">
        <ele>625.6403</ele>
        <time>2015-06-28T00:16:21Z</time>
      </trkpt>
      <trkpt lat="45.72964" lon="4.43028">
        <ele>625.6403</ele>
        <time>2015-06-28T00:16:26Z</time>
      </trkpt>
      <trkpt lat="45.7296" lon="4.43027">
        <ele>625.6403</ele>
        <time>2015-06-28T00:16:31Z</time>
      </trkpt>
      <trkpt lat="45.72954" lon="4.43027">
        <ele>626.2938</ele>
        <time>2015-06-28T00:16:36Z</time>
      </trkpt>
      <trkpt lat="45.72951" lon="4.43024">
        <ele>626.2938</ele>
        <time>2015-06-28T00:16:41Z</time>
      </trkpt>
      <trkpt lat="45.72948" lon="4.43025">
        <ele>626.2938</ele>
        <time>2015-06-28T00:16:46Z</time>
      </trkpt>
      <trkpt lat="45.72945" lon="4.43022">
        <ele>627.12836</ele>
        <time>2015-06-28T00:16:51Z</time>
      </trkpt>
      <trkpt lat="45.72943" lon="4.43021">
        <ele>627.12836</ele>
        <time>2015-06-28T00:16:56Z</time>
      </trkpt>
      <trkpt lat="45.72941" lon="4.43019">
        <ele>627.12836</ele>
        <time>2015-06-28T00:17:01Z</time>
      </trkpt>
      <trkpt lat="45.72938" lon="4.43019">
        <ele>627.12836</ele>
        <time>2015-06-28T00:17:06Z</time>
      </trkpt>
      <trkpt lat="45.72936" lon="4.43019">
        <ele>628.2306</ele>
        <time>2015-06-28T00:17:11Z</time>
      </trkpt>
      <trkpt lat="45.72928" lon="4.43018">
        <ele>628.2306</ele>
        <time>2015-06-28T00:17:16Z</time>
      </trkpt>
      <trkpt lat="45.72925" lon="4.43018">
        <ele>629.33405</ele>
        <time>2015-06-28T00:17:21Z</time>
      </trkpt>
      <trkpt lat="45.72924" lon="4.43019">
        <ele>629.33405</ele>
        <time>2015-06-28T00:17:26Z</time>
      </trkpt>
      <trkpt lat="45.72922" lon="4.43025">
        <ele>629.33405</ele>
        <time>2015-06-28T00:17:31Z</time>
      </trkpt>
      <trkpt lat="45.72911" lon="4.43018">
        <ele>630.4802</ele>
        <time>2015-06-28T00:17:36Z</time>
      </trkpt>
      <trkpt lat="45.72904" lon="4.43019">
        <ele>630.4802</ele>
        <time>2015-06-28T00:17:41Z</time>
      </trkpt>
      <trkpt lat="45.72899" lon="4.43021">
        <ele>631.5776</ele>
        <time>2015-06-28T00:17:46Z</time>
      </trkpt>
      <trkpt lat="45.72894" lon="4.43019">
        <ele>631.5776</ele>
        <time>2015-06-28T00:17:51Z</time>
      </trkpt>
      <trkpt lat="45.7289" lon="4.43018">
        <ele>632.5848</ele>
        <time>2015-06-28T00:17:56Z</time>
      </trkpt>
      <trkpt lat="45.72885" lon="4.43014">
        <ele>632.5848</ele>
        <time>2015-06-28T00:18:01Z</time>
      </trkpt>
      <trkpt lat="45.72878" lon="4.43009">
        <ele>633.4638</ele>
        <time>2015-06-28T00:18:06Z</time>
      </trkpt>
      <trkpt lat="45.72875" lon="4.43007">
        <ele>633.4638</ele>
        <time>2015-06-28T00:18:11Z</time>
      </trkpt>
      <trkpt lat="45.72873" lon="4.43007">
        <ele>633.4638</ele>
        <time>2015-06-28T00:18:16Z</time>
      </trkpt>
      <trkpt lat="45.7287" lon="4.43005">
        <ele>633.4638</ele>
        <time>2015-06-28T00:18:21Z</time>
      </trkpt>
      <trkpt lat="45.72865" lon="4.43">
        <ele>634.05</ele>
        <time>2015-06-28T00:18:26Z</time>
      </trkpt>
      <trkpt lat="45.72859" lon="4.42998">
        <ele>634.05</ele>
        <time>2015-06-28T00:18:31Z</time>
      </trkpt>
      <trkpt lat="45.72851" lon="4.42998">
        <ele>634.5808</ele>
        <time>2015-06-28T00:18:36Z</time>
      </trkpt>
      <trkpt lat="45.72846" lon="4.42998">
        <ele>634.5808</ele>
        <time>2015-06-28T00:18:41Z</time>
      </trkpt>
      <trkpt lat="45.72839" lon="4.42995">
        <ele>635.1756</ele>
        <time>2015-06-28T00:18:46Z</time>
      </trkpt>
      <trkpt lat="45.72833" lon="4.42991">
        <ele>635.1756</ele>
        <time>2015-06-28T00:18:51Z</time>
      </trkpt>
      <trkpt lat="45.72825" lon="4.42987">
        <ele>635.81494</ele>
        <time>2015-06-28T00:18:56Z</time>
      </trkpt>
      <trkpt lat="45.72817" lon="4.42985">
        <ele>635.81494</ele>
        <time>2015-06-28T00:19:01Z</time>
      </trkpt>
      <trkpt lat="45.72811" lon="4.42987">
        <ele>636.5241</ele>
        <time>2015-06-28T00:19:06Z</time>
      </trkpt>
      <trkpt lat="45.72805" lon="4.42986">
        <ele>636.5241</ele>
        <time>2015-06-28T00:19:11Z</time>
      </trkpt>
      <trkpt lat="45.72799" lon="4.42984">
        <ele>637.1389</ele>
        <time>2015-06-28T00:19:16Z</time>
      </trkpt>
      <trkpt lat="45.72792" lon="4.42982">
        <ele>637.1389</ele>
        <time>2015-06-28T00:19:21Z</time>
      </trkpt>
      <trkpt lat="45.72784" lon="4.42978">
        <ele>637.8246</ele>
        <time>2015-06-28T00:19:26Z</time>
      </trkpt>
      <trkpt lat="45.72777" lon="4.42978">
        <ele>637.8246</ele>
        <time>2015-06-28T00:19:31Z</time>
      </trkpt>
      <trkpt lat="45.72773" lon="4.42977">
        <ele>638.5179</ele>
        <time>2015-06-28T00:19:36Z</time>
      </trkpt>
      <trkpt lat="45.72769" lon="4.42977">
        <ele>638.5179</ele>
        <time>2015-06-28T00:19:41Z</time>
      </trkpt>
      <trkpt lat="45.72764" lon="4.42976">
        <ele>638.5179</ele>
        <time>2015-06-28T00:19:46Z</time>
      </trkpt>
      <trkpt lat="45.72759" lon="4.42977">
        <ele>639.2754</ele>
        <time>2015-06-28T00:19:51Z</time>
      </trkpt>
      <trkpt lat="45.72751" lon="4.42977">
        <ele>639.2754</ele>
        <time>2015-06-28T00:19:56Z</time>
      </trkpt>
      <trkpt lat="45.72743" lon="4.42978">
        <ele>639.9765</ele>
        <time>2015-06-28T00:20:01Z</time>
      </trkpt>
      <trkpt lat="45.72736" lon="4.42979">
        <ele>639.9765</ele>
        <time>2015-06-28T00:20:06Z</time>
      </trkpt>
      <trkpt lat="45.72731" lon="4.42978">
        <ele>640.5674</ele>
        <time>2015-06-28T00:20:11Z</time>
      </trkpt>
      <trkpt lat="45.72727" lon="4.42978">
        <ele>640.5674</ele>
        <time>2015-06-28T00:20:16Z</time>
      </trkpt>
      <trkpt lat="45.7272" lon="4.42979">
        <ele>641.12805</ele>
        <time>2015-06-28T00:20:21Z</time>
      </trkpt>
      <trkpt lat="45.72715" lon="4.42978">
        <ele>641.12805</ele>
        <time>2015-06-28T00:20:26Z</time>
      </trkpt>
      <trkpt lat="45.7271" lon="4.42979">
        <ele>641.6463</ele>
        <time>2015-06-28T00:20:31Z</time>
      </trkpt>
      <trkpt lat="45.72705" lon="4.42978">
        <ele>641.6463</ele>
        <time>2015-06-28T00:20:36Z</time>
      </trkpt>
      <trkpt lat="45.72698" lon="4.42975">
        <ele>642.0966</ele>
        <time>2015-06-28T00:20:41Z</time>
      </trkpt>
      <trkpt lat="45.72692" lon="4.42973">
        <ele>642.0966</ele>
        <time>2015-06-28T00:20:46Z</time>
      </trkpt>
      <trkpt lat="45.72684" lon="4.4297">
        <ele>642.3402</ele>
        <time>2015-06-28T00:20:51Z</time>
      </trkpt>
      <trkpt lat="45.72679" lon="4.42969">
        <ele>642.3402</ele>
        <time>2015-06-28T00:20:56Z</time>
      </trkpt>
      <trkpt lat="45.72674" lon="4.42966">
        <ele>642.5661</ele>
        <time>2015-06-28T00:21:01Z</time>
      </trkpt>
      <trkpt lat="45.72669" lon="4.42965">
        <ele>642.5661</ele>
        <time>2015-06-28T00:21:06Z</time>
      </trkpt>
      <trkpt lat="45.72663" lon="4.42962">
        <ele>642.791</ele>
        <time>2015-06-28T00:21:11Z</time>
      </trkpt>
      <trkpt lat="45.72657" lon="4.42957">
        <ele>642.791</ele>
        <time>2015-06-28T00:21:16Z</time>
      </trkpt>
      <trkpt lat="45.72652" lon="4.42952">
        <ele>642.9151</ele>
        <time>2015-06-28T00:21:21Z</time>
      </trkpt>
      <trkpt lat="45.72649" lon="4.42949">
        <ele>642.9151</ele>
        <time>2015-06-28T00:21:26Z</time>
      </trkpt>
      <trkpt lat="45.72644" lon="4.42945">
        <ele>643.12006</ele>
        <time>2015-06-28T00:21:31Z</time>
      </trkpt>
      <trkpt lat="45.72641" lon="4.42938">
        <ele>643.12006</ele>
        <time>2015-06-28T00:21:36Z</time>
      </trkpt>
      <trkpt lat="45.72638" lon="4.42933">
        <ele>643.3865</ele>
        <time>2015-06-28T00:21:41Z</time>
      </trkpt>
      <trkpt lat="45.72633" lon="4.42929">
        <ele>643.3865</ele>
        <time>2015-06-28T00:21:46Z</time>
      </trkpt>
      <trkpt lat="45.72628" lon="4.42926">
        <ele>643.754</ele>
        <time>2015-06-28T00:21:51Z</time>
      </trkpt>
      <trkpt lat="45.72622" lon="4.42922">
        <ele>643.754</ele>
        <time>2015-06-28T00:21:56Z</time>
      </trkpt>
      <trkpt lat="45.72615" lon="4.42921">
        <ele>644.25903</ele>
        <time>2015-06-28T00:22:01Z</time>
      </trkpt>
      <trkpt lat="45.72608" lon="4.42922">
        <ele>644.25903</ele>
        <time>2015-06-28T00:22:06Z</time>
      </trkpt>
      <trkpt lat="45.726" lon="4.42923">
        <ele>644.9205</ele>
        <time>2015-06-28T00:22:11Z</time>
      </trkpt>
      <trkpt lat="45.72594" lon="4.42926">
        <ele>644.9205</ele>
        <time>2015-06-28T00:22:16Z</time>
      </trkpt>
      <trkpt lat="45.72588" lon="4.42932">
        <ele>645.6256</ele>
        <time>2015-06-28T00:22:21Z</time>
      </trkpt>
      <trkpt lat="45.72584" lon="4.42935">
        <ele>645.6256</ele>
        <time>2015-06-28T00:22:26Z</time>
      </trkpt>
      <trkpt lat="45.72576" lon="4.42934">
        <ele>646.2701</ele>
        <time>2015-06-28T00:22:31Z</time>
      </trkpt>
      <trkpt lat="45.72573" lon="4.42925">
        <ele>646.2701</ele>
        <time>2015-06-28T00:22:36Z</time>
      </trkpt>
      <trkpt lat="45.72571" lon="4.42916">
        <ele>646.8292</ele>
        <time>2015-06-28T00:22:41Z</time>
      </trkpt>
      <trkpt lat="45.72568" lon="4.42907">
        <ele>646.8292</ele>
        <time>2015-06-28T00:22:46Z</time>
      </trkpt>
      <trkpt lat="45.72564" lon="4.42901">
        <ele>647.41016</ele>
        <time>2015-06-28T00:22:51Z</time>
      </trkpt>
      <trkpt lat="45.72561" lon="4.42893">
        <ele>647.41016</ele>
        <time>2015-06-28T00:22:56Z</time>
      </trkpt>
      <trkpt lat="45.72559" lon="4.42883">
        <ele>647.9536</ele>
        <time>2015-06-28T00:23:01Z</time>
      </trkpt>
      <trkpt lat="45.72555" lon="4.42875">
        <ele>647.9536</ele>
        <time>2015-06-28T00:23:06Z</time>
      </trkpt>
      <trkpt lat="45.72552" lon="4.42865">
        <ele>648.3615</ele>
        <time>2015-06-28T00:23:11Z</time>
      </trkpt>
      <trkpt lat="45.72547" lon="4.42854">
        <ele>648.3615</ele>
        <time>2015-06-28T00:23:16Z</time>
      </trkpt>
      <trkpt lat="45.72544" lon="4.42845">
        <ele>648.6442</ele>
        <time>2015-06-28T00:23:21Z</time>
      </trkpt>
      <trkpt lat="45.7254" lon="4.42837">
        <ele>648.6442</ele>
        <time>2015-06-28T00:23:26Z</time>
      </trkpt>
      <trkpt lat="45.72539" lon="4.42833">
        <ele>648.78284</ele>
        <time>2015-06-28T00:23:31Z</time>
      </trkpt>
      <trkpt lat="45.72535" lon="4.42825">
        <ele>648.78284</ele>
        <time>2015-06-28T00:23:36Z</time>
      </trkpt>
      <trkpt lat="45.7253" lon="4.42819">
        <ele>648.8756</ele>
        <time>2015-06-28T00:23:41Z</time>
      </trkpt>
      <trkpt lat="45.72525" lon="4.42812">
        <ele>648.8756</ele>
        <time>2015-06-28T00:23:46Z</time>
      </trkpt>
      <trkpt lat="45.72521" lon="4.4281">
        <ele>648.8839</ele>
        <time>2015-06-28T00:23:51Z</time>
      </trkpt>
      <trkpt lat="45.72519" lon="4.42809">
        <ele>648.8839</ele>
        <time>2015-06-28T00:23:56Z</time>
      </trkpt>
      <trkpt lat="45.72513" lon="4.42803">
        <ele>648.8875</ele>
        <time>2015-06-28T00:24:01Z</time>
      </trkpt>
      <trkpt lat="45.72509" lon="4.42798">
        <ele>648.8875</ele>
        <time>2015-06-28T00:24:06Z</time>
      </trkpt>
      <trkpt lat="45.72505" lon="4.42793">
        <ele>648.845</ele>
        <time>2015-06-28T00:24:11Z</time>
      </trkpt>
      <trkpt lat="45.72498" lon="4.42789">
        <ele>648.845</ele>
        <time>2015-06-28T00:24:16Z</time>
      </trkpt>
      <trkpt lat="45.72489" lon="4.42783">
        <ele>648.6461</ele>
        <time>2015-06-28T00:24:21Z</time>
      </trkpt>
      <trkpt lat="45.72485" lon="4.42779">
        <ele>648.6461</ele>
        <time>2015-06-28T00:24:26Z</time>
      </trkpt>
      <trkpt lat="45.7248" lon="4.42775">
        <ele>648.4196</ele>
        <time>2015-06-28T00:24:31Z</time>
      </trkpt>
      <trkpt lat="45.72475" lon="4.42768">
        <ele>648.4196</ele>
        <time>2015-06-28T00:24:36Z</time>
      </trkpt>
      <trkpt lat="45.72468" lon="4.4276">
        <ele>648.184</ele>
        <time>2015-06-28T00:24:41Z</time>
      </trkpt>
      <trkpt lat="45.72462" lon="4.42751">
        <ele>648.184</ele>
        <time>2015-06-28T00:24:46Z</time>
      </trkpt>
      <trkpt lat="45.72458" lon="4.42742">
        <ele>647.9276</ele>
        <time>2015-06-28T00:24:51Z</time>
      </trkpt>
      <trkpt lat="45.72453" lon="4.42737">
        <ele>647.9276</ele>
        <time>2015-06-28T00:24:56Z</time>
      </trkpt>
      <trkpt lat="45.72449" lon="4.42731">
        <ele>647.6829</ele>
        <time>2015-06-28T00:25:01Z</time>
      </trkpt>
      <trkpt lat="45.72443" lon="4.42723">
        <ele>647.6829</ele>
        <time>2015-06-28T00:25:06Z</time>
      </trkpt>
      <trkpt lat="45.72439" lon="4.42713">
        <ele>647.37897</ele>
        <time>2015-06-28T00:25:11Z</time>
      </trkpt>
      <trkpt lat="45.72437" lon="4.42704">
        <ele>647.37897</ele>
        <time>2015-06-28T00:25:16Z</time>
      </trkpt>
      <trkpt lat="45.72435" lon="4.42696">
        <ele>646.979</ele>
        <time>2015-06-28T00:25:21Z</time>
      </trkpt>
      <trkpt lat="45.72434" lon="4.42688">
        <ele>646.979</ele>
        <time>2015-06-28T00:25:26Z</time>
      </trkpt>
      <trkpt lat="45.72434" lon="4.42681">
        <ele>646.6078</ele>
        <time>2015-06-28T00:25:31Z</time>
      </trkpt>
      <trkpt lat="45.72432" lon="4.4267">
        <ele>646.6078</ele>
        <time>2015-06-28T00:25:36Z</time>
      </trkpt>
      <trkpt lat="45.72429" lon="4.42662">
        <ele>646.2942</ele>
        <time>2015-06-28T00:25:41Z</time>
      </trkpt>
      <trkpt lat="45.72426" lon="4.42654">
        <ele>646.2942</ele>
        <time>2015-06-28T00:25:46Z</time>
      </trkpt>
      <trkpt lat="45.72423" lon="4.42643">
        <ele>646.0793</ele>
        <time>2015-06-28T00:25:51Z</time>
      </trkpt>
      <trkpt lat="45.72421" lon="4.42633">
        <ele>646.0793</ele>
        <time>2015-06-28T00:25:56Z</time>
      </trkpt>
      <trkpt lat="45.7242" lon="4.42623">
        <ele>645.8854</ele>
        <time>2015-06-28T00:26:01Z</time>
      </trkpt>
      <trkpt lat="45.72418" lon="4.42614">
        <ele>645.8854</ele>
        <time>2015-06-28T00:26:06Z</time>
      </trkpt>
      <trkpt lat="45.72417" lon="4.42605">
        <ele>645.64056</ele>
        <time>2015-06-28T00:26:11Z</time>
      </trkpt>
      <trkpt lat="45.72415" lon="4.42593">
        <ele>645.64056</ele>
        <time>2015-06-28T00:26:16Z</time>
      </trkpt>
      <trkpt lat="45.72416" lon="4.42583">
        <ele>645.3934</ele>
        <time>2015-06-28T00:26:21Z</time>
      </trkpt>
      <trkpt lat="45.72416" lon="4.42572">
        <ele>645.3934</ele>
        <time>2015-06-28T00:26:26Z</time>
      </trkpt>
      <trkpt lat="45.72416" lon="4.42562">
        <ele>645.1745</ele>
        <time>2015-06-28T00:26:31Z</time>
      </trkpt>
      <trkpt lat="45.72413" lon="4.42552">
        <ele>645.1745</ele>
        <time>2015-06-28T00:26:36Z</time>
      </trkpt>
      <trkpt lat="45.7241" lon="4.42539">
        <ele>644.9977</ele>
        <time>2015-06-28T00:26:41Z</time>
      </trkpt>
      <trkpt lat="45.72407" lon="4.42527">
        <ele>644.9977</ele>
        <time>2015-06-28T00:26:46Z</time>
      </trkpt>
      <trkpt lat="45.72403" lon="4.4252">
        <ele>644.78906</ele>
        <time>2015-06-28T00:26:51Z</time>
      </trkpt>
      <trkpt lat="45.72398" lon="4.42512">
        <ele>644.78906</ele>
        <time>2015-06-28T00:26:56Z</time>
      </trkpt>
      <trkpt lat="45.72393" lon="4.42504">
        <ele>644.5668</ele>
        <time>2015-06-28T00:27:01Z</time>
      </trkpt>
      <trkpt lat="45.72387" lon="4.42496">
        <ele>644.5668</ele>
        <time>2015-06-28T00:27:06Z</time>
      </trkpt>
      <trkpt lat="45.72381" lon="4.4249">
        <ele>644.28986</ele>
        <time>2015-06-28T00:27:11Z</time>
      </trkpt>
      <trkpt lat="45.72375" lon="4.42482">
        <ele>644.28986</ele>
        <time>2015-06-28T00:27:16Z</time>
      </trkpt>
      <trkpt lat="45.72369" lon="4.42475">
        <ele>643.9206</ele>
        <time>2015-06-28T00:27:21Z</time>
      </trkpt>
      <trkpt lat="45.72363" lon="4.42467">
        <ele>643.9206</ele>
        <time>2015-06-28T00:27:26Z</time>
      </trkpt>
      <trkpt lat="45.72356" lon="4.42459">
        <ele>643.4672</ele>
        <time>2015-06-28T00:27:31Z</time>
      </trkpt>
      <trkpt lat="45.72349" lon="4.42451">
        <ele>643.4672</ele>
        <time>2015-06-28T00:27:36Z</time>
      </trkpt>
      <trkpt lat="45.72346" lon="4.42443">
        <ele>642.89465</ele>
        <time>2015-06-28T00:27:41Z</time>
      </trkpt>
      <trkpt lat="45.72342" lon="4.42436">
        <ele>642.89465</ele>
        <time>2015-06-28T00:27:46Z</time>
      </trkpt>
      <trkpt lat="45.7234" lon="4.4243">
        <ele>642.22797</ele>
        <time>2015-06-28T00:27:51Z</time>
      </trkpt>
      <trkpt lat="45.72337" lon="4.42423">
        <ele>642.22797</ele>
        <time>2015-06-28T00:27:56Z</time>
      </trkpt>
      <trkpt lat="45.72337" lon="4.42416">
        <ele>641.4044</ele>
        <time>2015-06-28T00:28:01Z</time>
      </trkpt>
      <trkpt lat="45.72342" lon="4.42408">
        <ele>641.4044</ele>
        <time>2015-06-28T00:28:06Z</time>
      </trkpt>
      <trkpt lat="45.72347" lon="4.424">
        <ele>640.52454</ele>
        <time>2015-06-28T00:28:11Z</time>
      </trkpt>
      <trkpt lat="45.72352" lon="4.42394">
        <ele>640.52454</ele>
        <time>2015-06-28T00:28:16Z</time>
      </trkpt>
      <trkpt lat="45.72357" lon="4.4239">
        <ele>639.63855</ele>
        <time>2015-06-28T00:28:21Z</time>
      </trkpt>
      <trkpt lat="45.72363" lon="4.42383">
        <ele>639.63855</ele>
        <time>2015-06-28T00:28:26Z</time>
      </trkpt>
      <trkpt lat="45.72367" lon="4.42377">
        <ele>638.8071</ele>
        <time>2015-06-28T00:28:31Z</time>
      </trkpt>
      <trkpt lat="45.7237" lon="4.4237">
        <ele>638.8071</ele>
        <time>2015-06-28T00:28:36Z</time>
      </trkpt>
      <trkpt lat="45.72375" lon="4.42364">
        <ele>638.072</ele>
        <time>2015-06-28T00:28:41Z</time>
      </trkpt>
      <trkpt lat="45.72378" lon="4.42359">
        <ele>638.072</ele>
        <time>2015-06-28T00:28:46Z</time>
      </trkpt>
      <trkpt lat="45.72383" lon="4.42352">
        <ele>637.47156</ele>
        <time>2015-06-28T00:28:51Z</time>
      </trkpt>
      <trkpt lat="45.72389" lon="4.42346">
        <ele>637.47156</ele>
        <time>2015-06-28T00:28:56Z</time>
      </trkpt>
      <trkpt lat="45.72394" lon="4.4234">
        <ele>637.01184</ele>
        <time>2015-06-28T00:29:01Z</time>
      </trkpt>
      <trkpt lat="45.72397" lon="4.42337">
        <ele>637.01184</ele>
        <time>2015-06-28T00:29:06Z</time>
      </trkpt>
      <trkpt lat="45.72403" lon="4.42333">
        <ele>636.6982</ele>
        <time>2015-06-28T00:29:11Z</time>
      </trkpt>
      <trkpt lat="45.72406" lon="4.42327">
        <ele>636.6982</ele>
        <time>2015-06-28T00:29:16Z</time>
      </trkpt>
      <trkpt lat="45.72406" lon="4.42317">
        <ele>636.50616</ele>
        <time>2015-06-28T00:29:21Z</time>
      </trkpt>
      <trkpt lat="45.72405" lon="4.4231">
        <ele>636.50616</ele>
        <time>2015-06-28T00:29:26Z</time>
      </trkpt>
      <trkpt lat="45.72401" lon="4.42304">
        <ele>636.3839</ele>
        <time>2015-06-28T00:29:31Z</time>
      </trkpt>
      <trkpt lat="45.72396" lon="4.42294">
        <ele>636.3839</ele>
        <time>2015-06-28T00:29:36Z</time>
      </trkpt>
      <trkpt lat="45.72394" lon="4.42289">
        <ele>636.25433</ele>
        <time>2015-06-28T00:29:41Z</time>
      </trkpt>
      <trkpt lat="45.72392" lon="4.42281">
        <ele>636.25433</ele>
        <time>2015-06-28T00:29:46Z</time>
      </trkpt>
      <trkpt lat="45.72389" lon="4.42271">
        <ele>636.1324</ele>
        <time>2015-06-28T00:29:51Z</time>
      </trkpt>
      <trkpt lat="45.72387" lon="4.42261">
        <ele>636.1324</ele>
        <time>2015-06-28T00:29:56Z</time>
      </trkpt>
      <trkpt lat="45.72385" lon="4.42255">
        <ele>635.97424</ele>
        <time>2015-06-28T00:30:01Z</time>
      </trkpt>
      <trkpt lat="45.72382" lon="4.42247">
        <ele>635.97424</ele>
        <time>2015-06-28T00:30:06Z</time>
      </trkpt>
      <trkpt lat="45.7238" lon="4.42237">
        <ele>635.7537</ele>
        <time>2015-06-28T00:30:11Z</time>
      </trkpt>
      <trkpt lat="45.72378" lon="4.42227">
        <ele>635.7537</ele>
        <time>2015-06-28T00:30:16Z</time>
      </trkpt>
      <trkpt lat="45.72375" lon="4.4222">
        <ele>635.54755</ele>
        <time>2015-06-28T00:30:21Z</time>
      </trkpt>
      <trkpt lat="45.72373" lon="4.4221">
        <ele>635.54755</ele>
        <time>2015-06-28T00:30:26Z</time>
      </trkpt>
      <trkpt lat="45.7237" lon="4.42202">
        <ele>635.28265</ele>
        <time>2015-06-28T00:30:31Z</time>
      </trkpt>
      <trkpt lat="45.72368" lon="4.42196">
        <ele>635.28265</ele>
        <time>2015-06-28T00:30:36Z</time>
      </trkpt>
      <trkpt lat="45.72366" lon="4.42189">
        <ele>634.9923</ele>
        <time>2015-06-28T00:30:41Z</time>
      </trkpt>
      <trkpt lat="45.72363" lon="4.4218">
        <ele>634.9923</ele>
        <time>2015-06-28T00:30:46Z</time>
      </trkpt>
      <trkpt lat="45.72362" lon="4.42173">
        <ele>634.7219</ele>
        <time>2015-06-28T00:30:51Z</time>
      </trkpt>
      <trkpt lat="45.7236" lon="4.42164">
        <ele>634.7219</ele>
        <time>2015-06-28T00:30:56Z</time>
      </trkpt>
      <trkpt lat="45.72357" lon="4.42157">
        <ele>634.4844</ele>
        <time>2015-06-28T00:31:01Z</time>
      </trkpt>
      <trkpt lat="45.72355" lon="4.42149">
        <ele>634.4844</ele>
        <time>2015-06-28T00:31:06Z</time>
      </trkpt>
      <trkpt lat="45.72351" lon="4.42141">
        <ele>634.23413</ele>
        <time>2015-06-28T00:31:11Z</time>
      </trkpt>
      <trkpt lat="45.72351" lon="4.42136">
        <ele>634.23413</ele>
        <time>2015-06-28T00:31:16Z</time>
      </trkpt>
      <trkpt lat="45.72347" lon="4.42128">
        <ele>633.94324</ele>
        <time>2015-06-28T00:31:21Z</time>
      </trkpt>
      <trkpt lat="45.72346" lon="4.42119">
        <ele>633.94324</ele>
        <time>2015-06-28T00:31:26Z</time>
      </trkpt>
      <trkpt lat="45.72345" lon="4.42109">
        <ele>633.52826</ele>
        <time>2015-06-28T00:31:31Z</time>
      </trkpt>
      <trkpt lat="45.72342" lon="4.42102">
        <ele>633.52826</ele>
        <time>2015-06-28T00:31:36Z</time>
      </trkpt>
      <trkpt lat="45.72338" lon="4.42094">
        <ele>633.0996</ele>
        <time>2015-06-28T00:31:41Z</time>
      </trkpt>
      <trkpt lat="45.72336" lon="4.42086">
        <ele>633.0996</ele>
        <time>2015-06-28T00:31:46Z</time>
      </trkpt>
      <trkpt lat="45.72334" lon="4.42079">
        <ele>632.6155</ele>
        <time>2015-06-28T00:31:51Z</time>
      </trkpt>
      <trkpt lat="45.72333" lon="4.42071">
        <ele>632.6155</ele>
        <time>2015-06-28T00:31:56Z</time>
      </trkpt>
      <trkpt lat="45.72331" lon="4.42064">
        <ele>632.0372</ele>
        <time>2015-06-28T00:32:01Z</time>
      </trkpt>
      <trkpt lat="45.7233" lon="4.42056">
        <ele>632.0372</ele>
        <time>2015-06-28T00:32:06Z</time>
      </trkpt>
      <trkpt lat="45.72327" lon="4.42047">
        <ele>631.54535</ele>
        <time>2015-06-28T00:32:11Z</time>
      </trkpt>
      <trkpt lat="45.72325" lon="4.42038">
        <ele>631.54535</ele>
        <time>2015-06-28T00:32:16Z</time>
      </trkpt>
      <trkpt lat="45.72323" lon="4.42031">
        <ele>631.11975</ele>
        <time>2015-06-28T00:32:21Z</time>
      </trkpt>
      <trkpt lat="45.72323" lon="4.42023">
        <ele>631.11975</ele>
        <time>2015-06-28T00:32:26Z</time>
      </trkpt>
      <trkpt lat="45.72324" lon="4.42016">
        <ele>630.75586</ele>
        <time>2015-06-28T00:32:31Z</time>
      </trkpt>
      <trkpt lat="45.72326" lon="4.42009">
        <ele>630.75586</ele>
        <time>2015-06-28T00:32:36Z</time>
      </trkpt>
      <trkpt lat="45.72328" lon="4.42001">
        <ele>630.5068</ele>
        <time>2015-06-28T00:32:41Z</time>
      </trkpt>
      <trkpt lat="45.7233" lon="4.41994">
        <ele>630.5068</ele>
        <time>2015-06-28T00:32:46Z</time>
      </trkpt>
      <trkpt lat="45.72331" lon="4.41989">
        <ele>630.3639</ele>
        <time>2015-06-28T00:32:51Z</time>
      </trkpt>
      <trkpt lat="45.72328" lon="4.41981">
        <ele>630.3639</ele>
        <time>2015-06-28T00:32:56Z</time>
      </trkpt>
      <trkpt lat="45.72324" lon="4.41976">
        <ele>630.33325</ele>
        <time>2015-06-28T00:33:01Z</time>
      </trkpt>
      <trkpt lat="45.72321" lon="4.4197">
        <ele>630.33325</ele>
        <time>2015-06-28T00:33:06Z</time>
      </trkpt>
      <trkpt lat="45.72318" lon="4.41964">
        <ele>630.4057</ele>
        <time>2015-06-28T00:33:11Z</time>
      </trkpt>
      <trkpt lat="45.72319" lon="4.41954">
        <ele>630.4057</ele>
        <time>2015-06-28T00:33:16Z</time>
      </trkpt>
      <trkpt lat="45.72318" lon="4.41947">
        <ele>630.4572</ele>
        <time>2015-06-28T00:33:21Z</time>
      </trkpt>
      <trkpt lat="45.72318" lon="4.41941">
        <ele>630.4572</ele>
        <time>2015-06-28T00:33:26Z</time>
      </trkpt>
      <trkpt lat="45.72317" lon="4.41933">
        <ele>630.5746</ele>
        <time>2015-06-28T00:33:31Z</time>
      </trkpt>
      <trkpt lat="45.72316" lon="4.41927">
        <ele>630.5746</ele>
        <time>2015-06-28T00:33:36Z</time>
      </trkpt>
      <trkpt lat="45.72316" lon="4.41923">
        <ele>630.5746</ele>
        <time>2015-06-28T00:33:41Z</time>
      </trkpt>
      <trkpt lat="45.72317" lon="4.41917">
        <ele>630.9823</ele>
        <time>2015-06-28T00:33:46Z</time>
      </trkpt>
      <trkpt lat="45.72316" lon="4.41909">
        <ele>630.9823</ele>
        <time>2015-06-28T00:33:51Z</time>
      </trkpt>
      <trkpt lat="45.72316" lon="4.41905">
        <ele>630.9823</ele>
        <time>2015-06-28T00:33:56Z</time>
      </trkpt>
      <trkpt lat="45.72316" lon="4.419">
        <ele>631.4407</ele>
        <time>2015-06-28T00:34:01Z</time>
      </trkpt>
      <trkpt lat="45.72316" lon="4.41894">
        <ele>631.4407</ele>
        <time>2015-06-28T00:34:06Z</time>
      </trkpt>
      <trkpt lat="45.72316" lon="4.41888">
        <ele>631.4407</ele>
        <time>2015-06-28T00:34:11Z</time>
      </trkpt>
      <trkpt lat="45.72316" lon="4.41884">
        <ele>632.232</ele>
        <time>2015-06-28T00:34:16Z</time>
      </trkpt>
      <trkpt lat="45.72318" lon="4.41879">
        <ele>632.232</ele>
        <time>2015-06-28T00:34:21Z</time>
      </trkpt>
      <trkpt lat="45.72321" lon="4.41873">
        <ele>632.232</ele>
        <time>2015-06-28T00:34:26Z</time>
      </trkpt>
      <trkpt lat="45.72323" lon="4.41867">
        <ele>633.2565</ele>
        <time>2015-06-28T00:34:31Z</time>
      </trkpt>
      <trkpt lat="45.72326" lon="4.41863">
        <ele>633.2565</ele>
        <time>2015-06-28T00:34:36Z</time>
      </trkpt>
      <trkpt lat="45.72329" lon="4.41856">
        <ele>634.43555</ele>
        <time>2015-06-28T00:34:41Z</time>
      </trkpt>
      <trkpt lat="45.72332" lon="4.41849">
        <ele>634.43555</ele>
        <time>2015-06-28T00:34:46Z</time>
      </trkpt>
      <trkpt lat="45.72337" lon="4.41841">
        <ele>635.72485</ele>
        <time>2015-06-28T00:34:51Z</time>
      </trkpt>
      <trkpt lat="45.72339" lon="4.41832">
        <ele>635.72485</ele>
        <time>2015-06-28T00:34:56Z</time>
      </trkpt>
      <trkpt lat="45.72341" lon="4.41827">
        <ele>637.0685</ele>
        <time>2015-06-28T00:35:01Z</time>
      </trkpt>
      <trkpt lat="45.72342" lon="4.41823">
        <ele>637.0685</ele>
        <time>2015-06-28T00:35:06Z</time>
      </trkpt>
      <trkpt lat="45.72342" lon="4.41816">
        <ele>637.0685</ele>
        <time>2015-06-28T00:35:11Z</time>
      </trkpt>
      <trkpt lat="45.72346" lon="4.41803">
        <ele>638.5443</ele>
        <time>2015-06-28T00:35:16Z</time>
      </trkpt>
      <trkpt lat="45.72347" lon="4.41794">
        <ele>638.5443</ele>
        <time>2015-06-28T00:35:21Z</time>
      </trkpt>
      <trkpt lat="45.72345" lon="4.41786">
        <ele>639.9649</ele>
        <time>2015-06-28T00:35:26Z</time>
      </trkpt>
      <trkpt lat="45.72342" lon="4.41781">
        <ele>639.9649</ele>
        <time>2015-06-28T00:35:31Z</time>
      </trkpt>
      <trkpt lat="45.7234" lon="4.41775">
        <ele>639.9649</ele>
        <time>2015-06-28T00:35:36Z</time>
      </trkpt>
      <trkpt lat="45.72339" lon="4.41766">
        <ele>641.4592</ele>
        <time>2015-06-28T00:35:41Z</time>
      </trkpt>
      <trkpt lat="45.72334" lon="4.4176">
        <ele>641.4592</ele>
        <time>2015-06-28T00:35:46Z</time>
      </trkpt>
      <trkpt lat="45.72331" lon="4.41752">
        <ele>642.91626</ele>
        <time>2015-06-28T00:35:51Z</time>
      </trkpt>
      <trkpt lat="45.72328" lon="4.41748">
        <ele>642.91626</ele>
        <time>2015-06-28T00:35:56Z</time>
      </trkpt>
      <trkpt lat="45.72324" lon="4.41742">
        <ele>644.363</ele>
        <time>2015-06-28T00:36:01Z</time>
      </trkpt>
      <trkpt lat="45.7232" lon="4.41739">
        <ele>644.363</ele>
        <time>2015-06-28T00:36:06Z</time>
      </trkpt>
      <trkpt lat="45.72315" lon="4.41737">
        <ele>645.8532</ele>
        <time>2015-06-28T00:36:11Z</time>
      </trkpt>
      <trkpt lat="45.72311" lon="4.41738">
        <ele>645.8532</ele>
        <time>2015-06-28T00:36:16Z</time>
      </trkpt>
      <trkpt lat="45.72305" lon="4.4174">
        <ele>647.3072</ele>
        <time>2015-06-28T00:36:21Z</time>
      </trkpt>
      <trkpt lat="45.723" lon="4.41744">
        <ele>647.3072</ele>
        <time>2015-06-28T00:36:26Z</time>
      </trkpt>
      <trkpt lat="45.72297" lon="4.41748">
        <ele>648.709</ele>
        <time>2015-06-28T00:36:31Z</time>
      </trkpt>
      <trkpt lat="45.72294" lon="4.41752">
        <ele>648.709</ele>
        <time>2015-06-28T00:36:36Z</time>
      </trkpt>
      <trkpt lat="45.72288" lon="4.41756">
        <ele>650.13043</ele>
        <time>2015-06-28T00:36:41Z</time>
      </trkpt>
      <trkpt lat="45.72284" lon="4.41759">
        <ele>650.13043</ele>
        <time>2015-06-28T00:36:46Z</time>
      </trkpt>
      <trkpt lat="45.72279" lon="4.41756">
        <ele>651.68134</ele>
        <time>2015-06-28T00:36:51Z</time>
      </trkpt>
      <trkpt lat="45.72275" lon="4.41751">
        <ele>651.68134</ele>
        <time>2015-06-28T00:36:56Z</time>
      </trkpt>
      <trkpt lat="45.72272" lon="4.41746">
        <ele>653.20386</ele>
        <time>2015-06-28T00:37:01Z</time>
      </trkpt>
      <trkpt lat="45.72269" lon="4.41741">
        <ele>653.20386</ele>
        <time>2015-06-28T00:37:06Z</time>
      </trkpt>
      <trkpt lat="45.72264" lon="4.41733">
        <ele>654.6241</ele>
        <time>2015-06-28T00:37:11Z</time>
      </trkpt>
      <trkpt lat="45.7226" lon="4.41727">
        <ele>654.6241</ele>
        <time>2015-06-28T00:37:16Z</time>
      </trkpt>
      <trkpt lat="45.72255" lon="4.41722">
        <ele>655.8883</ele>
        <time>2015-06-28T00:37:21Z</time>
      </trkpt>
      <trkpt lat="45.7225" lon="4.41714">
        <ele>655.8883</ele>
        <time>2015-06-28T00:37:26Z</time>
      </trkpt>
      <trkpt lat="45.72247" lon="4.41711">
        <ele>657.0192</ele>
        <time>2015-06-28T00:37:31Z</time>
      </trkpt>
      <trkpt lat="45.72243" lon="4.41708">
        <ele>657.0192</ele>
        <time>2015-06-28T00:37:36Z</time>
      </trkpt>
      <trkpt lat="45.72239" lon="4.41704">
        <ele>657.95215</ele>
        <time>2015-06-28T00:37:41Z</time>
      </trkpt>
      <trkpt lat="45.72236" lon="4.41695">
        <ele>657.95215</ele>
        <time>2015-06-28T00:37:46Z</time>
      </trkpt>
      <trkpt lat="45.72231" lon="4.41687">
        <ele>658.6421</ele>
        <time>2015-06-28T00:37:51Z</time>
      </trkpt>
      <trkpt lat="45.72226" lon="4.41681">
        <ele>658.6421</ele>
        <time>2015-06-28T00:37:56Z</time>
      </trkpt>
      <trkpt lat="45.72223" lon="4.41678">
        <ele>659.1635</ele>
        <time>2015-06-28T00:38:01Z</time>
      </trkpt>
      <trkpt lat="45.7222" lon="4.41674">
        <ele>659.1635</ele>
        <time>2015-06-28T00:38:06Z</time>
      </trkpt>
      <trkpt lat="45.72215" lon="4.41668">
        <ele>659.6436</ele>
        <time>2015-06-28T00:38:11Z</time>
      </trkpt>
      <trkpt lat="45.7221" lon="4.41662">
        <ele>659.6436</ele>
        <time>2015-06-28T00:38:16Z</time>
      </trkpt>
      <trkpt lat="45.72206" lon="4.41657">
        <ele>659.89777</ele>
        <time>2015-06-28T00:38:21Z</time>
      </trkpt>
      <trkpt lat="45.72198" lon="4.41649">
        <ele>660.0008</ele>
        <time>2015-06-28T00:38:26Z</time>
      </trkpt>
      <trkpt lat="45.72194" lon="4.41643">
        <ele>660.0008</ele>
        <time>2015-06-28T00:38:31Z</time>
      </trkpt>
      <trkpt lat="45.7219" lon="4.41636">
        <ele>659.9503</ele>
        <time>2015-06-28T00:38:36Z</time>
      </trkpt>
      <trkpt lat="45.72186" lon="4.4163">
        <ele>659.9503</ele>
        <time>2015-06-28T00:38:41Z</time>
      </trkpt>
      <trkpt lat="45.72184" lon="4.41622">
        <ele>659.81683</ele>
        <time>2015-06-28T00:38:46Z</time>
      </trkpt>
      <trkpt lat="45.72181" lon="4.41615">
        <ele>659.81683</ele>
        <time>2015-06-28T00:38:51Z</time>
      </trkpt>
      <trkpt lat="45.72179" lon="4.41608">
        <ele>659.60815</ele>
        <time>2015-06-28T00:38:56Z</time>
      </trkpt>
      <trkpt lat="45.72176" lon="4.41601">
        <ele>659.60815</ele>
        <time>2015-06-28T00:39:01Z</time>
      </trkpt>
      <trkpt lat="45.72173" lon="4.41593">
        <ele>659.38965</ele>
        <time>2015-06-28T00:39:06Z</time>
      </trkpt>
      <trkpt lat="45.72171" lon="4.41585">
        <ele>659.38965</ele>
        <time>2015-06-28T00:39:11Z</time>
      </trkpt>
      <trkpt lat="45.72168" lon="4.41578">
        <ele>659.0921</ele>
        <time>2015-06-28T00:39:16Z</time>
      </trkpt>
      <trkpt lat="45.72166" lon="4.41574">
        <ele>659.0921</ele>
        <time>2015-06-28T00:39:21Z</time>
      </trkpt>
      <trkpt lat="45.72161" lon="4.4157">
        <ele>658.6949</ele>
        <time>2015-06-28T00:39:26Z</time>
      </trkpt>
      <trkpt lat="45.72157" lon="4.41566">
        <ele>658.6949</ele>
        <time>2015-06-28T00:39:31Z</time>
      </trkpt>
      <trkpt lat="45.72153" lon="4.41561">
        <ele>658.20807</ele>
        <time>2015-06-28T00:39:36Z</time>
      </trkpt>
      <trkpt lat="45.72148" lon="4.41554">
        <ele>658.20807</ele>
        <time>2015-06-28T00:39:41Z</time>
      </trkpt>
      <trkpt lat="45.72147" lon="4.41549">
        <ele>657.64124</ele>
        <time>2015-06-28T00:39:46Z</time>
      </trkpt>
      <trkpt lat="45.72142" lon="4.41544">
        <ele>657.64124</ele>
        <time>2015-06-28T00:39:51Z</time>
      </trkpt>
      <trkpt lat="45.72135" lon="4.41534">
        <ele>656.94586</ele>
        <time>2015-06-28T00:39:56Z</time>
      </trkpt>
      <trkpt lat="45.72129" lon="4.4153">
        <ele>656.94586</ele>
        <time>2015-06-28T00:40:01Z</time>
      </trkpt>
      <trkpt lat="45.72125" lon="4.41526">
        <ele>656.20703</ele>
        <time>2015-06-28T00:40:06Z</time>
      </trkpt>
      <trkpt lat="45.72122" lon="4.41521">
        <ele>656.20703</ele>
        <time>2015-06-28T00:40:11Z</time>
      </trkpt>
      <trkpt lat="45.72119" lon="4.41516">
        <ele>655.43164</ele>
        <time>2015-06-28T00:40:16Z</time>
      </trkpt>
      <trkpt lat="45.72117" lon="4.41512">
        <ele>655.43164</ele>
        <time>2015-06-28T00:40:21Z</time>
      </trkpt>
      <trkpt lat="45.72113" lon="4.41508">
        <ele>655.43164</ele>
        <time>2015-06-28T00:40:26Z</time>
      </trkpt>
      <trkpt lat="45.7211" lon="4.41505">
        <ele>654.4387</ele>
        <time>2015-06-28T00:40:31Z</time>
      </trkpt>
      <trkpt lat="45.72106" lon="4.415">
        <ele>654.4387</ele>
        <time>2015-06-28T00:40:36Z</time>
      </trkpt>
      <trkpt lat="45.72103" lon="4.41491">
        <ele>653.3208</ele>
        <time>2015-06-28T00:40:41Z</time>
      </trkpt>
      <trkpt lat="45.721" lon="4.41487">
        <ele>653.3208</ele>
        <time>2015-06-28T00:40:46Z</time>
      </trkpt>
      <trkpt lat="45.72097" lon="4.41482">
        <ele>651.9907</ele>
        <time>2015-06-28T00:40:51Z</time>
      </trkpt>
      <trkpt lat="45.72094" lon="4.41475">
        <ele>651.9907</ele>
        <time>2015-06-28T00:40:56Z</time>
      </trkpt>
      <trkpt lat="45.7209" lon="4.41472">
        <ele>650.4693</ele>
        <time>2015-06-28T00:41:01Z</time>
      </trkpt>
      <trkpt lat="45.72087" lon="4.41468">
        <ele>650.4693</ele>
        <time>2015-06-28T00:41:06Z</time>
      </trkpt>
      <trkpt lat="45.72086" lon="4.41464">
        <ele>650.4693</ele>
        <time>2015-06-28T00:41:11Z</time>
      </trkpt>
      <trkpt lat="45.7208" lon="4.41456">
        <ele>648.8195</ele>
        <time>2015-06-28T00:41:16Z</time>
      </trkpt>
      <trkpt lat="45.72078" lon="4.41448">
        <ele>648.8195</ele>
        <time>2015-06-28T00:41:21Z</time>
      </trkpt>
      <trkpt lat="45.72077" lon="4.41441">
        <ele>647.1143</ele>
        <time>2015-06-28T00:41:26Z</time>
      </trkpt>
      <trkpt lat="45.72075" lon="4.41434">
        <ele>647.1143</ele>
        <time>2015-06-28T00:41:31Z</time>
      </trkpt>
      <trkpt lat="45.72072" lon="4.41425">
        <ele>645.2486</ele>
        <time>2015-06-28T00:41:36Z</time>
      </trkpt>
      <trkpt lat="45.72067" lon="4.41419">
        <ele>645.2486</ele>
        <time>2015-06-28T00:41:41Z</time>
      </trkpt>
      <trkpt lat="45.72063" lon="4.41415">
        <ele>643.3702</ele>
        <time>2015-06-28T00:41:46Z</time>
      </trkpt>
      <trkpt lat="45.72058" lon="4.41409">
        <ele>643.3702</ele>
        <time>2015-06-28T00:41:51Z</time>
      </trkpt>
      <trkpt lat="45.72053" lon="4.41402">
        <ele>641.4862</ele>
        <time>2015-06-28T00:41:56Z</time>
      </trkpt>
      <trkpt lat="45.72049" lon="4.41394">
        <ele>641.4862</ele>
        <time>2015-06-28T00:42:01Z</time>
      </trkpt>
      <trkpt lat="45.72048" lon="4.41385">
        <ele>639.4448</ele>
        <time>2015-06-28T00:42:06Z</time>
      </trkpt>
      <trkpt lat="45.72048" lon="4.41379">
        <ele>639.4448</ele>
        <time>2015-06-28T00:42:11Z</time>
      </trkpt>
      <trkpt lat="45.72046" lon="4.41371">
        <ele>637.43695</ele>
        <time>2015-06-28T00:42:16Z</time>
      </trkpt>
      <trkpt lat="45.72044" lon="4.41359">
        <ele>637.43695</ele>
        <time>2015-06-28T00:42:21Z</time>
      </trkpt>
      <trkpt lat="45.72043" lon="4.4135">
        <ele>635.3367</ele>
        <time>2015-06-28T00:42:26Z</time>
      </trkpt>
      <trkpt lat="45.7204" lon="4.41346">
        <ele>635.3367</ele>
        <time>2015-06-28T00:42:31Z</time>
      </trkpt>
      <trkpt lat="45.72038" lon="4.4134">
        <ele>633.1572</ele>
        <time>2015-06-28T00:42:36Z</time>
      </trkpt>
      <trkpt lat="45.72036" lon="4.41333">
        <ele>633.1572</ele>
        <time>2015-06-28T00:42:41Z</time>
      </trkpt>
      <trkpt lat="45.72034" lon="4.41323">
        <ele>630.9684</ele>
        <time>2015-06-28T00:42:46Z</time>
      </trkpt>
      <trkpt lat="45.72032" lon="4.41316">
        <ele>630.9684</ele>
        <time>2015-06-28T00:42:51Z</time>
      </trkpt>
      <trkpt lat="45.72029" lon="4.41307">
        <ele>628.8204</ele>
        <time>2015-06-28T00:42:56Z</time>
      </trkpt>
      <trkpt lat="45.72026" lon="4.41299">
        <ele>628.8204</ele>
        <time>2015-06-28T00:43:01Z</time>
      </trkpt>
      <trkpt lat="45.72023" lon="4.41292">
        <ele>626.7595</ele>
        <time>2015-06-28T00:43:06Z</time>
      </trkpt>
      <trkpt lat="45.72021" lon="4.41284">
        <ele>626.7595</ele>
        <time>2015-06-28T00:43:11Z</time>
      </trkpt>
      <trkpt lat="45.72019" lon="4.41275">
        <ele>624.75604</ele>
        <time>2015-06-28T00:43:16Z</time>
      </trkpt>
      <trkpt lat="45.72019" lon="4.41266">
        <ele>624.75604</ele>
        <time>2015-06-28T00:43:21Z</time>
      </trkpt>
      <trkpt lat="45.72016" lon="4.41259">
        <ele>622.81104</ele>
        <time>2015-06-28T00:43:26Z</time>
      </trkpt>
      <trkpt lat="45.72011" lon="4.41252">
        <ele>622.81104</ele>
        <time>2015-06-28T00:43:31Z</time>
      </trkpt>
      <trkpt lat="45.72007" lon="4.41244">
        <ele>620.95386</ele>
        <time>2015-06-28T00:43:36Z</time>
      </trkpt>
      <trkpt lat="45.72002" lon="4.41234">
        <ele>620.95386</ele>
        <time>2015-06-28T00:43:41Z</time>
      </trkpt>
      <trkpt lat="45.72001" lon="4.41226">
        <ele>619.11053</ele>
        <time>2015-06-28T00:43:46Z</time>
      </trkpt>
      <trkpt lat="45.71999" lon="4.4122">
        <ele>619.11053</ele>
        <time>2015-06-28T00:43:51Z</time>
      </trkpt>
      <trkpt lat="45.71999" lon="4.41212">
        <ele>617.3275</ele>
        <time>2015-06-28T00:43:56Z</time>
      </trkpt>
      <trkpt lat="45.71995" lon="4.41204">
        <ele>617.3275</ele>
        <time>2015-06-28T00:44:01Z</time>
      </trkpt>
      <trkpt lat="45.71991" lon="4.41195">
        <ele>615.64746</ele>
        <time>2015-06-28T00:44:06Z</time>
      </trkpt>
      <trkpt lat="45.71988" lon="4.41187">
        <ele>615.64746</ele>
        <time>2015-06-28T00:44:11Z</time>
      </trkpt>
      <trkpt lat="45.71985" lon="4.41178">
        <ele>613.9509</ele>
        <time>2015-06-28T00:44:16Z</time>
      </trkpt>
      <trkpt lat="45.71983" lon="4.41167">
        <ele>613.9509</ele>
        <time>2015-06-28T00:44:21Z</time>
      </trkpt>
      <trkpt lat="45.71981" lon="4.41157">
        <ele>612.19916</ele>
        <time>2015-06-28T00:44:26Z</time>
      </trkpt>
      <trkpt lat="45.7198" lon="4.41148">
        <ele>612.19916</ele>
        <time>2015-06-28T00:44:31Z</time>
      </trkpt>
      <trkpt lat="45.71977" lon="4.41143">
        <ele>610.6158</ele>
        <time>2015-06-28T00:44:36Z</time>
      </trkpt>
      <trkpt lat="45.71973" lon="4.41134">
        <ele>610.6158</ele>
        <time>2015-06-28T00:44:41Z</time>
      </trkpt>
      <trkpt lat="45.71969" lon="4.41127">
        <ele>609.0036</ele>
        <time>2015-06-28T00:44:46Z</time>
      </trkpt>
      <trkpt lat="45.71964" lon="4.41122">
        <ele>609.0036</ele>
        <time>2015-06-28T00:44:51Z</time>
      </trkpt>
      <trkpt lat="45.71956" lon="4.41115">
        <ele>607.36725</ele>
        <time>2015-06-28T00:44:56Z</time>
      </trkpt>
      <trkpt lat="45.71952" lon="4.41109">
        <ele>607.36725</ele>
        <time>2015-06-28T00:45:01Z</time>
      </trkpt>
      <trkpt lat="45.71947" lon="4.41104">
        <ele>605.75433</ele>
        <time>2015-06-28T00:45:06Z</time>
      </trkpt>
      <trkpt lat="45.71944" lon="4.411">
        <ele>605.75433</ele>
        <time>2015-06-28T00:45:11Z</time>
      </trkpt>
      <trkpt lat="45.71942" lon="4.41096">
        <ele>605.75433</ele>
        <time>2015-06-28T00:45:16Z</time>
      </trkpt>
      <trkpt lat="45.71938" lon="4.41092">
        <ele>604.2373</ele>
        <time>2015-06-28T00:45:21Z</time>
      </trkpt>
      <trkpt lat="45.71934" lon="4.41085">
        <ele>604.2373</ele>
        <time>2015-06-28T00:45:26Z</time>
      </trkpt>
      <trkpt lat="45.71931" lon="4.41075">
        <ele>603.04156</ele>
        <time>2015-06-28T00:45:31Z</time>
      </trkpt>
      <trkpt lat="45.71928" lon="4.41064">
        <ele>603.04156</ele>
        <time>2015-06-28T00:45:36Z</time>
      </trkpt>
      <trkpt lat="45.71926" lon="4.41055">
        <ele>602.1587</ele>
        <time>2015-06-28T00:45:41Z</time>
      </trkpt>
      <trkpt lat="45.71924" lon="4.41046">
        <ele>602.1587</ele>
        <time>2015-06-28T00:45:46Z</time>
      </trkpt>
      <trkpt lat="45.71922" lon="4.41037">
        <ele>601.4069</ele>
        <time>2015-06-28T00:45:51Z</time>
      </trkpt>
      <trkpt lat="45.71919" lon="4.41024">
        <ele>600.74713</ele>
        <time>2015-06-28T00:45:56Z</time>
      </trkpt>
      <trkpt lat="45.71918" lon="4.41015">
        <ele>600.74713</ele>
        <time>2015-06-28T00:46:01Z</time>
      </trkpt>
      <trkpt lat="45.71917" lon="4.41008">
        <ele>599.9985</ele>
        <time>2015-06-28T00:46:06Z</time>
      </trkpt>
      <trkpt lat="45.71914" lon="4.40997">
        <ele>599.9985</ele>
        <time>2015-06-28T00:46:11Z</time>
      </trkpt>
      <trkpt lat="45.71912" lon="4.40988">
        <ele>599.3251</ele>
        <time>2015-06-28T00:46:16Z</time>
      </trkpt>
      <trkpt lat="45.71909" lon="4.40981">
        <ele>599.3251</ele>
        <time>2015-06-28T00:46:21Z</time>
      </trkpt>
      <trkpt lat="45.71906" lon="4.40973">
        <ele>598.77783</ele>
        <time>2015-06-28T00:46:26Z</time>
      </trkpt>
      <trkpt lat="45.71902" lon="4.40968">
        <ele>598.77783</ele>
        <time>2015-06-28T00:46:31Z</time>
      </trkpt>
      <trkpt lat="45.71896" lon="4.40959">
        <ele>598.2881</ele>
        <time>2015-06-28T00:46:36Z</time>
      </trkpt>
      <trkpt lat="45.71892" lon="4.40952">
        <ele>598.2881</ele>
        <time>2015-06-28T00:46:41Z</time>
      </trkpt>
      <trkpt lat="45.71887" lon="4.40943">
        <ele>597.965</ele>
        <time>2015-06-28T00:46:46Z</time>
      </trkpt>
      <trkpt lat="45.71883" lon="4.40933">
        <ele>597.965</ele>
        <time>2015-06-28T00:46:51Z</time>
      </trkpt>
      <trkpt lat="45.71876" lon="4.40924">
        <ele>597.62103</ele>
        <time>2015-06-28T00:46:56Z</time>
      </trkpt>
      <trkpt lat="45.71872" lon="4.40916">
        <ele>597.62103</ele>
        <time>2015-06-28T00:47:01Z</time>
      </trkpt>
      <trkpt lat="45.71865" lon="4.40907">
        <ele>597.1976</ele>
        <time>2015-06-28T00:47:06Z</time>
      </trkpt>
      <trkpt lat="45.71859" lon="4.40902">
        <ele>597.1976</ele>
        <time>2015-06-28T00:47:11Z</time>
      </trkpt>
      <trkpt lat="45.71855" lon="4.40897">
        <ele>596.65497</ele>
        <time>2015-06-28T00:47:16Z</time>
      </trkpt>
      <trkpt lat="45.71849" lon="4.40891">
        <ele>596.65497</ele>
        <time>2015-06-28T00:47:21Z</time>
      </trkpt>
      <trkpt lat="45.71844" lon="4.40886">
        <ele>596.2019</ele>
        <time>2015-06-28T00:47:26Z</time>
      </trkpt>
      <trkpt lat="45.71839" lon="4.40879">
        <ele>596.2019</ele>
        <time>2015-06-28T00:47:31Z</time>
      </trkpt>
      <trkpt lat="45.71836" lon="4.40871">
        <ele>595.91595</ele>
        <time>2015-06-28T00:47:36Z</time>
      </trkpt>
      <trkpt lat="45.71835" lon="4.40859">
        <ele>595.91595</ele>
        <time>2015-06-28T00:47:41Z</time>
      </trkpt>
      <trkpt lat="45.71836" lon="4.4085">
        <ele>595.6238</ele>
        <time>2015-06-28T00:47:46Z</time>
      </trkpt>
      <trkpt lat="45.71837" lon="4.40842">
        <ele>595.6238</ele>
        <time>2015-06-28T00:47:51Z</time>
      </trkpt>
      <trkpt lat="45.71837" lon="4.40831">
        <ele>595.35187</ele>
        <time>2015-06-28T00:47:56Z</time>
      </trkpt>
      <trkpt lat="45.71839" lon="4.40824">
        <ele>595.35187</ele>
        <time>2015-06-28T00:48:01Z</time>
      </trkpt>
      <trkpt lat="45.7184" lon="4.40814">
        <ele>595.1105</ele>
        <time>2015-06-28T00:48:06Z</time>
      </trkpt>
      <trkpt lat="45.71842" lon="4.40805">
        <ele>595.1105</ele>
        <time>2015-06-28T00:48:11Z</time>
      </trkpt>
      <trkpt lat="45.71845" lon="4.40797">
        <ele>594.93787</ele>
        <time>2015-06-28T00:48:16Z</time>
      </trkpt>
      <trkpt lat="45.71851" lon="4.40789">
        <ele>594.93787</ele>
        <time>2015-06-28T00:48:21Z</time>
      </trkpt>
      <trkpt lat="45.71856" lon="4.40789">
        <ele>594.8692</ele>
        <time>2015-06-28T00:48:26Z</time>
      </trkpt>
      <trkpt lat="45.71862" lon="4.40788">
        <ele>594.8692</ele>
        <time>2015-06-28T00:48:31Z</time>
      </trkpt>
      <trkpt lat="45.71871" lon="4.40788">
        <ele>594.836</ele>
        <time>2015-06-28T00:48:36Z</time>
      </trkpt>
      <trkpt lat="45.71879" lon="4.40788">
        <ele>594.836</ele>
        <time>2015-06-28T00:48:41Z</time>
      </trkpt>
      <trkpt lat="45.71884" lon="4.40784">
        <ele>594.8901</ele>
        <time>2015-06-28T00:48:46Z</time>
      </trkpt>
      <trkpt lat="45.71889" lon="4.40783">
        <ele>594.8901</ele>
        <time>2015-06-28T00:48:51Z</time>
      </trkpt>
      <trkpt lat="45.71898" lon="4.40782">
        <ele>594.93506</ele>
        <time>2015-06-28T00:48:56Z</time>
      </trkpt>
      <trkpt lat="45.71903" lon="4.40781">
        <ele>594.93506</ele>
        <time>2015-06-28T00:49:01Z</time>
      </trkpt>
      <trkpt lat="45.7191" lon="4.40777">
        <ele>595.0258</ele>
        <time>2015-06-28T00:49:06Z</time>
      </trkpt>
      <trkpt lat="45.71917" lon="4.40777">
        <ele>595.0258</ele>
        <time>2015-06-28T00:49:11Z</time>
      </trkpt>
      <trkpt lat="45.71924" lon="4.40775">
        <ele>595.1844</ele>
        <time>2015-06-28T00:49:16Z</time>
      </trkpt>
      <trkpt lat="45.7193" lon="4.40774">
        <ele>595.1844</ele>
        <time>2015-06-28T00:49:21Z</time>
      </trkpt>
      <trkpt lat="45.71934" lon="4.40772">
        <ele>595.45984</ele>
        <time>2015-06-28T00:49:26Z</time>
      </trkpt>
      <trkpt lat="45.71937" lon="4.4077">
        <ele>595.45984</ele>
        <time>2015-06-28T00:49:31Z</time>
      </trkpt>
      <trkpt lat="45.7194" lon="4.40769">
        <ele>595.45984</ele>
        <time>2015-06-28T00:49:36Z</time>
      </trkpt>
      <trkpt lat="45.71944" lon="4.40769">
        <ele>595.85406</ele>
        <time>2015-06-28T00:49:41Z</time>
      </trkpt>
      <trkpt lat="45.7195" lon="4.4077">
        <ele>595.85406</ele>
        <time>2015-06-28T00:49:46Z</time>
      </trkpt>
      <trkpt lat="45.71955" lon="4.40771">
        <ele>596.3976</ele>
        <time>2015-06-28T00:49:51Z</time>
      </trkpt>
      <trkpt lat="45.71959" lon="4.40774">
        <ele>596.3976</ele>
        <time>2015-06-28T00:49:56Z</time>
      </trkpt>
      <trkpt lat="45.71963" lon="4.40773">
        <ele>596.3976</ele>
        <time>2015-06-28T00:50:01Z</time>
      </trkpt>
      <trkpt lat="45.71971" lon="4.40775">
        <ele>597.11816</ele>
        <time>2015-06-28T00:50:06Z</time>
      </trkpt>
      <trkpt lat="45.71979" lon="4.40779">
        <ele>597.11816</ele>
        <time>2015-06-28T00:50:11Z</time>
      </trkpt>
      <trkpt lat="45.71983" lon="4.4078">
        <ele>597.9259</ele>
        <time>2015-06-28T00:50:16Z</time>
      </trkpt>
      <trkpt lat="45.7199" lon="4.40781">
        <ele>597.9259</ele>
        <time>2015-06-28T00:50:21Z</time>
      </trkpt>
      <trkpt lat="45.71995" lon="4.40782">
        <ele>598.7373</ele>
        <time>2015-06-28T00:50:26Z</time>
      </trkpt>
      <trkpt lat="45.72002" lon="4.40782">
        <ele>598.7373</ele>
        <time>2015-06-28T00:50:31Z</time>
      </trkpt>
      <trkpt lat="45.72007" lon="4.40781">
        <ele>599.6193</ele>
        <time>2015-06-28T00:50:36Z</time>
      </trkpt>
      <trkpt lat="45.72014" lon="4.40781">
        <ele>599.6193</ele>
        <time>2015-06-28T00:50:41Z</time>
      </trkpt>
      <trkpt lat="45.72022" lon="4.40783">
        <ele>600.5761</ele>
        <time>2015-06-28T00:50:46Z</time>
      </trkpt>
      <trkpt lat="45.72029" lon="4.40787">
        <ele>600.5761</ele>
        <time>2015-06-28T00:50:51Z</time>
      </trkpt>
      <trkpt lat="45.72033" lon="4.40787">
        <ele>601.5539</ele>
        <time>2015-06-28T00:50:56Z</time>
      </trkpt>
      <trkpt lat="45.72037" lon="4.40781">
        <ele>601.5539</ele>
        <time>2015-06-28T00:51:01Z</time>
      </trkpt>
      <trkpt lat="45.72037" lon="4.40773">
        <ele>602.4597</ele>
        <time>2015-06-28T00:51:06Z</time>
      </trkpt>
      <trkpt lat="45.72038" lon="4.40761">
        <ele>602.4597</ele>
        <time>2015-06-28T00:51:11Z</time>
      </trkpt>
      <trkpt lat="45.72039" lon="4.4075">
        <ele>603.26526</ele>
        <time>2015-06-28T00:51:16Z</time>
      </trkpt>
      <trkpt lat="45.72038" lon="4.40739">
        <ele>603.26526</ele>
        <time>2015-06-28T00:51:21Z</time>
      </trkpt>
      <trkpt lat="45.72038" lon="4.40731">
        <ele>603.8728</ele>
        <time>2015-06-28T00:51:26Z</time>
      </trkpt>
      <trkpt lat="45.72038" lon="4.4072">
        <ele>603.8728</ele>
        <time>2015-06-28T00:51:31Z</time>
      </trkpt>
      <trkpt lat="45.72037" lon="4.40709">
        <ele>604.36536</ele>
        <time>2015-06-28T00:51:36Z</time>
      </trkpt>
      <trkpt lat="45.72035" lon="4.40697">
        <ele>604.36536</ele>
        <time>2015-06-28T00:51:41Z</time>
      </trkpt>
      <trkpt lat="45.72033" lon="4.40689">
        <ele>604.5609</ele>
        <time>2015-06-28T00:51:46Z</time>
      </trkpt>
      <trkpt lat="45.72032" lon="4.40682">
        <ele>604.5609</ele>
        <time>2015-06-28T00:51:51Z</time>
      </trkpt>
      <trkpt lat="45.72031" lon="4.40675">
        <ele>604.53674</ele>
        <time>2015-06-28T00:51:56Z</time>
      </trkpt>
      <trkpt lat="45.72028" lon="4.40666">
        <ele>604.53674</ele>
        <time>2015-06-28T00:52:01Z</time>
      </trkpt>
      <trkpt lat="45.72026" lon="4.40656">
        <ele>604.2644</ele>
        <time>2015-06-28T00:52:06Z</time>
      </trkpt>
      <trkpt lat="45.72024" lon="4.40645">
        <ele>604.2644</ele>
        <time>2015-06-28T00:52:11Z</time>
      </trkpt>
      <trkpt lat="45.72023" lon="4.40636">
        <ele>603.77594</ele>
        <time>2015-06-28T00:52:16Z</time>
      </trkpt>
      <trkpt lat="45.72023" lon="4.40626">
        <ele>603.77594</ele>
        <time>2015-06-28T00:52:21Z</time>
      </trkpt>
      <trkpt lat="45.72025" lon="4.40621">
        <ele>603.18823</ele>
        <time>2015-06-28T00:52:26Z</time>
      </trkpt>
      <trkpt lat="45.72025" lon="4.40612">
        <ele>603.18823</ele>
        <time>2015-06-28T00:52:31Z</time>
      </trkpt>
      <trkpt lat="45.72027" lon="4.40604">
        <ele>602.4227</ele>
        <time>2015-06-28T00:52:36Z</time>
      </trkpt>
      <trkpt lat="45.7203" lon="4.40592">
        <ele>602.4227</ele>
        <time>2015-06-28T00:52:41Z</time>
      </trkpt>
      <trkpt lat="45.72031" lon="4.40585">
        <ele>601.5223</ele>
        <time>2015-06-28T00:52:46Z</time>
      </trkpt>
      <trkpt lat="45.72033" lon="4.40578">
        <ele>601.5223</ele>
        <time>2015-06-28T00:52:51Z</time>
      </trkpt>
      <trkpt lat="45.72033" lon="4.4057">
        <ele>600.49854</ele>
        <time>2015-06-28T00:52:56Z</time>
      </trkpt>
      <trkpt lat="45.72033" lon="4.40562">
        <ele>600.49854</ele>
        <time>2015-06-28T00:53:01Z</time>
      </trkpt>
      <trkpt lat="45.72034" lon="4.40558">
        <ele>600.49854</ele>
        <time>2015-06-28T00:53:06Z</time>
      </trkpt>
      <trkpt lat="45.72034" lon="4.4055">
        <ele>599.2328</ele>
        <time>2015-06-28T00:53:11Z</time>
      </trkpt>
      <trkpt lat="45.72036" lon="4.40546">
        <ele>599.2328</ele>
        <time>2015-06-28T00:53:16Z</time>
      </trkpt>
      <trkpt lat="45.72037" lon="4.40541">
        <ele>599.2328</ele>
        <time>2015-06-28T00:53:21Z</time>
      </trkpt>
      <trkpt lat="45.72039" lon="4.40534">
        <ele>597.9329</ele>
        <time>2015-06-28T00:53:26Z</time>
      </trkpt>
      <trkpt lat="45.72038" lon="4.4053">
        <ele>597.9329</ele>
        <time>2015-06-28T00:53:31Z</time>
      </trkpt>
      <trkpt lat="45.72039" lon="4.4052">
        <ele>596.6332</ele>
        <time>2015-06-28T00:53:36Z</time>
      </trkpt>
      <trkpt lat="45.72039" lon="4.40512">
        <ele>596.6332</ele>
        <time>2015-06-28T00:53:41Z</time>
      </trkpt>
      <trkpt lat="45.72039" lon="4.40506">
        <ele>595.16364</ele>
        <time>2015-06-28T00:53:46Z</time>
      </trkpt>
      <trkpt lat="45.72039" lon="4.40502">
        <ele>595.16364</ele>
        <time>2015-06-28T00:53:51Z</time>
      </trkpt>
      <trkpt lat="45.7204" lon="4.40495">
        <ele>595.16364</ele>
        <time>2015-06-28T00:53:56Z</time>
      </trkpt>
      <trkpt lat="45.72039" lon="4.4049">
        <ele>593.5834</ele>
        <time>2015-06-28T00:54:01Z</time>
      </trkpt>
      <trkpt lat="45.72038" lon="4.40485">
        <ele>593.5834</ele>
        <time>2015-06-28T00:54:06Z</time>
      </trkpt>
      <trkpt lat="45.72037" lon="4.40479">
        <ele>593.5834</ele>
        <time>2015-06-28T00:54:11Z</time>
      </trkpt>
      <trkpt lat="45.72037" lon="4.40477">
        <ele>591.8467</ele>
        <time>2015-06-28T00:54:16Z</time>
      </trkpt>
      <trkpt lat="45.72036" lon="4.40467">
        <ele>591.8467</ele>
        <time>2015-06-28T00:54:21Z</time>
      </trkpt>
      <trkpt lat="45.72036" lon="4.40457">
        <ele>590.14215</ele>
        <time>2015-06-28T00:54:26Z</time>
      </trkpt>
      <trkpt lat="45.72036" lon="4.40454">
        <ele>590.14215</ele>
        <time>2015-06-28T00:54:31Z</time>
      </trkpt>
      <trkpt lat="45.72035" lon="4.40452">
        <ele>590.14215</ele>
        <time>2015-06-28T00:54:36Z</time>
      </trkpt>
      <trkpt lat="45.72034" lon="4.40449">
        <ele>590.14215</ele>
        <time>2015-06-28T00:54:41Z</time>
      </trkpt>
      <trkpt lat="45.72032" lon="4.40445">
        <ele>588.3563</ele>
        <time>2015-06-28T00:54:46Z</time>
      </trkpt>
      <trkpt lat="45.7203" lon="4.40434">
        <ele>588.3563</ele>
        <time>2015-06-28T00:54:51Z</time>
      </trkpt>
      <trkpt lat="45.72028" lon="4.40428">
        <ele>586.68677</ele>
        <time>2015-06-28T00:54:56Z</time>
      </trkpt>
      <trkpt lat="45.72027" lon="4.40419">
        <ele>586.68677</ele>
        <time>2015-06-28T00:55:01Z</time>
      </trkpt>
      <trkpt lat="45.72027" lon="4.40415">
        <ele>585.1866</ele>
        <time>2015-06-28T00:55:06Z</time>
      </trkpt>
      <trkpt lat="45.72026" lon="4.40411">
        <ele>585.1866</ele>
        <time>2015-06-28T00:55:11Z</time>
      </trkpt>
      <trkpt lat="45.72025" lon="4.40408">
        <ele>585.1866</ele>
        <time>2015-06-28T00:55:16Z</time>
      </trkpt>
      <trkpt lat="45.72023" lon="4.40403">
        <ele>585.1866</ele>
        <time>2015-06-28T00:55:21Z</time>
      </trkpt>
      <trkpt lat="45.72023" lon="4.40399">
        <ele>583.6738</ele>
        <time>2015-06-28T00:55:26Z</time>
      </trkpt>
      <trkpt lat="45.72021" lon="4.40392">
        <ele>583.6738</ele>
        <time>2015-06-28T00:55:31Z</time>
      </trkpt>
      <trkpt lat="45.72019" lon="4.4039">
        <ele>583.6738</ele>
        <time>2015-06-28T00:55:36Z</time>
      </trkpt>
      <trkpt lat="45.72016" lon="4.40388">
        <ele>582.03754</ele>
        <time>2015-06-28T00:55:41Z</time>
      </trkpt>
      <trkpt lat="45.72013" lon="4.40382">
        <ele>582.03754</ele>
        <time>2015-06-28T00:55:46Z</time>
      </trkpt>
      <trkpt lat="45.72009" lon="4.40372">
        <ele>580.4779</ele>
        <time>2015-06-28T00:55:51Z</time>
      </trkpt>
      <trkpt lat="45.72006" lon="4.40365">
        <ele>580.4779</ele>
        <time>2015-06-28T00:55:56Z</time>
      </trkpt>
      <trkpt lat="45.72003" lon="4.40358">
        <ele>578.93506</ele>
        <time>2015-06-28T00:56:01Z</time>
      </trkpt>
      <trkpt lat="45.71999" lon="4.40354">
        <ele>578.93506</ele>
        <time>2015-06-28T00:56:06Z</time>
      </trkpt>
      <trkpt lat="45.71997" lon="4.40347">
        <ele>577.3967</ele>
        <time>2015-06-28T00:56:11Z</time>
      </trkpt>
      <trkpt lat="45.71995" lon="4.4034">
        <ele>577.3967</ele>
        <time>2015-06-28T00:56:16Z</time>
      </trkpt>
      <trkpt lat="45.71991" lon="4.40331">
        <ele>575.981</ele>
        <time>2015-06-28T00:56:21Z</time>
      </trkpt>
      <trkpt lat="45.71987" lon="4.40326">
        <ele>575.981</ele>
        <time>2015-06-28T00:56:26Z</time>
      </trkpt>
      <trkpt lat="45.71982" lon="4.40319">
        <ele>574.7539</ele>
        <time>2015-06-28T00:56:31Z</time>
      </trkpt>
      <trkpt lat="45.71978" lon="4.40311">
        <ele>574.7539</ele>
        <time>2015-06-28T00:56:36Z</time>
      </trkpt>
      <trkpt lat="45.71975" lon="4.40301">
        <ele>573.8333</ele>
        <time>2015-06-28T00:56:41Z</time>
      </trkpt>
      <trkpt lat="45.71971" lon="4.40292">
        <ele>573.8333</ele>
        <time>2015-06-28T00:56:46Z</time>
      </trkpt>
      <trkpt lat="45.71969" lon="4.40286">
        <ele>573.054</ele>
        <time>2015-06-28T00:56:51Z</time>
      </trkpt>
      <trkpt lat="45.71967" lon="4.40277">
        <ele>573.054</ele>
        <time>2015-06-28T00:56:56Z</time>
      </trkpt>
      <trkpt lat="45.71964" lon="4.40272">
        <ele>572.3342</ele>
        <time>2015-06-28T00:57:01Z</time>
      </trkpt>
      <trkpt lat="45.71959" lon="4.40267">
        <ele>572.3342</ele>
        <time>2015-06-28T00:57:06Z</time>
      </trkpt>
      <trkpt lat="45.71954" lon="4.40259">
        <ele>571.6991</ele>
        <time>2015-06-28T00:57:11Z</time>
      </trkpt>
      <trkpt lat="45.7195" lon="4.40256">
        <ele>571.6991</ele>
        <time>2015-06-28T00:57:16Z</time>
      </trkpt>
      <trkpt lat="45.71945" lon="4.4025">
        <ele>571.1426</ele>
        <time>2015-06-28T00:57:21Z</time>
      </trkpt>
      <trkpt lat="45.7194" lon="4.40245">
        <ele>571.1426</ele>
        <time>2015-06-28T00:57:26Z</time>
      </trkpt>
      <trkpt lat="45.71934" lon="4.4024">
        <ele>570.6445</ele>
        <time>2015-06-28T00:57:31Z</time>
      </trkpt>
      <trkpt lat="45.71929" lon="4.40232">
        <ele>570.6445</ele>
        <time>2015-06-28T00:57:36Z</time>
      </trkpt>
      <trkpt lat="45.71926" lon="4.40228">
        <ele>570.1281</ele>
        <time>2015-06-28T00:57:41Z</time>
      </trkpt>
      <trkpt lat="45.71921" lon="4.40223">
        <ele>570.1281</ele>
        <time>2015-06-28T00:57:46Z</time>
      </trkpt>
      <trkpt lat="45.71917" lon="4.40218">
        <ele>569.4649</ele>
        <time>2015-06-28T00:57:51Z</time>
      </trkpt>
      <trkpt lat="45.71911" lon="4.40215">
        <ele>569.4649</ele>
        <time>2015-06-28T00:57:56Z</time>
      </trkpt>
      <trkpt lat="45.71908" lon="4.40211">
        <ele>568.8531</ele>
        <time>2015-06-28T00:58:01Z</time>
      </trkpt>
      <trkpt lat="45.71904" lon="4.40207">
        <ele>568.8531</ele>
        <time>2015-06-28T00:58:06Z</time>
      </trkpt>
      <trkpt lat="45.71899" lon="4.40205">
        <ele>568.2743</ele>
        <time>2015-06-28T00:58:11Z</time>
      </trkpt>
      <trkpt lat="45.71897" lon="4.40201">
        <ele>568.2743</ele>
        <time>2015-06-28T00:58:16Z</time>
      </trkpt>
      <trkpt lat="45.71896" lon="4.40195">
        <ele>568.2743</ele>
        <time>2015-06-28T00:58:21Z</time>
      </trkpt>
      <trkpt lat="45.71896" lon="4.40188">
        <ele>567.68274</ele>
        <time>2015-06-28T00:58:26Z</time>
      </trkpt>
      <trkpt lat="45.71894" lon="4.40179">
        <ele>567.68274</ele>
        <time>2015-06-28T00:58:31Z</time>
      </trkpt>
      <trkpt lat="45.7189" lon="4.40172">
        <ele>567.1799</ele>
        <time>2015-06-28T00:58:36Z</time>
      </trkpt>
      <trkpt lat="45.71886" lon="4.40167">
        <ele>567.1799</ele>
        <time>2015-06-28T00:58:41Z</time>
      </trkpt>
      <trkpt lat="45.7188" lon="4.40162">
        <ele>566.8597</ele>
        <time>2015-06-28T00:58:46Z</time>
      </trkpt>
      <trkpt lat="45.71876" lon="4.40159">
        <ele>566.8597</ele>
        <time>2015-06-28T00:58:51Z</time>
      </trkpt>
      <trkpt lat="45.71871" lon="4.40156">
        <ele>566.62103</ele>
        <time>2015-06-28T00:58:56Z</time>
      </trkpt>
      <trkpt lat="45.71864" lon="4.40154">
        <ele>566.62103</ele>
        <time>2015-06-28T00:59:01Z</time>
      </trkpt>
      <trkpt lat="45.71859" lon="4.40147">
        <ele>566.5432</ele>
        <time>2015-06-28T00:59:06Z</time>
      </trkpt>
      <trkpt lat="45.71852" lon="4.40147">
        <ele>566.5432</ele>
        <time>2015-06-28T00:59:11Z</time>
      </trkpt>
      <trkpt lat="45.71844" lon="4.40146">
        <ele>566.5117</ele>
        <time>2015-06-28T00:59:16Z</time>
      </trkpt>
      <trkpt lat="45.71836" lon="4.40144">
        <ele>566.5117</ele>
        <time>2015-06-28T00:59:21Z</time>
      </trkpt>
      <trkpt lat="45.7183" lon="4.40142">
        <ele>566.4347</ele>
        <time>2015-06-28T00:59:26Z</time>
      </trkpt>
      <trkpt lat="45.71824" lon="4.40141">
        <ele>566.4347</ele>
        <time>2015-06-28T00:59:31Z</time>
      </trkpt>
      <trkpt lat="45.71816" lon="4.4014">
        <ele>566.52985</ele>
        <time>2015-06-28T00:59:36Z</time>
      </trkpt>
      <trkpt lat="45.71808" lon="4.40141">
        <ele>566.52985</ele>
        <time>2015-06-28T00:59:41Z</time>
      </trkpt>
      <trkpt lat="45.71801" lon="4.40142">
        <ele>566.6382</ele>
        <time>2015-06-28T00:59:46Z</time>
      </trkpt>
      <trkpt lat="45.71794" lon="4.40142">
        <ele>566.6382</ele>
        <time>2015-06-28T00:59:51Z</time>
      </trkpt>
      <trkpt lat="45.7179" lon="4.40142">
        <ele>566.7419</ele>
        <time>2015-06-28T00:59:56Z</time>
      </trkpt>
      <trkpt lat="45.71785" lon="4.40142">
        <ele>566.7419</ele>
        <time>2015-06-28T01:00:01Z</time>
      </trkpt>
      <trkpt lat="45.71778" lon="4.40142">
        <ele>566.8535</ele>
        <time>2015-06-28T01:00:06Z</time>
      </trkpt>
      <trkpt lat="45.71775" lon="4.40141">
        <ele>566.8535</ele>
        <time>2015-06-28T01:00:11Z</time>
      </trkpt>
      <trkpt lat="45.71769" lon="4.4014">
        <ele>566.81165</ele>
        <time>2015-06-28T01:00:16Z</time>
      </trkpt>
      <trkpt lat="45.71764" lon="4.40137">
        <ele>566.81165</ele>
        <time>2015-06-28T01:00:21Z</time>
      </trkpt>
      <trkpt lat="45.71756" lon="4.40131">
        <ele>566.7409</ele>
        <time>2015-06-28T01:00:26Z</time>
      </trkpt>
      <trkpt lat="45.7175" lon="4.40128">
        <ele>566.7409</ele>
        <time>2015-06-28T01:00:31Z</time>
      </trkpt>
      <trkpt lat="45.71742" lon="4.40124">
        <ele>566.8435</ele>
        <time>2015-06-28T01:00:36Z</time>
      </trkpt>
      <trkpt lat="45.71735" lon="4.40121">
        <ele>566.8435</ele>
        <time>2015-06-28T01:00:41Z</time>
      </trkpt>
      <trkpt lat="45.71728" lon="4.40114">
        <ele>567.0469</ele>
        <time>2015-06-28T01:00:46Z</time>
      </trkpt>
      <trkpt lat="45.71723" lon="4.40111">
        <ele>567.0469</ele>
        <time>2015-06-28T01:00:51Z</time>
      </trkpt>
      <trkpt lat="45.71718" lon="4.40106">
        <ele>567.3411</ele>
        <time>2015-06-28T01:00:56Z</time>
      </trkpt>
      <trkpt lat="45.71713" lon="4.401">
        <ele>567.3411</ele>
        <time>2015-06-28T01:01:01Z</time>
      </trkpt>
      <trkpt lat="45.71708" lon="4.40095">
        <ele>567.64496</ele>
        <time>2015-06-28T01:01:06Z</time>
      </trkpt>
      <trkpt lat="45.71702" lon="4.40087">
        <ele>567.64496</ele>
        <time>2015-06-28T01:01:11Z</time>
      </trkpt>
      <trkpt lat="45.71698" lon="4.40081">
        <ele>567.9117</ele>
        <time>2015-06-28T01:01:16Z</time>
      </trkpt>
      <trkpt lat="45.71695" lon="4.40075">
        <ele>567.9117</ele>
        <time>2015-06-28T01:01:21Z</time>
      </trkpt>
      <trkpt lat="45.71693" lon="4.40067">
        <ele>568.2425</ele>
        <time>2015-06-28T01:01:26Z</time>
      </trkpt>
      <trkpt lat="45.71689" lon="4.40058">
        <ele>568.2425</ele>
        <time>2015-06-28T01:01:31Z</time>
      </trkpt>
      <trkpt lat="45.71686" lon="4.4005">
        <ele>568.68774</ele>
        <time>2015-06-28T01:01:36Z</time>
      </trkpt>
      <trkpt lat="45.71683" lon="4.40042">
        <ele>568.68774</ele>
        <time>2015-06-28T01:01:41Z</time>
      </trkpt>
      <trkpt lat="45.7168" lon="4.40032">
        <ele>569.1929</ele>
        <time>2015-06-28T01:01:46Z</time>
      </trkpt>
      <trkpt lat="45.71678" lon="4.40024">
        <ele>569.1929</ele>
        <time>2015-06-28T01:01:51Z</time>
      </trkpt>
      <trkpt lat="45.71675" lon="4.40017">
        <ele>569.6208</ele>
        <time>2015-06-28T01:01:56Z</time>
      </trkpt>
      <trkpt lat="45.71672" lon="4.40011">
        <ele>569.6208</ele>
        <time>2015-06-28T01:02:01Z</time>
      </trkpt>
      <trkpt lat="45.7167" lon="4.40005">
        <ele>570.03217</ele>
        <time>2015-06-28T01:02:06Z</time>
      </trkpt>
      <trkpt lat="45.71668" lon="4.39999">
        <ele>570.03217</ele>
        <time>2015-06-28T01:02:11Z</time>
      </trkpt>
      <trkpt lat="45.71664" lon="4.39992">
        <ele>570.6418</ele>
        <time>2015-06-28T01:02:16Z</time>
      </trkpt>
      <trkpt lat="45.71661" lon="4.39986">
        <ele>570.6418</ele>
        <time>2015-06-28T01:02:21Z</time>
      </trkpt>
      <trkpt lat="45.71658" lon="4.39979">
        <ele>571.3888</ele>
        <time>2015-06-28T01:02:26Z</time>
      </trkpt>
      <trkpt lat="45.71656" lon="4.39974">
        <ele>571.3888</ele>
        <time>2015-06-28T01:02:31Z</time>
      </trkpt>
      <trkpt lat="45.71653" lon="4.39971">
        <ele>571.3888</ele>
        <time>2015-06-28T01:02:36Z</time>
      </trkpt>
      <trkpt lat="45.71649" lon="4.39966">
        <ele>572.4183</ele>
        <time>2015-06-28T01:02:41Z</time>
      </trkpt>
      <trkpt lat="45.71647" lon="4.39962">
        <ele>572.4183</ele>
        <time>2015-06-28T01:02:46Z</time>
      </trkpt>
      <trkpt lat="45.71645" lon="4.39956">
        <ele>572.4183</ele>
        <time>2015-06-28T01:02:51Z</time>
      </trkpt>
      <trkpt lat="45.7164" lon="4.39947">
        <ele>573.7197</ele>
        <time>2015-06-28T01:02:56Z</time>
      </trkpt>
      <trkpt lat="45.71638" lon="4.39938">
        <ele>573.7197</ele>
        <time>2015-06-28T01:03:01Z</time>
      </trkpt>
      <trkpt lat="45.71636" lon="4.39928">
        <ele>575.13873</ele>
        <time>2015-06-28T01:03:06Z</time>
      </trkpt>
      <trkpt lat="45.71633" lon="4.39917">
        <ele>575.13873</ele>
        <time>2015-06-28T01:03:11Z</time>
      </trkpt>
      <trkpt lat="45.7163" lon="4.39911">
        <ele>576.6185</ele>
        <time>2015-06-28T01:03:16Z</time>
      </trkpt>
      <trkpt lat="45.71627" lon="4.39901">
        <ele>576.6185</ele>
        <time>2015-06-28T01:03:21Z</time>
      </trkpt>
      <trkpt lat="45.71625" lon="4.39893">
        <ele>578.1351</ele>
        <time>2015-06-28T01:03:26Z</time>
      </trkpt>
      <trkpt lat="45.71622" lon="4.39885">
        <ele>578.1351</ele>
        <time>2015-06-28T01:03:31Z</time>
      </trkpt>
      <trkpt lat="45.71619" lon="4.39876">
        <ele>579.66626</ele>
        <time>2015-06-28T01:03:36Z</time>
      </trkpt>
      <trkpt lat="45.71615" lon="4.39869">
        <ele>579.66626</ele>
        <time>2015-06-28T01:03:41Z</time>
      </trkpt>
      <trkpt lat="45.71612" lon="4.39862">
        <ele>581.1916</ele>
        <time>2015-06-28T01:03:46Z</time>
      </trkpt>
      <trkpt lat="45.71607" lon="4.39857">
        <ele>581.1916</ele>
        <time>2015-06-28T01:03:51Z</time>
      </trkpt>
      <trkpt lat="45.71603" lon="4.3985">
        <ele>582.66345</ele>
        <time>2015-06-28T01:03:56Z</time>
      </trkpt>
      <trkpt lat="45.716" lon="4.39838">
        <ele>584.0091</ele>
        <time>2015-06-28T01:04:01Z</time>
      </trkpt>
      <trkpt lat="45.71597" lon="4.39831">
        <ele>584.0091</ele>
        <time>2015-06-28T01:04:06Z</time>
      </trkpt>
      <trkpt lat="45.71594" lon="4.39825">
        <ele>585.24817</ele>
        <time>2015-06-28T01:04:11Z</time>
      </trkpt>
      <trkpt lat="45.7159" lon="4.39817">
        <ele>585.24817</ele>
        <time>2015-06-28T01:04:16Z</time>
      </trkpt>
      <trkpt lat="45.71588" lon="4.3981">
        <ele>586.3848</ele>
        <time>2015-06-28T01:04:21Z</time>
      </trkpt>
      <trkpt lat="45.71583" lon="4.39804">
        <ele>586.3848</ele>
        <time>2015-06-28T01:04:26Z</time>
      </trkpt>
      <trkpt lat="45.71581" lon="4.39795">
        <ele>587.4955</ele>
        <time>2015-06-28T01:04:31Z</time>
      </trkpt>
      <trkpt lat="45.71577" lon="4.39789">
        <ele>587.4955</ele>
        <time>2015-06-28T01:04:36Z</time>
      </trkpt>
      <trkpt lat="45.71576" lon="4.39781">
        <ele>588.6654</ele>
        <time>2015-06-28T01:04:41Z</time>
      </trkpt>
      <trkpt lat="45.71575" lon="4.39773">
        <ele>588.6654</ele>
        <time>2015-06-28T01:04:46Z</time>
      </trkpt>
      <trkpt lat="45.71573" lon="4.39767">
        <ele>589.8008</ele>
        <time>2015-06-28T01:04:51Z</time>
      </trkpt>
      <trkpt lat="45.71572" lon="4.3976">
        <ele>589.8008</ele>
        <time>2015-06-28T01:04:56Z</time>
      </trkpt>
      <trkpt lat="45.71571" lon="4.39753">
        <ele>590.9878</ele>
        <time>2015-06-28T01:05:01Z</time>
      </trkpt>
      <trkpt lat="45.71571" lon="4.39744">
        <ele>590.9878</ele>
        <time>2015-06-28T01:05:06Z</time>
      </trkpt>
      <trkpt lat="45.71571" lon="4.39737">
        <ele>592.2342</ele>
        <time>2015-06-28T01:05:11Z</time>
      </trkpt>
      <trkpt lat="45.71569" lon="4.39726">
        <ele>592.2342</ele>
        <time>2015-06-28T01:05:16Z</time>
      </trkpt>
      <trkpt lat="45.71565" lon="4.39718">
        <ele>593.3886</ele>
        <time>2015-06-28T01:05:21Z</time>
      </trkpt>
      <trkpt lat="45.7156" lon="4.39718">
        <ele>593.3886</ele>
        <time>2015-06-28T01:05:26Z</time>
      </trkpt>
      <trkpt lat="45.71552" lon="4.39721">
        <ele>594.51306</ele>
        <time>2015-06-28T01:05:31Z</time>
      </trkpt>
      <trkpt lat="45.71546" lon="4.39722">
        <ele>594.51306</ele>
        <time>2015-06-28T01:05:36Z</time>
      </trkpt>
      <trkpt lat="45.7154" lon="4.39724">
        <ele>595.73706</ele>
        <time>2015-06-28T01:05:41Z</time>
      </trkpt>
      <trkpt lat="45.71534" lon="4.39724">
        <ele>595.73706</ele>
        <time>2015-06-28T01:05:46Z</time>
      </trkpt>
      <trkpt lat="45.71528" lon="4.39725">
        <ele>596.9933</ele>
        <time>2015-06-28T01:05:51Z</time>
      </trkpt>
      <trkpt lat="45.71523" lon="4.39723">
        <ele>596.9933</ele>
        <time>2015-06-28T01:05:56Z</time>
      </trkpt>
      <trkpt lat="45.71519" lon="4.39718">
        <ele>598.277</ele>
        <time>2015-06-28T01:06:01Z</time>
      </trkpt>
      <trkpt lat="45.71514" lon="4.39712">
        <ele>598.277</ele>
        <time>2015-06-28T01:06:06Z</time>
      </trkpt>
      <trkpt lat="45.7151" lon="4.39706">
        <ele>599.4828</ele>
        <time>2015-06-28T01:06:11Z</time>
      </trkpt>
      <trkpt lat="45.71505" lon="4.39707">
        <ele>599.4828</ele>
        <time>2015-06-28T01:06:16Z</time>
      </trkpt>
      <trkpt lat="45.715" lon="4.39711">
        <ele>600.5857</ele>
        <time>2015-06-28T01:06:21Z</time>
      </trkpt>
      <trkpt lat="45.71492" lon="4.39712">
        <ele>600.5857</ele>
        <time>2015-06-28T01:06:26Z</time>
      </trkpt>
      <trkpt lat="45.71483" lon="4.39714">
        <ele>601.60596</ele>
        <time>2015-06-28T01:06:31Z</time>
      </trkpt>
      <trkpt lat="45.71481" lon="4.39719">
        <ele>601.60596</ele>
        <time>2015-06-28T01:06:36Z</time>
      </trkpt>
      <trkpt lat="45.71478" lon="4.39724">
        <ele>602.54846</ele>
        <time>2015-06-28T01:06:41Z</time>
      </trkpt>
      <trkpt lat="45.71476" lon="4.39731">
        <ele>602.54846</ele>
        <time>2015-06-28T01:06:46Z</time>
      </trkpt>
      <trkpt lat="45.71472" lon="4.39738">
        <ele>603.3314</ele>
        <time>2015-06-28T01:06:51Z</time>
      </trkpt>
      <trkpt lat="45.71466" lon="4.39744">
        <ele>603.3314</ele>
        <time>2015-06-28T01:06:56Z</time>
      </trkpt>
      <trkpt lat="45.71461" lon="4.39748">
        <ele>603.99506</ele>
        <time>2015-06-28T01:07:01Z</time>
      </trkpt>
      <trkpt lat="45.71455" lon="4.39752">
        <ele>603.99506</ele>
        <time>2015-06-28T01:07:06Z</time>
      </trkpt>
      <trkpt lat="45.71449" lon="4.39757">
        <ele>604.54803</ele>
        <time>2015-06-28T01:07:11Z</time>
      </trkpt>
      <trkpt lat="45.71447" lon="4.39759">
        <ele>604.54803</ele>
        <time>2015-06-28T01:07:16Z</time>
      </trkpt>
      <trkpt lat="45.71442" lon="4.39761">
        <ele>604.54803</ele>
        <time>2015-06-28T01:07:21Z</time>
      </trkpt>
      <trkpt lat="45.71437" lon="4.39764">
        <ele>605.1575</ele>
        <time>2015-06-28T01:07:26Z</time>
      </trkpt>
      <trkpt lat="45.71431" lon="4.39769">
        <ele>605.1575</ele>
        <time>2015-06-28T01:07:31Z</time>
      </trkpt>
      <trkpt lat="45.71425" lon="4.39773">
        <ele>605.64667</ele>
        <time>2015-06-28T01:07:36Z</time>
      </trkpt>
      <trkpt lat="45.71419" lon="4.39778">
        <ele>605.64667</ele>
        <time>2015-06-28T01:07:41Z</time>
      </trkpt>
      <trkpt lat="45.71414" lon="4.39785">
        <ele>606.02515</ele>
        <time>2015-06-28T01:07:46Z</time>
      </trkpt>
      <trkpt lat="45.71407" lon="4.3979">
        <ele>606.02515</ele>
        <time>2015-06-28T01:07:51Z</time>
      </trkpt>
      <trkpt lat="45.71402" lon="4.39796">
        <ele>606.1869</ele>
        <time>2015-06-28T01:07:56Z</time>
      </trkpt>
      <trkpt lat="45.71398" lon="4.39801">
        <ele>606.1869</ele>
        <time>2015-06-28T01:08:01Z</time>
      </trkpt>
      <trkpt lat="45.71391" lon="4.39808">
        <ele>606.1929</ele>
        <time>2015-06-28T01:08:06Z</time>
      </trkpt>
      <trkpt lat="45.71385" lon="4.39813">
        <ele>606.1929</ele>
        <time>2015-06-28T01:08:11Z</time>
      </trkpt>
      <trkpt lat="45.7138" lon="4.39819">
        <ele>605.9703</ele>
        <time>2015-06-28T01:08:16Z</time>
      </trkpt>
      <trkpt lat="45.71376" lon="4.39823">
        <ele>605.9703</ele>
        <time>2015-06-28T01:08:21Z</time>
      </trkpt>
      <trkpt lat="45.71371" lon="4.39828">
        <ele>605.62537</ele>
        <time>2015-06-28T01:08:26Z</time>
      </trkpt>
      <trkpt lat="45.71366" lon="4.39833">
        <ele>605.62537</ele>
        <time>2015-06-28T01:08:31Z</time>
      </trkpt>
      <trkpt lat="45.71361" lon="4.3984">
        <ele>605.0551</ele>
        <time>2015-06-28T01:08:36Z</time>
      </trkpt>
      <trkpt lat="45.71357" lon="4.39841">
        <ele>605.0551</ele>
        <time>2015-06-28T01:08:41Z</time>
      </trkpt>
      <trkpt lat="45.71355" lon="4.39842">
        <ele>605.0551</ele>
        <time>2015-06-28T01:08:46Z</time>
      </trkpt>
      <trkpt lat="45.71352" lon="4.39844">
        <ele>604.1647</ele>
        <time>2015-06-28T01:08:51Z</time>
      </trkpt>
      <trkpt lat="45.71349" lon="4.39848">
        <ele>604.1647</ele>
        <time>2015-06-28T01:08:56Z</time>
      </trkpt>
      <trkpt lat="45.71346" lon="4.3985">
        <ele>604.1647</ele>
        <time>2015-06-28T01:09:01Z</time>
      </trkpt>
      <trkpt lat="45.71342" lon="4.39851">
        <ele>602.99695</ele>
        <time>2015-06-28T01:09:06Z</time>
      </trkpt>
      <trkpt lat="45.71337" lon="4.39853">
        <ele>602.99695</ele>
        <time>2015-06-28T01:09:11Z</time>
      </trkpt>
      <trkpt lat="45.71333" lon="4.39852">
        <ele>601.6355</ele>
        <time>2015-06-28T01:09:16Z</time>
      </trkpt>
      <trkpt lat="45.7133" lon="4.39849">
        <ele>601.6355</ele>
        <time>2015-06-28T01:09:21Z</time>
      </trkpt>
      <trkpt lat="45.71325" lon="4.39847">
        <ele>601.6355</ele>
        <time>2015-06-28T01:09:26Z</time>
      </trkpt>
      <trkpt lat="45.71319" lon="4.39846">
        <ele>599.85565</ele>
        <time>2015-06-28T01:09:31Z</time>
      </trkpt>
      <trkpt lat="45.71318" lon="4.39846">
        <ele>599.85565</ele>
        <time>2015-06-28T01:09:36Z</time>
      </trkpt>
      <trkpt lat="45.71318" lon="4.39847">
        <ele>599.85565</ele>
        <time>2015-06-28T01:09:41Z</time>
      </trkpt>
      <trkpt lat="45.71318" lon="4.39848">
        <ele>599.85565</ele>
        <time>2015-06-28T01:09:46Z</time>
      </trkpt>
      <trkpt lat="45.71318" lon="4.39848">
        <ele>599.85565</ele>
        <time>2015-06-28T01:09:51Z</time>
      </trkpt>
      <trkpt lat="45.71318" lon="4.39849">
        <ele>599.85565</ele>
        <time>2015-06-28T01:09:56Z</time>
      </trkpt>
      <trkpt lat="45.71317" lon="4.39851">
        <ele>599.85565</ele>
        <time>2015-06-28T01:10:01Z</time>
      </trkpt>
      <trkpt lat="45.71316" lon="4.39851">
        <ele>599.85565</ele>
        <time>2015-06-28T01:10:06Z</time>
      </trkpt>
      <trkpt lat="45.71314" lon="4.39852">
        <ele>599.85565</ele>
        <time>2015-06-28T01:10:11Z</time>
      </trkpt>
      <trkpt lat="45.71314" lon="4.39852">
        <ele>599.4121</ele>
        <time>2015-06-28T01:10:16Z</time>
      </trkpt>
      <trkpt lat="45.71313" lon="4.39852">
        <ele>598.9685</ele>
        <time>2015-06-28T01:10:21Z</time>
      </trkpt>
      <trkpt lat="45.71313" lon="4.39852">
        <ele>598.52496</ele>
        <time>2015-06-28T01:10:26Z</time>
      </trkpt>
      <trkpt lat="45.71313" lon="4.39852">
        <ele>598.08136</ele>
        <time>2015-06-28T01:10:31Z</time>
      </trkpt>
      <trkpt lat="45.71312" lon="4.39852">
        <ele>597.6378</ele>
        <time>2015-06-28T01:10:36Z</time>
      </trkpt>
      <trkpt lat="45.71308" lon="4.39852">
        <ele>597.6378</ele>
        <time>2015-06-28T01:11:06Z</time>
      </trkpt>
      <trkpt lat="45.71308" lon="4.39852">
        <ele>597.6378</ele>
        <time>2015-06-28T01:11:46Z</time>
      </trkpt>
      <trkpt lat="45.71308" lon="4.39853">
        <ele>597.6378</ele>
        <time>2015-06-28T01:11:51Z</time>
      </trkpt>
      <trkpt lat="45.71308" lon="4.39853">
        <ele>597.6378</ele>
        <time>2015-06-28T01:11:56Z</time>
      </trkpt>
      <trkpt lat="45.71307" lon="4.39856">
        <ele>597.6378</ele>
        <time>2015-06-28T01:12:01Z</time>
      </trkpt>
      <trkpt lat="45.71307" lon="4.39856">
        <ele>597.6378</ele>
        <time>2015-06-28T01:12:06Z</time>
      </trkpt>
      <trkpt lat="45.71305" lon="4.39858">
        <ele>595.5413</ele>
        <time>2015-06-28T01:12:21Z</time>
      </trkpt>
      <trkpt lat="45.71304" lon="4.39858">
        <ele>595.5413</ele>
        <time>2015-06-28T01:12:41Z</time>
      </trkpt>
      <trkpt lat="45.71303" lon="4.39859">
        <ele>595.5413</ele>
        <time>2015-06-28T01:12:46Z</time>
      </trkpt>
      <trkpt lat="45.71303" lon="4.39859">
        <ele>595.5413</ele>
        <time>2015-06-28T01:12:51Z</time>
      </trkpt>
      <trkpt lat="45.71303" lon="4.39859">
        <ele>595.5413</ele>
        <time>2015-06-28T01:12:56Z</time>
      </trkpt>
      <trkpt lat="45.71303" lon="4.39859">
        <ele>595.5413</ele>
        <time>2015-06-28T01:13:01Z</time>
      </trkpt>
      <trkpt lat="45.71304" lon="4.39861">
        <ele>595.5413</ele>
        <time>2015-06-28T01:13:06Z</time>
      </trkpt>
      <trkpt lat="45.71304" lon="4.39861">
        <ele>595.5413</ele>
        <time>2015-06-28T01:13:11Z</time>
      </trkpt>
      <trkpt lat="45.71304" lon="4.39861">
        <ele>595.5413</ele>
        <time>2015-06-28T01:13:16Z</time>
      </trkpt>
      <trkpt lat="45.71306" lon="4.3986">
        <ele>595.5413</ele>
        <time>2015-06-28T01:13:21Z</time>
      </trkpt>
      <trkpt lat="45.71307" lon="4.39858">
        <ele>595.5413</ele>
        <time>2015-06-28T01:13:26Z</time>
      </trkpt>
      <trkpt lat="45.7131" lon="4.39853">
        <ele>595.5413</ele>
        <time>2015-06-28T01:13:26Z</time>
      </trkpt>
    </trkseg>
  </trk>
</gpx>